GFSGBSN_sfc_dewp_015.txt.gz
Dewpoint
57 57 57 56 56 56 56 56 55 55 55 55 54 53 53 53 54 54 54 53 54 52 53 52 52 52 51 47 37 33 61 61 48 39 33 32 32 30 22 19 23 13 7 11 13 9 5
57 57 56 56 56 56 56 55 54 55 55 53 53 53 53 53 53 55 54 53 53 52 52 51 51 52 48 30 32 33 49 45 42 39 36 33 30 31 25 20 9 11 10 8 14 14 9
57 56 56 56 56 56 56 54 54 54 54 54 53 53 53 53 54 55 53 52 52 52 51 51 52 51 49 32 37 37 39 42 37 35 32 37 35 31 24 22 18 10 7 9 12 15 15
57 56 56 56 56 56 55 55 54 54 53 53 53 53 54 55 54 54 52 52 52 52 51 51 52 51 35 38 40 35 22 22 27 35 31 26 29 28 20 18 18 13 13 9 13 17 18
56 56 56 56 56 55 55 55 54 53 54 54 53 54 55 55 55 52 52 52 51 51 51 52 50 50 26 38 28 22 24 23 25 29 27 23 27 23 20 15 13 16 10 16 16 18 17
56 56 56 56 56 55 55 55 54 53 53 53 54 55 54 54 54 53 52 52 52 53 52 52 51 39 35 25 27 22 24 25 27 31 27 27 27 21 21 12 7 11 15 23 13 16 18
56 56 56 56 56 55 55 54 54 53 54 55 55 55 54 54 54 54 53 51 43 42 49 24 28 33 35 29 21 21 24 26 28 27 24 27 22 18 21 22 18 19 19 18 17 19 24
56 56 56 56 55 54 55 55 55 55 54 54 54 54 54 54 54 54 50 49 41 45 35 41 42 39 37 30 23 22 30 25 26 23 27 23 20 23 29 29 26 23 21 22 23 21 25
55 55 56 55 54 55 56 55 55 54 54 54 53 53 54 54 54 51 48 45 50 48 39 29 36 33 28 27 26 25 27 29 24 24 25 22 23 27 26 27 27 28 25 23 21 22 25
55 54 55 55 53 54 55 55 54 54 53 53 53 53 53 53 49 49 46 47 52 42 25 22 26 25 29 30 24 26 27 27 27 24 25 28 31 28 27 25 28 27 29 27 24 20 22
54 54 54 53 53 54 54 53 53 53 53 53 52 53 53 52 48 51 49 56 52 42 18 24 27 29 26 29 27 22 29 29 22 24 27 28 29 28 25 27 28 28 30 27 27 24 23
54 54 53 52 52 53 53 52 52 52 52 52 52 53 53 51 50 49 55 50 40 35 18 27 28 27 25 29 28 27 31 33 30 29 28 29 30 28 28 30 29 29 31 31 32 28 24
53 53 53 52 52 53 53 52 52 52 52 52 52 53 51 53 51 56 54 39 30 28 29 24 26 28 27 28 29 29 29 29 28 25 27 27 27 28 30 29 30 30 29 25 25 24 24
53 52 52 51 52 53 52 52 51 51 52 52 52 52 52 51 59 56 43 30 29 30 26 27 28 28 27 29 30 30 29 26 29 30 28 26 23 26 26 28 26 28 28 26 22 21 22
53 52 51 52 52 52 52 51 51 51 51 52 52 51 55 56 58 50 39 30 32 32 25 27 28 27 28 29 28 28 28 26 29 30 28 26 25 28 27 27 30 29 25 29 27 26 24
52 52 51 52 52 52 51 50 51 51 51 52 51 48 46 56 53 48 40 36 37 35 28 29 26 28 25 26 28 29 30 32 32 31 31 30 23 27 26 30 30 26 29 26 26 17 18
52 51 52 51 51 51 51 51 51 51 52 52 47 34 39 55 43 40 33 38 41 33 35 28 27 29 28 27 29 31 32 34 36 34 32 32 25 25 29 27 27 27 26 27 28 25 20
51 51 51 51 51 51 51 51 51 51 52 50 44 29 48 40 28 39 37 40 39 32 35 35 36 33 29 34 35 34 34 35 38 38 28 33 29 25 26 29 31 28 28 25 22 23 25
51 51 50 51 50 50 50 50 51 51 51 50 42 48 53 37 26 32 36 38 35 32 33 34 34 36 36 36 33 37 37 39 35 35 33 31 28 25 27 29 28 27 29 31 28 25 23
51 50 51 51 50 50 50 50 51 51 51 50 43 39 43 45 37 31 35 36 34 37 36 35 34 36 34 36 38 36 36 39 35 33 40 37 31 25 24 25 26 21 26 30 27 23 23
50 50 50 49 49 49 50 50 51 50 50 49 46 37 39 36 38 42 37 36 34 33 36 35 33 35 33 33 35 36 37 36 34 37 36 33 28 29 28 29 26 23 22 28 27 27 23
50 50 49 48 49 50 50 50 50 50 50 47 46 41 41 32 35 38 40 37 34 35 34 34 33 38 35 33 33 35 34 31 28 35 36 36 28 26 29 31 31 24 24 24 25 25 28
50 50 48 48 50 50 50 49 50 50 49 45 48 49 41 39 36 37 38 37 36 36 38 38 38 36 34 38 38 38 38 38 36 34 36 32 28 22 17 29 26 15 25 28 26 27 26
50 50 50 50 51 50 50 49 49 50 50 51 52 47 41 35 32 34 39 38 38 37 37 39 38 36 38 39 35 32 32 37 39 40 36 31 29 23 19 20 7 20 29 29 27 30 34
50 50 51 51 50 50 49 49 49 50 52 51 53 46 40 33 39 39 40 40 41 42 41 41 42 40 40 32 29 26 26 26 30 38 36 34 28 25 17 19 17 19 29 29 28 26 35
50 50 50 50 50 49 49 49 49 50 52 53 53 49 42 40 39 41 40 39 37 37 38 41 45 44 38 30 26 20 17 20 27 33 36 33 28 23 24 10 5 17 31 33 30 26 37
49 50 50 50 50 49 49 49 49 50 52 50 51 51 46 41 43 43 39 38 41 39 38 40 41 38 36 27 23 24 27 28 27 25 26 26 23 19 14 13 21 25 33 33 23 21 38
49 49 49 49 50 49 49 49 49 50 51 50 51 52 47 41 45 48 46 43 42 41 36 39 37 36 31 27 24 26 26 29 28 30 30 29 27 23 24 17 17 31 32 29 31 35 39
49 49 49 48 48 50 49 49 50 50 50 51 50 53 51 46 45 48 48 48 47 42 43 40 37 38 37 32 29 32 30 33 27 25 32 26 27 27 27 27 30 33 33 35 38 39 39

GFSGBSN_sfc_dewp_018.txt.gz
Dewpoint
59 58 58 57 57 57 55 56 56 54 54 54 53 53 53 53 54 55 54 54 52 52 52 52 51 51 50 47 39 46 62 61 49 35 31 30 30 28 25 25 23 18 13 12 11 12 9
59 58 58 57 57 56 55 56 56 54 54 53 54 53 53 53 53 54 53 54 52 52 52 51 51 51 47 34 31 47 52 45 40 35 33 31 30 30 29 21 17 18 9 10 14 8 6
59 58 57 56 56 56 56 56 56 54 54 53 53 53 53 53 54 54 54 54 52 52 51 50 50 50 49 37 34 39 45 39 40 36 34 34 31 28 29 24 19 10 5 9 11 14 14
58 58 57 56 55 55 56 56 55 53 53 53 53 53 52 53 54 54 53 52 52 51 51 51 52 50 40 37 40 38 33 25 36 37 33 32 36 33 29 21 18 12 13 8 10 16 17
58 58 57 56 55 56 55 55 55 53 53 53 53 53 53 54 55 53 52 52 52 50 51 51 49 50 31 36 31 24 22 23 26 34 33 27 30 23 18 16 13 15 9 14 15 18 16
58 57 57 56 56 56 56 55 55 53 53 53 52 52 55 54 54 53 51 51 51 52 52 51 51 41 34 22 32 22 23 25 28 32 29 27 25 21 21 12 9 9 12 21 13 22 27
58 57 56 56 56 56 56 55 55 53 53 53 55 55 54 54 54 53 51 50 44 43 49 28 29 26 31 31 23 21 23 27 28 26 24 26 21 18 22 19 15 17 16 16 17 20 28
57 56 56 56 56 56 56 55 55 55 55 55 54 54 54 54 54 53 50 48 39 45 40 43 41 37 38 34 25 23 29 25 26 23 26 22 21 24 29 28 24 22 20 20 22 25 31
56 56 56 56 56 56 55 55 55 55 54 54 54 53 54 54 54 53 50 45 49 47 39 31 38 31 31 28 24 25 27 28 23 23 24 21 25 28 28 27 25 27 22 23 21 27 29
56 55 55 55 55 55 54 55 55 55 53 53 53 53 53 53 50 49 46 45 53 43 25 24 25 25 28 27 23 26 27 26 26 24 29 28 30 27 25 25 27 24 28 25 23 25 23
55 54 54 54 55 54 53 54 54 54 53 53 53 53 53 52 47 51 49 57 52 39 16 22 25 27 26 28 24 23 33 26 23 25 27 28 28 26 25 26 27 27 30 27 25 24 22
55 54 54 54 53 53 52 53 53 53 52 53 53 53 52 52 49 49 54 46 38 33 18 25 27 25 26 28 27 28 31 32 30 30 29 28 29 28 27 29 28 29 30 30 31 27 23
54 54 53 53 53 52 52 53 52 52 52 52 52 53 53 51 50 56 50 36 28 27 27 23 25 25 26 28 29 29 29 29 26 24 26 26 27 27 29 28 29 31 28 25 25 24 24
54 53 53 53 52 52 52 53 52 51 52 52 52 52 52 51 54 54 38 28 23 30 25 26 27 27 25 29 29 29 28 26 28 28 27 24 19 24 26 27 26 26 28 26 21 23 23
54 53 53 52 52 52 52 52 52 51 52 52 52 50 52 56 54 47 34 26 27 32 26 27 27 26 27 28 28 28 28 26 29 29 27 25 24 27 26 28 29 28 25 28 27 26 24
54 53 52 52 51 52 52 52 51 51 52 52 50 50 48 54 51 45 34 28 35 38 29 28 25 28 25 27 27 28 29 32 31 33 31 29 24 26 26 30 29 27 29 24 25 17 16
53 52 52 51 51 52 52 52 51 51 52 52 43 36 39 53 41 36 28 31 40 38 34 27 27 28 27 26 29 30 30 33 36 35 32 29 25 23 27 26 26 27 25 27 27 24 19
52 51 51 51 51 51 51 51 51 51 51 51 39 30 46 39 31 37 35 40 41 31 35 35 33 30 28 33 33 33 31 33 37 37 28 32 28 25 24 29 32 28 26 24 21 20 24
52 51 50 51 51 51 51 51 51 51 52 48 41 48 52 37 27 31 34 37 36 31 33 33 34 35 36 35 32 35 35 37 33 34 31 30 27 25 24 25 26 26 30 28 26 25 24
51 50 50 51 51 51 51 51 51 51 52 48 44 41 44 41 36 30 30 34 33 36 35 34 35 35 35 36 37 35 35 37 34 34 40 36 29 23 21 21 25 24 28 28 24 21 21
50 50 50 51 50 50 50 51 51 51 51 50 42 39 42 38 39 32 32 35 33 32 35 34 33 34 34 33 34 34 36 34 33 38 37 31 26 27 28 29 26 22 22 28 25 24 22
50 50 50 50 49 49 50 50 50 50 51 47 46 38 36 35 41 39 36 34 33 34 34 32 32 36 34 33 32 34 33 30 23 35 35 34 27 23 28 30 29 25 23 24 27 26 27
50 49 49 49 49 50 50 50 50 50 49 45 48 46 38 36 37 38 38 37 35 36 38 37 35 35 33 36 38 38 37 36 34 34 34 30 27 20 15 27 22 17 22 24 24 26 25
50 48 48 48 50 50 50 49 50 50 49 48 49 46 40 32 33 37 38 39 37 35 35 38 37 34 37 37 35 33 33 37 39 39 35 29 26 21 17 18 8 19 28 28 26 27 28
50 49 49 51 50 50 49 49 50 49 50 50 51 45 40 30 32 35 39 40 40 41 40 40 42 40 38 31 30 28 27 27 30 36 33 31 26 23 16 17 16 14 23 28 27 25 33
49 50 50 50 50 49 49 49 49 49 51 53 51 46 43 38 37 38 39 39 37 37 37 40 44 41 35 29 25 22 22 24 24 32 35 30 26 22 17 9 5 17 26 31 29 25 32
49 50 50 50 49 49 49 49 50 50 51 51 50 49 45 41 43 41 38 38 39 37 37 39 39 37 35 26 22 21 21 25 24 24 26 26 25 18 12 12 19 22 30 32 22 23 36
49 49 49 49 49 49 49 49 50 51 50 52 50 51 45 42 44 46 45 41 41 39 36 39 37 36 31 27 25 25 23 28 28 28 31 29 27 21 21 13 16 28 32 27 30 32 37
48 48 49 50 49 47 47 48 49 50 50 52 50 53 50 46 45 48 48 47 46 41 42 39 37 37 37 31 26 27 29 29 26 24 32 26 27 25 25 25 28 30 33 34 34 33 38

GFSGBSN_sfc_dewp_021.txt.gz
Dewpoint
60 59 59 58 58 57 57 57 56 56 53 53 54 54 54 53 53 53 52 54 53 52 52 51 51 51 50 46 40 48 61 60 52 34 31 31 30 29 28 28 24 21 19 13 12 15 25
59 59 59 58 58 58 57 56 56 56 55 53 54 53 54 53 53 53 53 52 54 53 52 51 50 50 47 34 33 51 52 48 41 34 32 31 29 29 28 23 23 22 12 10 12 10 12
60 59 59 58 57 57 57 56 56 56 56 53 54 53 54 52 53 53 52 52 52 52 51 50 50 50 49 38 34 47 45 42 39 35 33 33 32 31 31 24 19 12 10 12 14 12 15
59 59 59 57 57 56 56 55 56 56 55 54 53 53 53 52 53 54 52 52 52 52 51 50 51 49 43 40 41 37 40 34 39 37 34 35 34 31 29 22 19 12 16 11 13 16 17
59 59 58 57 57 56 55 55 55 56 55 54 53 53 52 52 53 52 52 52 52 50 50 51 50 49 37 40 32 28 26 25 35 37 37 34 35 32 20 18 16 19 10 14 14 26 17
59 59 58 57 57 56 55 55 55 55 54 54 53 52 52 54 54 53 51 51 51 51 51 50 50 44 36 26 34 24 27 29 35 33 32 30 27 24 20 15 13 14 13 14 15 23 30
56 59 58 57 56 56 56 56 55 55 53 53 53 53 55 54 54 52 51 50 46 46 50 35 34 31 26 31 29 22 28 32 38 31 27 27 22 20 22 17 14 15 15 15 19 26 35
54 58 57 57 56 56 56 56 55 54 54 54 55 54 54 54 54 52 51 48 39 44 43 46 42 40 37 36 28 24 32 31 33 26 25 25 24 26 30 26 24 22 21 23 26 30 34
53 54 57 57 56 56 56 56 55 54 55 55 54 54 54 54 54 52 49 50 49 50 44 35 41 35 30 32 24 26 30 30 25 25 24 26 26 29 28 27 27 26 24 24 26 30 32
53 52 56 56 56 56 55 55 55 54 55 54 53 53 53 53 51 50 48 49 50 50 29 26 27 27 29 28 28 27 30 30 28 27 30 29 30 26 26 27 26 27 27 28 28 26 23
52 51 54 55 55 55 55 54 54 54 54 53 53 53 53 53 49 50 50 57 53 44 22 25 25 28 30 26 24 26 34 29 27 27 29 28 29 26 28 28 29 28 28 27 24 24 24
52 52 53 55 54 54 54 53 53 53 53 53 52 53 53 52 51 50 53 49 44 35 26 26 28 26 28 29 30 29 32 33 32 31 30 28 29 29 28 30 30 33 31 31 31 28 23
51 52 51 55 54 54 53 53 52 53 53 52 53 53 52 51 49 58 52 41 31 28 30 24 26 27 28 30 30 30 30 31 28 28 28 27 27 27 31 29 29 31 29 27 27 28 24
50 52 51 54 53 53 53 52 52 52 52 52 52 52 52 52 53 53 42 33 26 29 28 27 28 28 28 30 29 29 28 28 30 29 27 23 22 23 28 28 26 28 29 31 21 25 26
49 51 51 53 53 53 52 52 52 52 51 52 52 51 51 54 53 51 38 30 28 30 27 27 28 28 29 29 29 30 29 27 29 30 28 27 22 27 28 29 30 28 26 30 28 26 26
49 51 52 53 53 52 51 51 52 52 51 52 50 49 50 56 55 45 36 29 30 36 31 28 26 30 28 28 29 29 29 33 31 33 32 30 26 27 27 30 31 29 30 26 27 21 16
49 51 51 53 52 51 51 51 52 51 51 52 48 45 46 53 46 38 32 30 38 41 35 29 29 29 29 29 30 30 29 34 36 33 32 28 30 28 27 27 28 28 27 28 27 25 19
49 50 49 53 51 51 51 51 51 51 51 51 43 35 49 44 35 37 34 35 41 35 37 37 33 32 31 34 33 32 32 33 37 38 31 32 32 29 24 29 31 28 27 28 26 21 25
49 49 49 52 51 50 51 51 51 51 52 49 39 48 53 42 33 35 36 37 38 34 35 35 36 36 38 36 33 35 36 39 36 35 34 33 31 27 26 26 28 27 29 26 27 28 25
48 49 50 52 50 50 51 51 51 51 52 48 46 43 46 40 37 33 34 35 34 37 37 36 36 37 38 37 38 36 36 38 37 36 41 37 30 27 23 21 27 26 29 26 26 26 23
49 49 50 50 50 50 51 51 51 51 51 48 43 41 45 39 34 33 32 35 33 34 37 36 36 35 36 35 35 35 36 33 35 39 38 34 29 28 28 28 26 22 26 27 23 25 26
50 50 50 50 50 50 50 50 50 51 51 48 41 39 38 38 39 34 35 36 34 35 36 35 35 37 37 35 34 35 35 31 27 37 36 34 30 28 27 29 28 26 25 25 28 27 25
50 50 50 50 50 50 50 50 50 51 50 46 49 44 39 36 40 34 35 36 35 38 40 38 37 36 35 38 39 38 37 38 35 37 35 32 30 26 23 26 23 23 25 25 26 27 28
50 50 50 50 49 49 50 50 50 50 49 49 49 44 39 33 37 35 38 39 37 37 37 39 38 37 39 40 38 37 36 38 37 36 34 30 26 24 26 23 19 22 29 26 26 26 26
49 49 50 49 48 50 50 50 50 50 50 51 51 45 39 34 34 37 40 40 41 42 41 41 42 40 40 35 35 32 32 32 33 33 31 30 29 25 28 21 19 16 21 28 29 24 29
49 49 49 49 50 49 49 49 50 50 50 52 51 48 43 37 35 37 40 40 38 39 39 41 42 41 36 33 32 29 28 28 24 32 34 30 29 30 24 22 19 22 21 32 30 28 30
49 50 50 49 49 49 49 49 50 49 50 52 51 49 46 42 44 42 40 40 40 39 39 39 39 40 37 32 32 30 28 26 23 25 30 32 30 28 21 27 24 24 27 32 25 28 32
49 49 49 49 49 49 49 49 49 49 50 52 51 52 47 43 46 48 44 41 41 41 39 41 39 39 35 33 34 30 32 30 28 28 31 29 30 29 24 24 23 28 32 32 35 34 34
49 49 49 47 47 48 49 50 49 49 50 52 51 53 50 47 46 49 49 49 48 42 42 41 40 39 39 35 32 32 33 32 29 29 32 28 31 31 28 30 31 31 36 36 35 34 36

GFSGBSN_sfc_dewp_024.txt.gz
Dewpoint
61 60 60 59 59 58 58 58 57 57 56 55 54 55 55 54 54 54 54 54 54 54 53 51 51 51 50 43 31 46 60 59 44 33 29 26 24 22 17 19 23 22 19 17 15 30 38
61 60 59 59 58 58 58 58 57 56 56 56 54 53 55 54 53 54 54 54 53 54 53 52 50 51 48 33 32 46 48 42 34 31 32 29 23 24 21 25 22 22 19 13 12 22 33
56 60 59 59 58 58 58 57 57 56 56 56 55 54 54 54 52 53 54 53 53 53 52 51 50 49 48 34 32 44 41 37 34 31 31 32 28 25 27 27 23 16 12 12 11 17 24
56 59 60 59 58 57 57 57 56 56 56 56 55 54 53 53 52 53 54 53 53 52 50 50 51 50 41 37 36 37 35 37 39 34 32 33 34 30 28 23 15 11 13 9 15 15 16
56 56 60 59 58 57 56 56 56 56 56 56 54 53 53 53 52 53 53 53 52 50 50 52 51 50 34 41 31 26 33 26 35 36 36 32 33 29 26 23 12 14 6 10 15 22 16
56 55 59 59 58 57 56 56 55 55 55 55 54 52 53 53 53 54 52 52 51 51 51 50 50 47 38 25 30 26 25 31 33 34 33 31 28 25 19 17 11 9 11 7 10 23 15
55 55 56 59 58 57 57 56 55 55 55 54 54 52 53 54 54 52 50 50 48 47 49 35 30 33 22 26 30 20 25 29 29 28 26 28 23 20 16 18 14 12 12 10 18 29 30
53 53 54 58 58 57 57 56 55 55 54 54 53 54 55 54 54 52 51 47 42 48 38 42 39 36 34 32 26 21 28 23 28 21 25 24 21 25 26 19 17 16 14 19 24 30 30
52 53 54 54 58 57 57 56 55 55 54 54 55 54 54 54 53 51 50 47 50 49 44 37 40 31 25 30 22 20 25 25 25 23 25 23 27 27 25 23 21 23 21 24 20 28 31
52 52 53 53 56 57 56 56 55 55 54 54 54 53 53 53 49 50 47 46 48 52 28 24 28 29 28 28 22 26 29 25 26 22 28 27 27 26 25 24 24 22 25 25 27 24 18
51 51 52 52 54 56 55 55 55 55 54 54 53 53 53 52 51 46 50 52 57 49 21 23 24 26 28 23 23 28 32 27 23 27 29 27 26 25 25 27 28 26 29 27 25 24 24
50 51 52 52 52 55 55 54 54 54 54 54 53 53 53 52 52 52 53 54 52 35 20 22 24 24 26 26 25 29 30 32 31 28 28 28 29 28 28 30 29 30 29 28 27 26 22
49 50 51 52 52 54 55 54 53 53 53 53 52 53 53 52 47 59 59 49 31 27 26 21 23 24 23 24 26 28 28 28 24 26 27 26 26 27 30 28 32 30 27 24 26 25 21
49 49 50 51 51 53 54 54 53 52 52 52 52 53 52 52 53 56 50 37 26 21 24 24 23 24 23 25 27 28 29 26 29 27 24 21 23 24 28 28 24 27 26 24 13 18 19
48 49 50 50 51 52 54 53 52 52 52 52 52 52 51 53 55 54 42 32 25 26 27 24 24 22 25 26 26 28 28 26 29 30 21 23 21 27 29 29 29 28 25 30 28 29 28
48 48 48 49 51 51 53 53 52 52 52 52 50 50 47 55 57 51 40 31 27 33 29 25 21 22 23 23 24 27 28 31 30 32 33 28 25 27 29 30 31 29 29 26 29 23 15
48 48 48 48 50 51 52 52 51 52 52 52 49 42 53 60 55 47 35 33 30 38 34 26 23 26 25 27 23 25 27 32 33 31 31 28 27 28 29 27 26 28 27 26 25 26 16
47 47 48 48 50 51 52 52 51 52 52 51 48 39 56 54 44 40 34 32 39 34 38 31 31 30 28 30 30 25 27 29 36 34 29 31 31 30 27 29 31 29 26 24 22 20 28
47 47 47 48 49 50 52 51 51 51 51 49 42 47 53 47 39 41 35 32 38 32 33 34 32 32 35 34 31 33 34 36 35 34 33 33 31 28 26 28 29 28 28 25 28 29 24
46 47 47 48 49 48 52 51 51 51 51 49 43 44 49 43 38 35 33 32 32 36 34 35 35 37 37 35 37 36 35 35 35 34 40 36 32 28 26 21 26 27 28 25 23 25 19
46 47 47 48 47 48 51 51 51 51 51 50 45 41 43 39 36 36 34 32 28 34 35 36 35 34 34 35 35 35 36 32 35 40 38 35 30 29 26 26 26 24 24 25 22 22 24
47 47 47 48 47 47 51 50 50 50 51 49 42 43 43 40 36 34 34 33 28 34 34 33 34 36 37 35 32 35 35 33 32 37 36 35 32 30 28 28 27 25 24 23 25 23 24
47 47 48 48 48 50 51 50 50 50 51 46 50 45 41 40 36 34 32 30 30 38 39 36 37 37 37 38 40 39 38 36 34 36 37 35 34 29 24 26 26 32 27 23 23 26 26
46 47 48 49 49 50 50 50 50 50 50 47 50 44 43 40 37 30 30 32 35 37 39 38 39 38 41 41 40 39 38 37 36 36 35 34 32 32 33 29 30 17 23 23 24 23 23
47 48 48 49 50 50 50 50 50 50 50 53 53 46 44 41 37 33 32 33 40 41 41 40 41 41 42 39 39 35 38 40 37 34 32 32 32 32 36 23 19 10 18 22 24 18 23
48 49 50 49 49 49 49 50 50 50 50 54 54 52 48 46 40 35 35 39 40 41 42 41 41 42 38 41 41 37 33 30 30 33 34 30 32 34 31 34 32 22 25 31 30 24 25
49 49 49 49 49 49 49 49 50 50 50 55 54 54 48 48 41 43 38 39 42 42 42 41 40 41 39 43 43 41 35 28 27 30 34 37 37 36 32 36 28 23 23 32 24 24 31
49 49 49 49 49 49 49 49 49 49 50 55 55 55 51 49 45 47 44 43 43 43 44 42 41 41 42 44 44 38 41 33 29 26 31 32 35 37 32 35 30 26 31 30 33 35 35
49 49 48 48 48 48 48 49 49 49 50 53 52 54 54 49 49 51 50 50 48 44 45 44 43 41 42 43 43 42 38 36 35 33 32 30 33 34 30 31 29 32 33 35 37 36 36

GFSGBSN_sfc_dewp_027.txt.gz
Dewpoint
57 57 61 60 59 59 59 58 58 57 57 57 56 55 53 54 54 55 54 54 54 55 54 52 52 52 50 44 35 49 61 58 43 38 27 19 19 19 16 15 15 19 19 20 25 29 27
55 57 58 60 59 59 59 58 58 57 57 56 56 56 55 55 54 54 54 54 54 54 53 52 51 51 49 36 30 39 40 38 31 33 25 20 19 19 17 13 16 20 20 15 16 27 34
55 56 57 59 59 59 58 58 57 57 57 56 56 56 55 54 54 53 53 54 54 54 52 51 51 48 46 37 31 39 37 32 28 29 26 26 25 24 25 24 23 19 16 12 14 25 29
55 55 56 57 59 58 58 57 57 57 56 56 56 55 54 54 54 53 53 54 53 52 51 50 50 49 41 34 33 33 36 33 34 31 30 32 31 28 27 27 20 17 18 16 16 21 27
54 55 56 56 58 58 57 57 57 57 56 56 56 55 53 53 53 53 54 53 51 50 50 51 51 49 37 41 29 27 28 26 33 33 33 31 33 30 28 26 17 17 12 13 14 16 19
53 54 55 56 57 58 57 57 56 56 56 55 55 54 53 53 53 53 53 51 51 51 50 49 47 47 42 26 28 23 27 32 34 34 33 32 29 27 25 20 15 13 11 11 12 15 20
52 53 54 56 56 58 58 57 56 55 55 55 55 54 53 53 54 53 50 49 46 48 47 38 33 32 24 26 28 23 23 28 31 30 28 30 23 22 20 21 17 14 14 6 14 22 15
51 52 53 54 55 57 59 58 56 55 55 55 55 53 54 55 54 52 51 43 44 48 42 39 34 31 30 29 24 21 23 25 29 27 27 25 25 24 23 19 18 13 11 14 16 19 23
50 51 52 53 54 54 58 58 56 55 55 54 54 54 55 54 53 51 48 44 48 49 45 33 31 31 25 27 21 21 22 21 24 23 24 32 27 26 22 16 15 15 14 17 16 21 21
49 50 51 53 53 54 55 57 56 55 55 54 54 55 53 53 49 48 46 44 46 49 39 26 27 28 27 26 22 22 23 21 23 24 25 31 28 24 20 19 19 18 23 21 21 22 17
49 49 50 52 52 53 54 56 56 55 55 54 54 54 53 52 54 45 50 49 53 55 27 22 23 28 25 23 20 23 27 22 22 21 25 29 25 24 21 23 26 28 24 24 23 22 24
49 49 49 51 52 52 52 55 55 55 54 54 54 53 53 52 52 52 53 57 56 41 24 21 23 22 23 22 18 24 23 24 26 23 22 31 27 27 27 28 27 28 27 26 25 20 21
48 49 49 50 51 52 52 54 55 54 54 53 53 53 53 52 46 54 58 53 38 30 23 19 20 21 21 20 20 21 22 22 17 20 22 24 23 28 28 26 28 25 24 24 24 22 22
46 48 49 49 50 52 52 54 54 54 53 53 53 53 53 51 52 57 57 43 33 22 22 19 20 21 19 19 19 21 19 16 18 22 21 20 23 25 27 26 23 25 22 25 17 17 16
44 45 48 49 50 51 52 53 54 53 52 52 52 52 51 53 55 57 50 38 31 20 21 20 20 19 19 20 21 21 21 15 18 21 23 21 21 26 27 28 24 24 23 26 25 33 26
45 45 48 48 49 50 51 52 53 53 52 52 49 50 47 54 57 55 46 35 29 26 25 21 19 20 20 22 20 20 22 23 26 30 31 23 22 24 27 28 29 28 26 23 23 20 17
43 45 48 47 48 50 51 52 53 53 52 51 49 44 47 55 55 47 40 35 29 28 29 24 20 19 20 20 19 21 22 28 29 30 31 24 24 28 28 26 20 28 25 24 24 26 22
43 45 47 47 47 48 51 51 53 52 51 50 49 41 54 58 42 44 38 34 31 29 36 28 28 24 23 24 22 20 22 24 30 30 26 28 26 27 26 28 28 28 26 26 26 20 26
43 47 46 47 47 47 49 51 52 52 51 48 46 47 58 53 41 45 38 32 31 31 33 30 26 28 26 25 25 24 23 37 36 34 28 32 26 26 25 28 28 24 23 24 23 28 24
43 46 46 47 47 48 50 51 51 51 51 51 44 42 51 51 43 40 37 32 31 33 31 30 25 32 31 30 32 30 30 35 37 34 40 37 28 26 26 23 23 26 23 23 24 26 23
46 46 47 47 48 48 49 50 51 51 50 50 47 39 43 42 43 41 37 32 29 31 33 34 32 31 30 31 32 32 33 35 36 39 35 35 30 28 25 25 23 22 19 22 21 21 23
44 46 46 47 47 48 49 48 51 51 50 49 45 38 40 41 42 38 36 32 27 30 33 33 30 29 29 29 31 30 34 33 33 37 36 35 30 31 31 28 26 24 22 19 18 18 16
45 45 46 46 47 48 48 48 49 51 49 46 49 48 42 43 42 37 37 31 28 34 39 34 32 32 34 36 40 40 39 36 35 37 37 36 33 31 23 25 25 31 28 24 21 20 21
44 45 46 47 47 47 47 47 47 50 49 47 49 48 44 42 40 34 31 31 30 35 37 37 36 36 42 41 40 39 37 36 36 37 37 36 35 35 31 31 28 16 20 18 21 20 18
44 45 46 47 48 47 47 47 48 50 50 50 55 50 45 45 36 31 31 31 32 39 39 39 41 42 43 40 39 37 39 40 34 31 30 33 34 33 37 24 20 16 13 19 20 17 20
44 46 46 47 47 48 47 47 50 50 50 54 57 54 46 48 40 30 30 31 37 41 43 42 43 44 42 43 42 34 31 30 31 34 32 30 34 34 30 33 30 26 23 26 26 23 23
45 46 46 47 48 48 48 49 49 49 49 53 57 58 42 39 34 35 33 33 36 40 41 43 43 42 42 47 44 40 35 30 30 32 36 37 38 36 33 36 31 24 24 29 24 29 31
45 45 47 48 48 49 49 49 49 49 50 53 56 57 46 44 43 43 36 36 35 40 44 44 42 43 44 43 46 41 42 36 32 27 33 33 37 37 37 35 30 25 28 26 34 31 30
45 46 47 48 49 49 49 49 49 49 50 52 54 56 55 47 49 51 51 50 46 41 41 45 39 43 42 41 47 48 42 40 38 32 31 31 33 35 31 32 31 29 28 29 32 34 34

GFSGBSN_sfc_dewp_030.txt.gz
Dewpoint
55 56 57 58 61 60 60 59 58 58 57 57 57 56 56 54 54 54 54 53 54 54 54 53 53 52 50 45 38 50 61 58 42 34 32 26 17 17 16 16 16 15 17 17 21 32 31
54 55 56 57 58 60 60 59 58 58 57 57 56 56 56 55 54 55 55 54 53 54 54 53 52 52 49 37 29 41 41 40 29 32 30 20 17 17 18 14 14 15 20 19 17 30 29
53 55 56 56 57 59 60 59 58 58 57 57 56 56 56 55 54 54 53 54 52 54 53 51 51 48 44 36 34 37 34 28 27 30 24 24 22 23 22 22 16 21 18 18 15 26 30
52 54 55 56 56 57 58 58 58 58 57 57 56 56 55 54 54 53 53 54 54 53 52 51 51 49 42 36 34 33 35 33 32 28 28 30 31 27 27 28 23 21 19 17 18 25 29
52 53 54 54 56 56 57 58 58 58 57 57 56 56 55 53 52 53 53 54 54 52 51 51 50 49 38 41 31 28 29 27 31 32 32 30 31 30 28 26 24 20 16 20 18 20 28
51 52 53 54 54 56 56 58 57 57 57 56 56 55 54 53 52 53 54 53 53 51 50 48 46 43 43 30 26 24 26 29 33 32 32 31 30 28 26 25 21 18 18 16 14 13 17
52 51 51 54 54 55 56 58 57 56 56 56 56 55 54 53 53 54 51 49 47 47 47 36 34 33 25 25 27 25 24 32 31 33 30 30 26 24 32 27 22 19 16 15 13 14 16
51 51 51 51 53 54 56 57 58 56 56 55 55 55 54 54 54 54 51 47 44 48 44 42 30 33 30 29 24 23 22 25 31 32 31 28 27 26 31 24 23 20 18 16 13 17 18
50 51 51 51 52 53 54 54 57 56 56 55 55 54 54 54 54 52 48 44 45 47 43 35 29 26 29 27 23 20 21 22 30 30 31 32 30 30 28 21 18 18 17 21 15 13 8
48 49 51 51 51 52 53 54 55 56 56 55 54 54 54 53 50 49 46 45 46 51 38 29 27 27 27 25 22 19 20 20 26 24 36 33 30 27 22 19 17 22 25 21 20 18 15
47 47 50 50 51 51 52 53 54 56 55 54 54 54 53 52 53 45 51 47 55 55 31 26 25 25 26 24 20 19 23 24 22 25 31 32 30 27 24 24 26 26 29 26 18 18 32
47 47 49 50 50 50 51 53 53 55 55 54 54 54 53 53 51 52 54 57 56 42 28 21 23 24 22 22 18 18 21 24 22 22 25 28 29 31 37 31 26 28 28 24 22 22 30
47 47 49 49 50 50 51 52 52 54 55 54 53 54 53 50 47 53 55 55 40 29 22 20 20 22 20 19 19 20 22 20 19 21 23 24 24 25 31 24 24 21 22 27 31 31 29
44 46 48 49 49 50 50 52 52 53 54 54 53 53 53 50 52 56 57 52 32 25 26 16 18 19 19 19 16 17 20 17 18 17 17 22 22 22 25 23 31 24 20 31 27 29 25
43 45 46 47 49 49 50 51 51 53 53 53 52 52 51 53 54 56 53 43 33 29 22 19 17 18 18 17 16 17 19 16 16 17 26 28 29 30 25 24 23 24 23 24 24 35 35
43 45 45 45 47 49 49 50 51 53 53 52 50 48 48 54 56 54 49 40 33 29 25 20 18 18 17 16 18 19 18 18 16 20 38 40 35 34 25 25 25 24 23 26 26 24 21
43 45 44 44 47 48 48 50 51 53 53 52 48 43 49 55 56 49 42 40 37 29 25 23 18 18 18 19 19 19 16 17 24 26 28 28 35 27 27 24 16 26 25 22 18 28 30
43 43 43 44 45 46 48 49 51 53 52 51 47 39 52 56 43 39 41 37 36 32 27 28 26 21 20 22 21 18 20 22 25 26 26 25 26 29 24 24 25 25 26 24 35 24 32
43 43 44 44 45 45 48 48 50 52 52 50 42 44 55 53 36 40 40 38 34 31 29 30 26 26 23 23 21 21 21 37 36 31 30 31 28 28 21 25 27 24 21 21 26 33 29
42 43 44 45 45 44 47 47 49 52 52 51 44 43 52 53 40 38 40 36 33 33 27 30 27 26 27 24 26 25 25 35 37 34 41 40 28 23 27 22 24 27 24 19 22 35 29
43 43 44 44 45 46 47 47 48 51 51 51 47 41 45 43 44 40 41 35 32 30 29 30 28 24 29 29 25 29 28 36 35 38 34 34 27 25 21 22 24 25 21 20 18 23 26
42 43 44 43 47 47 46 47 47 51 51 49 44 40 45 40 43 40 41 38 31 29 29 31 29 27 30 29 29 29 29 34 32 38 34 35 33 32 31 28 26 26 24 22 19 17 18
41 43 46 45 46 45 46 47 48 50 51 48 46 49 46 42 41 40 41 39 34 33 33 31 31 31 31 33 38 40 41 38 34 38 37 36 38 36 33 27 26 28 28 23 20 20 21
44 44 45 46 45 46 47 48 48 49 50 50 46 50 47 41 39 38 40 38 32 33 37 33 34 35 40 41 41 40 38 37 38 38 37 37 39 41 37 33 27 20 20 18 20 18 17
43 44 44 46 46 46 46 48 47 47 48 51 53 54 49 44 38 37 41 39 34 33 37 36 42 42 44 42 41 39 41 39 36 32 33 35 39 39 37 30 24 20 17 18 20 18 21
44 44 45 46 46 46 47 46 47 47 47 49 51 58 55 48 42 37 36 37 36 40 42 43 44 47 46 46 47 37 35 30 29 31 29 29 38 41 36 35 31 29 23 24 23 28 25
43 44 45 46 46 46 46 46 46 47 47 45 51 55 56 47 42 40 36 38 40 44 43 43 43 43 45 50 41 44 38 29 34 35 35 38 41 37 35 37 34 26 25 27 28 34 32
44 45 45 45 46 47 47 46 47 47 46 46 50 54 54 51 44 43 39 38 40 44 45 45 43 44 49 45 47 46 44 40 34 29 36 36 39 37 40 35 31 26 27 27 37 38 35
44 45 45 46 46 46 47 47 46 46 47 50 49 52 54 54 50 53 51 50 47 45 48 47 44 43 45 44 49 50 40 40 42 36 29 34 36 39 37 37 36 30 31 31 35 35 36

GFSGBSN_sfc_dewp_033.txt.gz
Dewpoint
54 54 56 56 57 58 61 60 59 58 57 57 57 57 57 56 56 55 55 54 53 53 54 54 54 54 50 47 45 51 60 58 44 35 31 31 31 23 18 17 17 17 16 17 38 39 43
53 54 55 56 56 57 58 60 59 58 57 57 56 56 56 56 56 55 53 52 53 54 54 55 53 53 49 42 40 54 49 46 37 32 34 33 28 18 18 19 20 18 17 18 21 39 40
53 53 54 55 56 57 56 59 59 58 58 57 57 56 56 56 55 54 54 52 53 54 55 53 53 49 46 41 37 36 39 35 31 31 31 31 28 27 27 27 29 24 20 20 18 31 39
53 53 54 54 55 56 56 56 59 58 58 57 57 56 55 55 54 53 53 53 53 54 54 54 52 49 45 44 41 38 35 30 28 31 31 30 33 33 29 29 29 22 22 18 19 33 36
53 53 53 53 54 55 56 55 57 58 58 57 57 56 55 54 53 53 53 53 54 54 53 53 49 49 45 46 37 34 31 33 33 32 36 29 33 33 31 27 26 25 19 22 22 30 35
49 52 52 52 53 54 55 56 56 58 58 57 56 56 55 54 53 52 53 53 53 53 51 49 47 44 44 36 34 31 29 33 35 36 36 35 31 30 28 28 23 23 21 19 22 20 32
50 49 50 52 52 54 54 56 56 57 57 57 56 55 55 54 53 53 52 51 47 48 47 44 39 38 31 31 29 27 31 35 36 33 36 40 30 28 31 31 28 27 21 19 18 15 28
50 51 51 52 52 51 54 55 56 56 57 57 56 55 55 54 54 53 51 48 46 46 45 46 41 37 33 33 29 27 29 31 35 33 37 35 33 31 30 32 30 27 22 21 19 18 20
47 49 51 50 52 51 52 53 55 55 56 56 56 55 54 54 54 52 49 48 46 46 45 42 42 40 30 32 29 27 24 28 31 29 34 33 34 34 29 28 28 28 29 22 20 17 14
48 49 48 50 52 51 51 52 54 54 56 56 55 54 53 53 49 50 49 49 49 47 42 35 38 31 26 30 29 27 24 27 30 33 35 33 35 32 29 28 26 22 29 29 25 20 15
47 48 48 48 49 51 51 52 53 54 55 55 54 54 53 52 51 50 51 53 48 51 31 33 31 29 27 28 28 25 24 23 27 34 33 31 33 33 33 29 29 28 30 27 28 27 30
47 47 48 48 47 49 50 50 52 53 55 55 54 54 53 52 52 50 51 51 56 43 32 30 29 26 26 27 26 23 24 29 29 31 30 29 33 34 35 33 32 31 29 30 31 30 26
46 45 47 48 47 48 50 50 51 53 53 55 54 54 53 51 47 52 52 53 41 35 28 24 24 26 25 24 24 22 22 24 22 24 31 29 29 32 36 31 32 29 27 26 26 28 27
46 45 45 46 47 48 49 50 50 52 53 54 53 53 53 50 52 53 54 48 37 29 30 28 25 26 23 23 22 22 24 21 23 21 27 25 27 32 32 31 29 30 27 29 25 27 28
46 45 45 46 47 48 49 49 50 51 52 54 53 53 51 50 52 52 52 41 35 33 26 28 20 22 21 21 21 20 20 22 20 19 22 29 31 35 34 35 30 31 27 30 33 33 29
45 45 44 44 45 47 48 49 49 51 52 53 51 50 48 51 54 51 47 38 39 34 33 30 23 22 21 20 21 20 21 22 21 22 37 38 31 35 35 35 27 26 26 25 28 19 19
44 44 44 43 44 46 47 49 49 51 52 53 51 47 47 51 53 49 39 38 40 39 34 31 24 22 23 22 22 21 22 20 24 35 38 37 36 36 36 31 24 27 26 26 25 29 24
43 43 43 43 44 45 46 48 49 50 51 51 50 42 49 52 44 42 38 40 41 37 39 37 31 30 24 26 26 22 23 35 26 32 29 37 37 35 34 30 27 25 28 32 26 21 28
42 42 43 43 44 46 45 47 49 50 50 49 46 44 51 47 34 38 37 40 41 39 37 34 33 34 34 26 28 26 35 40 39 34 32 36 29 24 23 27 31 26 25 24 30 32 26
42 42 42 42 42 45 45 45 48 49 50 50 47 40 48 49 34 36 35 35 39 40 39 36 32 34 31 26 31 28 37 40 40 38 41 39 30 27 23 24 28 28 26 25 25 27 25
41 42 42 43 44 44 44 45 47 48 49 50 47 38 44 40 42 36 35 35 38 38 38 36 33 32 30 28 30 29 38 38 40 40 37 34 28 28 26 28 28 27 27 26 21 27 25
41 42 42 43 43 44 44 44 46 48 49 47 44 39 46 45 43 41 36 36 36 36 37 33 34 32 31 31 32 30 35 36 35 38 34 35 31 31 30 31 28 27 27 26 25 25 23
41 42 43 43 44 44 45 45 45 47 48 45 45 46 44 42 42 40 34 36 37 37 37 33 35 33 34 36 39 40 39 38 38 37 35 35 34 31 27 27 25 21 24 24 26 26 24
42 42 43 44 44 45 45 45 45 47 48 49 43 46 44 38 42 39 35 35 39 37 38 35 37 36 41 42 42 41 39 39 41 41 40 38 35 32 27 26 13 24 24 19 19 22 22
42 42 42 44 44 44 45 45 46 47 48 47 48 48 48 35 40 38 34 37 40 40 38 37 43 41 44 43 40 35 34 28 33 36 35 40 35 31 24 26 26 24 24 26 23 23 26
42 42 43 46 45 47 46 46 46 46 47 47 44 48 49 45 42 38 34 38 39 40 43 46 48 47 45 44 35 30 29 31 31 31 37 36 38 28 28 23 16 28 25 28 26 25 31
41 43 44 44 45 46 46 46 47 48 49 47 47 49 48 47 46 42 35 36 42 44 43 46 47 44 47 35 35 30 28 34 31 30 29 30 30 26 25 24 29 34 28 31 20 26 34
42 44 44 44 45 45 45 47 47 47 47 45 45 48 48 48 49 48 42 40 42 45 40 44 46 43 42 36 35 32 30 32 32 36 34 31 31 27 31 29 26 32 29 24 36 35 33
43 44 45 45 46 46 47 46 47 47 47 47 43 48 50 48 49 54 51 52 48 47 47 45 44 44 45 41 40 38 36 34 32 27 36 31 37 33 33 33 38 31 30 34 34 36 38

GFSGBSN_sfc_dewp_036.txt.gz
Dewpoint
53 54 53 56 56 56 58 60 59 58 57 57 57 56 57 57 56 56 55 53 53 54 54 54 54 54 50 46 44 52 60 59 44 35 31 31 33 31 21 18 19 17 18 29 41 41 40
53 54 54 55 56 56 56 57 60 59 58 57 56 56 56 56 56 56 55 54 53 54 54 54 54 53 49 34 43 52 48 42 37 32 32 32 31 31 21 19 24 24 27 36 39 38 36
53 53 54 54 55 56 57 56 56 59 58 57 57 56 56 56 55 55 54 54 54 53 54 54 53 49 47 33 43 44 43 37 35 30 32 34 33 31 29 26 29 29 21 38 40 40 38
53 54 53 53 54 55 55 56 55 58 59 58 57 56 55 55 54 54 54 53 53 54 54 54 52 48 43 45 45 42 36 33 31 32 32 32 33 33 32 30 28 27 21 19 36 36 37
50 53 53 53 53 54 55 55 55 56 58 58 57 56 55 54 54 53 53 53 53 54 54 53 48 48 44 47 42 42 35 34 31 30 31 30 32 32 31 27 26 25 18 20 25 32 33
49 49 51 52 53 53 54 54 55 55 56 58 57 56 55 54 53 52 52 53 53 53 51 49 48 43 42 35 38 33 32 32 34 34 34 32 31 29 29 27 24 24 20 20 22 25 31
49 49 51 50 52 52 53 54 55 55 55 57 57 56 55 54 53 53 51 49 46 47 47 39 33 35 32 36 34 30 32 33 35 37 32 39 31 28 30 30 29 29 28 26 20 21 31
50 50 51 50 51 52 52 53 54 55 55 56 57 56 55 54 53 53 50 46 46 43 41 45 44 42 39 39 31 30 34 31 34 33 38 33 30 33 32 32 31 29 28 25 23 22 29
50 49 50 50 51 50 52 52 52 54 55 56 56 56 54 53 53 51 48 47 48 45 43 44 46 44 43 38 31 29 30 31 30 31 33 31 31 35 33 29 27 28 27 26 26 21 15
49 49 49 50 50 50 51 52 52 53 54 55 56 55 54 53 48 49 49 51 50 47 40 38 39 42 31 28 31 30 26 31 31 31 33 31 33 33 32 30 29 26 28 25 27 20 11
49 49 49 49 49 47 50 50 51 52 54 53 55 55 53 51 49 49 49 49 49 50 22 32 39 35 27 28 29 26 28 26 30 33 32 26 32 31 31 30 31 29 31 29 27 26 26
50 48 47 48 49 48 47 50 51 51 53 53 54 54 53 52 51 49 50 50 54 41 29 34 32 26 26 28 28 25 24 26 31 34 33 29 34 33 33 33 32 34 30 31 33 30 23
47 49 48 47 48 49 48 47 50 50 52 53 54 54 52 51 46 52 53 51 39 34 33 29 27 27 26 26 27 25 24 22 21 26 28 30 31 33 36 30 33 31 28 25 23 25 23
45 45 48 47 46 48 49 47 47 50 51 53 54 53 53 50 51 52 54 48 34 33 34 32 27 26 24 25 25 24 22 20 24 25 28 25 25 31 35 32 31 30 26 26 20 23 24
44 44 48 47 45 46 48 48 47 49 50 52 53 53 52 51 51 51 50 40 33 37 28 27 26 25 24 24 23 22 23 21 21 22 20 29 30 35 34 35 33 28 27 30 31 31 27
44 45 48 47 46 45 45 48 48 48 50 52 51 50 50 51 51 49 46 36 38 38 35 33 24 26 22 21 22 21 21 23 24 23 31 33 29 34 35 34 32 29 28 25 28 22 22
44 45 48 46 46 45 46 45 47 47 49 51 49 45 50 52 51 45 38 36 38 38 40 36 31 26 24 22 22 22 20 21 24 32 34 35 29 31 36 32 29 26 25 26 26 27 21
43 45 46 46 45 45 46 45 47 47 49 49 46 40 50 52 42 40 39 37 39 37 41 40 38 34 26 26 25 22 23 22 32 36 31 36 35 31 30 33 33 26 27 29 25 19 27
43 44 45 45 45 44 45 45 45 48 48 45 43 44 51 48 36 34 38 39 38 36 38 38 36 35 31 26 26 27 31 39 40 33 33 35 32 26 25 25 31 27 25 28 31 29 24
43 45 45 45 45 44 44 44 45 47 48 47 44 38 45 47 40 32 34 36 37 38 37 40 39 39 33 28 30 30 35 39 40 36 40 36 30 27 24 21 27 27 28 28 26 26 25
43 44 44 44 44 44 44 44 44 47 48 47 44 37 39 39 39 35 33 36 36 35 39 39 36 37 36 28 27 34 37 36 39 39 37 33 27 27 26 28 30 28 27 27 24 25 23
43 43 43 43 43 43 44 44 45 46 49 44 40 40 42 41 39 38 35 33 32 32 34 33 36 37 34 28 28 30 36 35 32 36 33 34 27 28 27 29 27 26 25 24 25 25 27
43 43 42 42 43 43 43 44 44 46 48 42 45 46 42 37 39 38 35 33 31 32 35 34 36 35 35 33 35 33 37 38 37 34 34 33 33 28 26 26 24 22 24 24 25 27 25
42 42 42 42 42 43 44 43 45 45 46 46 44 45 44 36 40 38 37 35 33 33 31 38 37 37 37 42 40 38 36 40 40 40 39 34 33 29 25 23 16 26 26 25 25 24 24
42 42 42 42 43 43 43 44 44 45 46 45 46 46 44 36 38 41 39 35 33 36 39 34 38 39 43 42 38 33 33 32 32 35 37 39 34 30 23 23 25 24 22 21 23 25 28
42 42 42 43 43 43 43 43 44 44 46 44 47 49 46 41 38 40 41 37 33 37 38 40 47 48 47 42 34 29 28 30 30 29 35 36 36 30 28 20 16 25 26 26 28 25 31
42 42 43 43 43 43 43 44 44 45 45 45 46 49 45 43 46 42 39 38 37 39 41 45 44 44 44 34 31 29 29 33 29 28 26 29 29 25 22 21 24 29 29 29 17 21 32
43 43 43 43 44 44 44 44 44 44 45 46 45 49 46 44 44 49 43 37 37 40 39 43 43 43 40 35 34 31 27 32 32 34 30 28 28 24 30 24 21 34 27 24 29 35 34
41 42 43 45 44 43 44 44 44 45 46 47 44 49 49 43 45 49 48 48 47 41 46 45 41 43 44 41 38 35 32 30 31 29 36 29 30 29 31 30 34 32 32 36 36 38 39

GFSGBSN_sfc_dewp_039.txt.gz
Dewpoint
54 53 54 53 55 57 56 57 58 59 58 57 57 57 57 57 57 56 55 55 54 53 53 54 54 54 49 42 37 48 60 59 53 37 30 28 30 30 25 19 18 17 19 31 40 41 42
51 54 54 54 54 54 54 56 56 57 59 58 57 57 56 56 56 56 55 54 54 54 53 54 54 53 47 28 38 51 47 44 38 33 30 30 30 31 29 21 21 26 26 37 39 39 37
50 51 54 53 54 55 55 56 56 56 58 58 58 57 56 56 56 55 55 54 53 53 53 54 53 50 46 30 46 42 42 38 36 31 31 34 35 31 32 26 28 29 30 38 39 39 38
51 50 52 53 53 54 54 55 55 56 56 58 58 57 56 55 55 54 54 53 53 53 53 54 52 48 41 42 45 46 40 37 34 33 31 32 32 32 32 29 28 26 23 28 35 39 38
50 50 49 51 53 53 53 55 55 55 56 56 58 57 56 55 54 54 53 53 53 54 54 54 47 47 41 46 43 43 38 34 33 30 31 29 33 32 30 27 25 25 17 21 28 36 35
51 51 51 49 51 53 53 53 54 54 54 55 57 57 56 55 54 53 52 53 53 52 51 50 48 35 36 32 37 36 37 34 34 34 34 33 31 28 29 26 21 24 24 25 23 30 32
52 51 49 51 49 51 53 53 53 54 54 55 56 57 56 55 54 52 51 48 44 46 46 36 30 28 30 35 35 32 31 31 36 33 30 37 30 28 28 29 28 28 28 27 24 22 31
51 51 50 51 51 50 51 52 52 53 54 55 55 56 56 55 53 53 50 44 43 44 39 44 43 40 40 40 37 32 33 31 33 30 37 31 28 31 32 32 30 29 26 25 25 26 29
49 51 50 50 51 51 50 51 52 52 53 54 55 55 56 54 53 51 48 46 46 46 35 40 45 44 43 42 39 33 31 32 31 31 33 29 29 34 32 29 28 27 27 27 25 26 19
48 49 51 50 50 50 51 49 51 51 52 53 54 55 55 53 48 49 48 50 50 47 37 37 43 43 42 37 29 32 30 30 31 29 32 31 32 31 31 30 28 26 29 29 27 25 11
45 47 49 50 48 49 49 49 51 51 51 53 53 54 54 52 48 49 50 49 48 48 14 23 39 39 33 26 28 28 27 30 28 32 30 26 32 32 30 28 29 27 33 30 29 25 25
45 46 46 49 49 48 49 49 49 50 50 51 52 53 53 51 51 49 50 52 52 34 20 32 35 32 25 27 27 25 26 26 32 33 32 27 33 32 29 32 31 32 30 30 31 29 22
45 44 45 46 49 48 48 48 49 49 50 50 52 53 53 52 45 51 52 53 40 30 29 30 30 27 24 25 25 26 23 23 26 26 27 29 30 32 35 30 32 30 27 24 23 24 21
46 45 44 46 47 50 48 48 48 48 48 50 51 53 53 51 51 50 54 47 33 33 32 36 29 27 23 25 25 26 23 21 23 27 28 25 22 29 33 31 29 30 26 24 19 21 21
46 46 45 45 46 48 48 48 48 47 46 50 51 52 52 53 51 49 50 39 32 34 35 24 27 24 24 25 24 24 22 21 22 24 21 27 27 34 34 35 31 30 27 29 29 30 26
47 46 45 44 45 46 49 47 48 48 46 49 46 48 50 52 51 46 44 37 36 38 39 38 25 26 24 24 23 23 22 23 22 24 28 30 23 32 35 34 33 29 29 25 27 20 22
47 46 45 44 44 45 48 47 47 48 47 49 45 43 47 51 51 43 36 36 37 38 38 39 35 29 26 24 23 22 21 22 25 25 29 33 25 26 33 30 26 26 25 25 26 25 20
47 46 45 44 44 44 47 46 46 47 47 47 43 37 50 51 42 40 33 37 38 36 39 40 40 38 31 26 24 23 22 22 25 34 27 33 29 26 27 32 31 28 27 26 24 20 26
48 46 45 44 44 45 46 46 45 46 47 45 40 41 50 48 36 36 36 34 37 35 36 37 38 39 36 28 23 26 27 34 38 31 32 35 30 24 24 26 30 28 27 30 30 27 25
48 46 45 44 44 47 47 45 45 46 48 46 42 36 44 46 39 35 34 35 37 39 36 38 39 41 37 31 30 28 33 37 39 35 40 36 31 26 23 23 27 26 27 27 28 26 23
48 46 45 44 45 47 46 45 45 44 47 46 41 34 39 38 38 37 34 34 35 35 37 36 35 38 38 33 28 32 36 37 37 38 37 32 26 27 26 24 28 26 26 27 24 25 23
47 46 45 44 45 45 45 45 45 44 46 44 37 39 40 38 38 37 36 33 33 35 36 35 31 36 32 33 32 31 34 34 32 35 32 33 27 26 26 28 26 26 26 26 26 26 25
47 46 44 44 45 45 44 44 44 44 44 41 40 43 41 37 36 36 35 33 33 35 36 36 35 37 35 37 37 33 36 36 34 33 32 31 31 27 23 26 24 23 25 25 25 26 26
46 45 44 44 44 44 44 43 43 44 43 43 41 43 42 33 37 34 35 35 33 34 33 35 34 33 39 41 39 38 37 37 39 38 36 33 30 28 25 23 17 25 28 26 26 25 24
45 45 44 45 44 44 43 43 43 44 44 42 44 44 43 35 35 37 35 36 35 34 34 33 35 32 43 41 36 33 32 32 32 37 39 37 32 28 24 24 25 25 23 24 22 22 27
44 44 44 44 43 43 42 43 44 44 43 43 42 45 45 40 36 39 37 36 35 33 34 34 43 44 45 40 33 30 30 32 31 30 35 33 34 30 25 21 19 27 27 26 27 23 28
44 43 43 43 42 42 42 43 43 43 44 44 42 43 45 41 43 40 39 37 37 35 34 38 39 43 44 33 30 29 28 33 29 28 26 30 29 27 22 21 25 27 28 26 18 22 32
42 42 42 42 42 42 43 43 43 43 44 45 42 47 45 41 41 46 45 41 40 37 34 41 43 42 38 33 34 31 28 32 30 31 29 30 28 24 25 19 21 32 28 21 27 34 34
41 41 41 42 42 42 43 43 43 44 45 44 41 46 49 43 42 46 45 46 46 40 37 43 40 42 42 39 37 35 32 28 31 28 34 27 31 30 30 28 32 35 30 34 35 35 37

GFSGBSN_sfc_dewp_042.txt.gz
Dewpoint
51 53 54 54 52 53 54 56 56 56 57 59 58 57 57 57 57 57 56 55 55 54 54 54 54 54 49 35 26 46 60 59 51 37 29 28 29 29 25 22 20 18 18 25 29 41 41
52 52 53 54 54 53 52 53 55 56 56 56 58 57 57 57 57 56 55 55 54 54 53 54 54 53 45 24 31 48 51 41 38 34 30 29 30 30 30 26 21 24 31 35 40 40 39
51 51 52 52 54 54 54 54 54 55 56 56 57 58 57 57 56 56 55 55 54 54 53 54 54 50 45 24 45 40 41 38 37 34 30 32 33 31 31 28 29 29 35 37 38 37 39
51 51 51 52 52 53 53 53 53 54 55 55 56 57 57 56 56 55 54 54 53 54 54 54 52 47 39 39 45 45 42 40 36 35 31 31 34 31 31 30 28 24 26 30 36 39 39
52 51 51 52 52 52 52 52 53 54 54 54 55 56 57 56 55 54 54 53 54 54 54 54 48 46 34 42 37 39 41 36 33 33 32 29 32 31 30 26 24 25 19 21 27 37 37
50 52 50 51 52 52 51 52 52 52 53 54 54 55 56 56 55 54 52 53 53 52 52 50 48 38 28 30 37 36 41 36 34 33 32 34 32 28 28 25 20 24 24 27 24 31 34
48 50 52 51 51 51 50 51 52 52 52 53 54 55 55 56 55 53 51 47 40 44 46 38 31 23 25 36 40 32 34 33 36 32 29 37 30 27 27 27 28 28 27 26 26 24 33
48 49 50 52 51 50 50 51 51 52 52 53 54 54 55 56 55 53 50 43 42 44 41 42 42 38 37 42 41 38 32 28 32 29 36 30 29 30 31 31 31 28 26 25 25 26 28
47 48 48 49 51 50 50 51 50 51 52 51 52 54 55 55 53 51 47 44 47 49 39 35 42 42 41 43 39 38 31 32 30 31 32 28 27 33 32 28 27 26 26 26 26 26 21
47 46 47 48 49 51 49 50 50 50 51 51 52 53 54 54 50 48 46 49 50 49 32 33 41 42 43 42 34 38 31 31 31 29 32 30 32 31 30 29 26 24 28 29 28 25 18
47 47 46 46 48 49 50 49 50 50 50 51 51 52 53 53 47 48 49 48 49 46 14 23 41 42 41 29 28 29 30 30 28 31 30 27 31 31 30 28 29 25 31 30 29 26 25
48 47 47 46 46 47 50 49 48 48 50 51 51 52 53 53 51 48 49 52 50 34 18 23 36 35 29 27 27 26 26 29 31 33 33 28 32 31 30 32 30 31 28 28 30 27 23
48 48 47 47 46 46 47 50 48 48 49 50 50 51 53 52 48 50 51 52 41 28 26 26 33 29 25 25 25 24 24 25 25 25 27 29 29 31 34 29 32 29 27 23 22 24 22
48 48 47 47 46 46 46 48 49 48 48 49 50 50 52 52 51 49 52 46 33 31 29 34 30 27 23 23 23 25 23 21 23 25 26 23 21 29 33 28 27 28 27 25 18 20 20
48 48 48 47 46 46 46 47 50 48 48 48 49 47 48 51 52 49 47 37 32 33 34 27 27 24 23 23 24 24 23 23 22 27 21 26 24 33 34 34 30 28 26 28 28 29 25
48 48 48 47 46 46 45 46 48 48 48 48 46 45 43 52 53 48 41 35 36 35 38 38 25 26 23 23 22 23 23 24 22 26 27 28 21 31 34 34 33 29 30 24 27 20 19
48 48 48 48 46 46 45 46 48 48 47 47 44 40 42 52 52 45 35 34 36 38 38 37 37 35 26 25 23 23 23 22 25 25 27 30 23 23 33 29 27 28 26 26 25 24 19
48 48 47 48 47 46 45 45 47 48 46 45 42 34 48 52 42 40 36 36 36 36 39 38 40 39 36 27 25 23 23 22 25 31 25 32 26 21 23 31 30 27 27 26 24 20 25
47 48 48 48 47 46 45 45 46 48 45 42 39 37 50 47 35 36 36 36 35 37 36 37 37 39 38 30 23 26 26 28 33 28 29 33 26 20 20 24 29 28 28 28 28 27 25
46 47 48 48 48 46 45 45 45 48 46 43 40 32 42 44 37 34 33 33 33 38 36 37 38 40 37 33 31 26 25 34 38 32 40 34 30 22 19 20 25 27 27 29 28 25 24
46 45 46 48 47 46 45 45 46 48 46 43 40 32 37 35 36 36 33 32 33 31 36 37 36 38 36 32 31 29 34 36 36 40 35 31 25 27 25 25 26 25 26 27 25 25 24
46 45 45 48 47 46 45 44 46 46 46 41 37 36 39 36 34 35 35 31 32 32 36 33 34 35 37 36 34 29 35 34 31 34 33 32 26 25 28 27 26 27 27 27 26 26 25
46 45 45 48 47 46 45 44 45 45 45 40 43 41 38 34 35 34 32 32 32 35 35 37 35 34 34 34 35 34 36 36 34 34 32 30 30 26 23 25 25 23 25 26 25 27 27
46 46 45 47 46 46 45 45 45 45 44 42 44 41 39 32 36 32 32 33 32 34 34 35 37 36 36 41 40 39 37 37 37 38 36 31 28 27 24 23 16 24 28 27 27 27 26
45 45 45 47 46 45 45 46 46 45 45 42 44 43 39 28 35 35 34 33 34 35 35 35 36 36 37 38 36 33 34 31 33 37 37 34 30 27 23 23 23 25 24 25 23 21 25
45 45 46 46 45 44 45 45 45 44 45 42 43 44 42 39 33 36 34 35 33 33 34 36 37 39 41 39 32 30 30 31 30 31 34 32 32 28 24 20 18 26 28 25 24 20 27
45 46 46 45 45 44 45 45 44 44 45 41 40 43 40 39 43 38 35 35 36 35 34 35 37 43 41 31 30 30 30 34 29 29 29 29 28 25 21 21 26 30 27 26 19 22 30
46 45 45 45 45 44 44 43 43 44 44 40 40 44 40 40 41 44 44 38 37 36 33 36 36 39 37 34 34 32 29 32 31 31 32 32 29 24 24 20 24 29 28 23 27 33 32
45 45 45 44 44 43 43 43 44 44 44 42 39 44 45 41 42 45 44 44 42 42 37 39 37 39 38 38 35 32 30 28 30 29 33 29 32 30 30 30 33 32 28 30 32 33 33

GFSGBSN_sfc_dewp_045.txt.gz
Dewpoint
51 50 51 52 52 51 51 51 52 54 56 56 56 58 59 59 58 57 56 56 55 55 54 54 54 54 49 33 23 50 60 59 51 40 28 27 28 29 26 24 21 22 20 22 27 41 41
51 51 51 52 51 50 50 51 52 53 55 55 56 56 58 58 58 57 56 55 55 54 54 54 54 54 45 23 38 50 51 44 39 34 28 29 29 30 30 28 21 24 27 34 39 40 40
52 51 52 52 53 50 49 51 52 53 54 54 55 56 56 58 58 57 56 55 54 54 54 54 54 49 44 26 44 42 43 38 37 34 27 29 31 30 30 29 28 28 30 36 39 38 39
49 52 52 52 52 52 51 51 52 50 53 54 55 55 55 56 57 56 56 55 54 54 54 54 53 48 38 37 43 44 42 40 38 36 30 30 33 31 31 31 28 23 29 29 32 38 40
48 49 51 53 51 51 52 51 51 52 52 53 54 54 54 54 55 56 55 54 54 54 54 54 49 48 31 39 33 35 40 36 36 35 33 29 33 32 31 27 24 28 20 21 23 38 38
47 47 49 51 52 51 51 52 51 51 51 52 53 53 54 54 55 55 53 53 53 52 52 51 48 39 31 27 35 38 42 37 34 33 31 34 33 30 30 26 18 25 23 24 23 34 36
46 45 47 49 50 51 51 51 51 50 51 51 50 53 54 54 55 54 51 47 39 43 48 40 38 29 20 33 41 34 37 35 35 33 30 37 31 29 29 29 27 27 27 25 25 25 34
49 48 48 48 48 49 51 51 51 51 51 51 51 52 53 54 55 53 51 44 41 45 42 44 43 39 37 40 39 40 34 32 35 31 36 32 31 31 31 31 30 29 26 25 26 26 28
48 49 49 47 47 47 48 51 50 50 50 50 50 51 52 54 54 52 49 45 48 49 43 39 42 41 40 40 38 38 32 32 31 31 33 31 28 33 32 29 29 28 26 26 26 27 23
48 48 48 49 48 48 48 50 51 50 50 49 51 50 51 54 51 49 46 49 50 50 34 30 36 40 43 42 36 39 32 33 31 29 33 31 32 31 31 29 28 26 27 28 27 26 21
48 48 48 48 48 47 47 48 50 50 49 49 49 50 51 54 48 47 48 50 50 47 20 26 41 42 43 34 30 34 32 31 32 32 32 29 31 31 30 30 29 27 31 29 29 27 27
48 48 48 48 48 47 47 47 49 50 49 49 49 50 50 52 52 49 50 52 51 37 22 21 37 38 38 31 28 27 29 34 33 33 32 29 32 32 32 31 31 31 29 29 30 28 24
48 48 48 49 48 48 47 47 47 48 49 49 48 50 51 52 47 51 52 51 39 31 27 21 33 32 30 27 27 27 27 31 28 28 29 29 30 31 34 29 32 29 28 25 25 26 24
49 48 49 48 48 48 47 47 46 47 49 48 48 50 50 49 52 51 53 43 31 30 28 30 30 29 27 25 26 26 26 25 26 24 25 23 20 29 34 30 29 29 29 29 19 22 21
49 48 48 48 48 48 48 47 46 46 48 48 48 48 47 49 52 50 47 36 31 32 33 29 26 27 24 24 24 26 27 25 25 28 24 27 24 30 33 33 30 29 27 29 29 30 28
48 49 48 48 48 48 48 47 47 47 48 48 45 44 44 49 52 49 41 34 36 35 37 38 24 28 25 24 25 25 26 26 25 29 31 31 24 31 33 34 33 29 30 28 29 23 21
48 48 48 48 48 48 48 47 46 47 48 48 44 39 42 49 52 45 33 34 34 36 38 36 37 36 28 26 25 26 25 25 26 25 28 31 28 26 33 31 27 30 28 28 27 26 21
47 47 47 48 48 48 48 47 46 46 47 47 41 34 43 48 39 38 33 34 36 34 38 38 39 39 37 30 27 26 25 26 26 30 27 33 31 27 25 30 30 29 30 29 30 23 27
44 46 47 47 48 48 48 47 46 46 47 44 37 36 46 46 32 34 34 34 34 34 35 37 37 39 39 35 26 28 29 30 32 30 32 34 28 23 21 25 29 29 29 29 29 30 26
45 45 45 46 47 48 48 48 47 46 46 44 39 31 40 41 37 31 33 33 33 36 35 37 38 39 37 35 34 29 29 34 35 31 39 36 30 27 20 23 27 29 29 29 30 29 28
45 45 45 45 47 47 48 48 46 46 46 43 39 34 36 33 33 34 33 32 32 33 34 38 36 36 36 32 34 30 34 37 38 41 36 35 28 29 25 22 26 27 27 29 26 29 29
45 45 45 45 46 46 48 47 46 46 46 41 36 35 38 35 33 33 34 32 31 32 32 33 34 36 35 36 34 33 34 36 34 36 36 34 30 30 27 27 27 27 26 28 27 27 26
45 46 46 45 45 46 48 47 46 45 46 40 41 39 35 34 33 30 30 32 32 34 34 33 35 35 37 36 38 38 38 37 38 36 34 33 32 29 25 26 25 28 28 28 28 29 29
45 45 45 45 46 46 48 46 46 46 44 43 42 39 37 31 33 30 30 32 32 33 32 33 35 33 36 41 41 40 38 38 39 38 38 34 32 30 29 27 25 27 28 28 29 29 28
45 45 45 45 45 45 47 46 45 46 45 43 43 41 38 32 33 32 32 31 34 35 34 33 38 39 40 38 35 35 35 34 35 37 36 35 33 29 30 26 26 24 26 27 27 23 27
45 45 45 45 43 45 46 45 45 45 45 43 42 43 42 35 33 34 33 32 32 32 34 36 40 42 42 38 33 28 32 33 31 32 34 32 33 35 27 27 25 30 28 28 26 24 28
45 45 45 44 45 47 46 45 45 45 45 42 43 44 42 38 40 38 35 33 34 35 35 37 38 39 41 34 34 32 31 35 32 31 32 32 31 30 27 31 30 30 28 29 26 28 31
45 45 45 45 47 46 45 45 44 44 44 41 41 45 41 38 39 42 43 38 36 34 32 37 37 39 39 34 35 34 33 35 34 33 34 32 32 31 29 32 28 32 26 28 35 32 34
45 45 46 46 45 45 45 44 44 44 44 42 39 44 44 39 39 44 45 45 42 37 37 39 36 37 38 38 37 36 35 34 34 31 33 34 34 34 32 34 37 33 35 33 33 34 35

GFSGBSN_sfc_dewp_048.txt.gz
Dewpoint
51 52 51 52 52 52 51 52 53 51 52 53 55 56 56 57 59 58 57 56 56 56 55 54 54 55 49 33 20 41 60 59 45 39 26 27 27 27 22 22 24 23 22 22 26 33 39
51 53 52 52 51 51 51 51 52 53 53 53 54 55 56 56 58 58 57 56 56 55 55 54 54 54 43 28 31 48 46 42 36 33 25 26 29 30 28 27 24 25 25 30 34 37 39
48 50 51 53 52 52 51 52 51 51 52 52 53 54 55 55 56 57 57 56 55 55 55 54 54 48 42 31 38 44 40 35 34 29 24 26 30 31 30 26 28 27 26 32 34 37 36
48 48 49 51 53 52 51 51 51 49 50 50 52 53 53 53 54 55 56 56 55 55 55 54 54 48 36 33 35 40 39 36 36 34 30 31 32 32 31 31 26 23 26 21 33 36 38
47 48 48 49 50 52 53 51 51 51 49 50 49 52 53 53 53 54 55 55 55 54 53 53 50 47 30 41 33 30 38 34 37 37 35 29 32 31 31 24 19 23 16 17 21 34 35
48 47 48 49 49 49 51 52 51 51 50 50 50 51 52 53 53 54 55 54 54 52 52 50 47 42 35 21 29 37 34 33 34 36 32 32 32 29 28 22 12 15 17 18 19 31 35
48 49 49 49 48 47 47 50 52 51 50 50 50 50 51 53 53 54 53 50 45 45 48 39 36 33 19 28 41 36 39 36 34 33 30 34 29 26 21 24 22 24 21 18 24 27 31
49 49 48 49 49 48 46 48 50 52 51 50 50 50 50 53 54 54 53 47 45 47 38 39 40 39 37 34 34 35 35 34 34 29 32 32 28 27 29 30 27 27 23 21 25 26 27
49 48 49 49 49 50 48 48 47 49 52 50 50 50 50 51 54 53 50 47 48 48 42 36 38 35 35 38 32 28 32 31 30 28 30 27 26 31 30 29 28 28 24 23 22 26 24
49 49 49 49 49 49 49 49 48 48 51 50 50 49 50 50 51 48 46 49 49 50 37 26 32 35 38 35 34 30 33 29 29 25 26 27 28 29 29 27 28 25 26 25 25 24 18
49 49 49 49 48 48 48 49 48 48 49 51 50 49 50 51 51 48 48 52 53 51 19 21 35 39 39 30 28 31 32 31 26 27 30 25 30 30 28 26 28 24 27 27 27 24 24
49 49 49 49 49 48 49 48 48 48 48 51 50 49 49 48 51 50 50 53 51 36 21 20 36 37 36 34 27 29 30 31 28 26 29 25 31 30 26 30 29 30 29 28 28 26 24
49 49 49 49 49 49 49 48 48 48 48 50 50 49 48 46 44 50 54 51 35 26 21 18 31 34 30 29 26 26 27 29 25 25 26 25 25 27 31 28 32 30 27 24 25 25 24
49 49 49 49 49 49 49 49 48 48 47 49 49 49 48 48 46 53 52 45 26 13 22 25 30 32 27 25 24 26 24 24 25 22 19 21 21 26 28 26 25 28 26 26 21 23 22
49 49 49 49 49 49 49 49 48 48 47 48 48 48 47 49 49 52 47 35 22 21 23 23 26 31 28 23 22 25 25 22 25 25 20 21 18 26 30 30 27 29 27 28 27 32 28
49 49 49 49 49 49 49 49 49 48 47 47 47 44 43 48 50 47 40 31 22 24 28 29 20 28 29 22 23 23 25 24 24 25 24 26 21 29 32 32 33 30 30 27 28 23 20
50 50 49 49 48 48 48 48 48 48 47 47 46 39 42 47 50 41 34 32 26 28 32 33 29 21 28 25 21 24 22 24 26 27 25 25 25 30 32 30 26 30 28 28 27 26 23
46 46 47 48 48 48 48 48 48 48 47 47 42 34 45 48 37 37 34 33 29 27 36 36 37 36 34 28 25 23 21 22 25 26 27 27 26 24 24 29 30 25 25 28 26 22 26
45 45 46 47 48 48 48 48 48 48 47 45 37 38 47 43 29 33 31 33 29 28 31 35 35 37 38 34 26 26 26 29 28 28 27 30 26 23 22 25 29 25 26 26 28 30 25
45 45 45 46 48 48 48 48 48 48 48 44 38 33 40 41 32 31 32 30 28 30 27 35 34 37 37 35 34 29 26 31 32 28 39 35 25 23 21 19 20 25 24 24 26 28 25
45 45 46 45 44 46 48 48 48 48 47 45 39 35 37 32 34 31 32 29 29 26 30 32 34 35 35 33 31 31 28 35 33 38 31 32 25 25 21 19 17 18 17 22 23 25 24
45 45 45 46 44 45 46 47 48 48 47 41 34 34 37 30 33 30 32 29 26 26 25 30 31 34 35 33 31 34 33 33 31 37 32 33 25 27 25 23 21 19 18 18 22 20 23
46 45 45 46 45 45 46 47 47 48 46 40 42 37 33 32 31 30 31 29 28 28 29 26 31 31 34 33 35 37 37 37 35 34 36 34 30 28 23 26 25 29 28 23 23 27 28
44 45 45 47 45 45 45 45 46 47 45 45 40 37 37 29 32 29 28 28 29 29 30 29 30 34 34 39 38 40 34 36 37 37 36 35 33 32 29 31 31 23 27 26 26 26 26
45 45 47 46 46 45 45 45 45 47 46 44 44 41 37 35 30 30 30 28 27 31 32 30 35 35 39 34 30 26 32 32 34 36 38 37 35 33 36 28 24 24 26 28 28 25 25
44 44 46 46 45 46 45 45 44 47 46 43 45 46 42 36 29 27 31 31 29 32 32 33 36 43 41 38 35 29 21 19 26 34 35 36 37 37 32 29 32 26 26 29 27 28 25
44 44 46 46 45 45 45 44 46 46 45 43 44 48 44 35 32 32 33 33 32 32 32 34 38 41 40 39 38 32 27 26 26 32 35 34 35 36 34 35 30 29 28 29 26 29 28
44 44 44 45 45 45 44 45 46 46 45 42 43 47 45 39 40 39 37 35 33 36 34 34 38 40 40 37 36 35 37 32 30 29 34 33 34 36 35 37 33 31 28 28 32 36 33
44 45 44 44 44 44 45 46 45 46 44 44 42 45 45 41 39 42 42 43 42 34 34 39 32 34 35 35 39 37 41 40 31 31 33 32 35 35 33 33 36 35 32 33 36 33 35

GFSGBSN_sfc_dewp_051.txt.gz
Dewpoint
50 51 53 52 53 52 51 51 53 53 53 53 53 54 53 55 55 57 58 57 57 57 56 56 55 55 50 36 28 44 60 59 41 37 26 27 25 24 20 17 18 19 19 20 22 27 35
49 49 50 51 53 52 51 52 53 52 52 53 53 53 54 55 55 56 57 57 57 57 56 56 55 55 45 33 26 35 44 44 34 32 25 26 26 26 26 22 20 22 22 22 26 30 29
48 49 49 51 51 51 53 52 52 51 51 51 51 52 53 54 54 54 55 56 56 56 56 55 55 49 40 33 30 33 39 34 31 28 25 27 29 28 27 24 22 23 22 23 27 30 29
48 48 48 50 50 51 51 53 52 51 51 51 51 51 52 53 53 53 54 55 56 56 56 55 54 47 38 32 29 35 36 33 31 28 27 28 31 31 29 26 23 17 19 18 40 30 31
50 49 48 50 50 50 51 51 52 52 51 51 50 50 51 51 52 53 54 55 56 56 54 53 51 46 34 41 29 28 37 31 30 30 31 29 30 28 27 22 18 19 12 18 29 25 29
46 49 51 50 50 50 50 50 50 52 52 51 50 50 51 51 52 53 53 55 55 53 51 49 46 42 38 26 22 20 37 34 33 33 31 30 27 26 24 20 15 13 13 14 13 32 26
47 47 49 49 51 50 48 49 49 50 52 52 51 50 50 51 51 53 54 49 46 47 46 33 33 27 21 25 32 24 28 36 31 31 28 29 26 24 24 23 19 17 16 13 18 26 27
49 49 49 49 49 49 50 49 48 49 51 51 52 50 50 51 51 52 54 43 39 46 37 36 38 35 35 31 29 24 33 32 31 28 28 28 27 25 26 25 23 20 20 17 22 23 24
50 50 50 49 49 49 48 49 49 49 49 50 51 50 50 50 51 51 50 43 45 48 37 25 27 31 30 32 30 23 31 31 29 28 26 27 25 27 26 24 21 20 22 21 22 29 20
49 49 50 50 50 50 50 49 49 49 49 49 51 51 49 50 47 44 43 43 44 52 31 16 31 31 32 30 31 27 28 29 28 26 26 26 25 26 26 24 21 20 22 23 21 20 16
49 49 49 50 50 49 49 49 49 49 49 49 51 51 49 50 46 44 44 46 51 51 10 16 25 33 31 30 24 27 26 26 26 25 25 24 24 26 26 25 24 22 26 23 22 22 22
49 49 49 50 50 50 49 49 49 49 49 49 50 51 49 46 47 46 49 51 52 32 14 17 31 32 33 31 25 22 26 26 24 24 23 23 25 26 26 26 26 25 26 25 26 23 22
49 49 49 50 50 49 50 49 49 49 49 49 49 50 49 44 41 46 51 52 31 18 8 13 27 31 31 29 24 23 25 24 21 23 24 23 24 26 27 26 29 26 25 24 24 23 24
50 50 49 49 49 50 50 49 49 49 49 48 49 49 48 44 45 49 49 44 22 11 11 22 22 29 29 26 26 25 26 21 22 22 21 21 20 24 26 25 27 26 25 27 25 26 24
50 50 50 49 49 49 49 49 49 49 49 48 49 46 47 47 47 48 43 33 25 14 7 12 22 28 27 24 24 24 24 20 21 22 20 21 20 20 22 25 24 27 24 26 26 30 29
50 50 50 49 49 49 49 49 49 49 49 48 46 39 40 47 49 48 38 34 26 17 9 16 16 27 25 23 22 23 23 21 21 21 23 22 21 20 23 25 26 26 29 26 28 25 24
49 49 50 50 49 49 49 49 49 49 49 48 44 40 38 48 50 42 32 32 31 21 15 15 19 19 25 27 21 22 22 21 21 22 22 22 23 24 29 28 24 27 28 27 26 26 28
49 49 49 49 49 49 49 49 49 49 49 47 43 35 40 48 38 37 32 32 29 28 26 23 25 30 19 27 26 21 22 22 23 25 24 25 26 26 26 25 25 25 27 28 28 26 26
46 46 46 46 47 49 49 49 49 49 49 45 38 38 47 47 31 33 33 29 22 25 24 23 27 31 29 29 29 27 23 25 26 27 29 27 24 24 23 26 27 27 27 26 29 28 26
46 46 46 46 46 47 47 48 49 49 49 46 39 33 40 42 35 31 30 28 24 26 25 23 28 28 28 33 31 29 26 29 29 28 38 36 26 25 23 22 23 24 23 22 25 31 27
45 45 45 45 45 45 46 47 48 48 49 45 39 35 36 33 35 31 29 24 20 20 27 26 27 32 27 26 28 29 31 34 32 36 32 34 26 24 21 20 19 19 20 20 20 23 25
44 45 45 45 45 46 46 45 47 48 49 43 34 34 36 33 36 31 30 25 21 18 23 26 28 34 31 27 27 29 32 30 29 33 31 31 28 27 22 20 19 17 16 16 15 18 20
45 45 45 46 46 46 46 45 47 48 48 41 41 35 34 31 34 31 30 27 22 21 24 21 25 27 32 29 38 39 37 37 36 35 31 33 32 27 26 22 22 27 21 18 17 18 20
46 46 46 46 46 46 46 45 46 47 47 42 43 34 35 30 35 30 28 27 23 20 24 22 22 26 30 37 37 37 35 31 36 36 35 34 31 31 32 33 28 24 23 22 22 21 20
46 46 46 46 46 46 45 45 45 48 47 43 40 38 37 36 28 30 28 27 25 25 27 24 23 25 31 35 33 30 33 31 32 36 33 35 36 35 34 30 24 21 24 24 23 21 20
46 46 46 46 46 46 46 46 45 45 47 45 43 42 42 36 30 28 27 28 26 28 29 31 30 36 37 37 33 26 21 18 17 28 34 31 37 38 35 29 28 28 24 25 24 28 23
45 45 46 45 45 45 45 46 45 46 47 45 45 45 44 36 30 31 31 30 28 30 33 33 35 38 38 38 37 29 25 18 18 30 37 36 38 38 36 33 28 25 24 26 28 30 27
44 45 45 45 46 46 46 45 45 46 47 45 43 45 45 40 37 36 37 37 31 31 31 34 33 38 39 36 34 29 33 27 24 22 35 35 34 38 37 35 33 33 29 28 32 35 32
44 45 46 45 45 45 46 45 44 45 46 45 42 46 47 42 41 43 43 43 41 35 32 35 38 36 34 32 34 33 40 41 29 29 24 33 36 36 33 33 37 36 35 33 32 32 36

GFSGBSN_sfc_dewp_054.txt.gz
Dewpoint
50 50 50 51 52 53 53 52 53 51 50 52 50 53 52 52 53 55 56 56 57 58 58 57 57 57 50 38 35 48 61 56 39 34 31 22 22 21 20 19 16 16 17 16 19 20 27
48 49 50 50 50 50 50 53 54 52 52 49 50 50 51 53 53 54 54 54 55 56 57 57 57 56 48 36 33 37 41 47 34 32 28 22 24 25 24 23 19 19 19 19 19 22 27
49 49 49 51 51 50 50 51 52 53 52 50 49 50 52 51 53 53 53 53 54 55 57 57 56 52 46 40 33 30 34 41 33 29 24 23 24 26 26 25 22 19 17 19 23 24 26
49 50 50 50 51 51 51 51 52 51 53 52 51 49 50 51 50 52 52 52 54 55 57 57 55 49 42 37 35 33 32 33 30 28 25 26 27 27 29 28 24 20 17 14 23 27 29
48 49 49 51 51 50 51 51 51 52 51 53 52 51 48 49 51 51 52 52 53 55 56 55 51 49 35 40 35 31 30 29 29 27 27 26 28 28 26 23 20 19 14 13 24 29 31
47 48 49 50 49 51 51 51 51 51 51 51 52 52 50 49 49 51 52 52 52 55 53 51 47 39 38 26 29 30 27 32 28 26 27 28 26 24 23 21 18 16 15 15 13 25 25
47 47 49 50 50 50 48 51 51 50 51 51 52 52 51 50 50 51 49 48 43 50 49 39 34 27 16 31 23 22 23 32 31 29 25 27 23 21 23 25 24 20 16 14 22 27 26
49 50 49 49 50 50 48 49 50 50 50 50 52 51 52 50 51 51 47 45 34 43 39 36 41 40 34 33 27 27 21 31 31 26 27 25 24 24 24 25 24 22 19 17 17 24 22
50 50 50 49 49 50 49 50 49 49 50 50 50 50 51 50 50 47 43 44 43 43 38 29 25 22 28 30 30 27 21 29 29 25 25 25 25 27 23 25 22 20 17 17 22 27 23
50 50 50 50 50 50 50 50 50 50 49 50 49 50 49 50 45 42 39 43 45 46 35 17 11 19 19 26 27 29 24 25 27 24 24 25 25 25 25 24 22 19 16 18 23 23 18
49 50 50 50 50 50 50 50 50 50 50 50 50 51 50 50 44 44 48 50 47 50 13 5 12 29 23 24 24 24 28 27 26 25 25 24 24 24 25 23 24 21 25 24 20 18 20
49 49 50 50 50 50 50 50 50 50 50 49 50 50 50 48 46 43 47 49 51 33 15 11 29 28 27 25 26 25 26 27 27 26 25 23 23 23 23 24 24 24 25 26 24 22 22
49 49 50 50 50 50 50 50 50 50 50 50 50 50 49 42 42 44 49 50 34 21 7 4 24 29 27 27 27 26 26 24 22 23 25 22 21 21 24 24 25 24 24 24 25 24 25
49 49 50 50 50 50 50 50 50 50 49 49 49 49 47 41 45 47 49 42 20 12 17 16 15 27 27 28 28 28 27 23 25 22 21 21 20 20 25 25 25 27 25 27 25 29 27
49 49 49 50 50 50 50 50 50 50 49 49 49 47 45 46 47 48 43 31 21 13 11 15 14 21 26 27 25 26 25 25 24 24 22 22 20 20 25 25 24 27 25 26 26 32 33
49 49 49 49 49 50 50 50 50 50 50 49 48 45 43 46 50 48 38 32 26 16 12 14 13 18 24 27 25 24 23 24 25 24 25 25 24 22 22 24 25 23 27 27 25 27 26
48 49 49 49 49 49 50 50 50 50 50 49 46 40 41 46 49 42 32 32 29 22 18 16 18 14 13 21 24 24 24 23 25 24 24 25 26 25 22 22 21 22 24 30 28 26 28
48 48 48 49 49 49 49 50 49 49 49 48 43 34 43 45 37 38 31 32 31 24 22 22 24 20 19 21 27 25 22 25 24 25 23 26 29 25 22 22 23 23 26 28 30 26 30
47 47 48 48 49 49 49 49 50 49 49 47 39 39 44 44 31 33 34 27 28 27 21 20 22 22 25 27 31 30 34 27 31 27 27 27 26 25 21 25 26 24 25 26 29 31 30
47 47 48 47 47 46 47 49 50 49 50 47 39 33 40 41 36 32 31 29 26 27 25 21 22 25 26 31 34 33 32 29 34 27 40 34 29 26 25 28 27 26 23 28 30 32 31
47 47 46 46 46 46 47 47 49 50 50 47 39 35 37 31 34 33 32 27 26 25 25 24 21 23 24 29 34 33 36 34 31 36 33 34 28 29 24 22 24 24 23 23 24 24 32
46 46 46 46 46 46 46 46 48 49 49 45 33 37 35 30 34 32 31 30 24 24 22 20 22 21 25 27 33 33 41 33 34 31 31 33 30 30 28 23 22 21 21 20 20 20 19
45 44 44 45 45 45 45 45 45 46 48 43 40 42 36 32 34 32 31 31 27 27 26 20 20 24 25 28 36 42 43 43 40 33 33 34 32 29 28 26 23 23 23 20 19 21 20
44 45 45 45 45 45 45 46 45 45 46 43 40 42 37 32 34 31 29 29 28 26 27 23 23 25 27 34 46 45 42 40 41 36 36 32 33 31 32 33 24 24 24 22 22 22 19
45 45 46 46 46 46 45 45 46 45 46 44 44 41 37 35 30 31 30 29 29 29 28 27 24 23 29 38 36 37 36 35 37 35 35 35 36 36 32 29 27 24 25 24 24 23 23
46 46 46 46 46 46 46 46 46 46 46 45 44 43 42 36 34 29 30 30 29 30 31 30 29 31 32 28 33 30 30 29 27 27 33 34 36 37 38 29 27 33 28 25 27 26 26
46 46 46 46 46 45 46 46 46 46 46 45 44 44 43 38 37 33 31 32 32 30 30 31 29 34 38 32 31 31 27 22 23 27 30 34 34 36 35 34 31 28 28 28 27 30 33
45 45 45 46 46 46 45 46 46 46 45 45 43 44 42 39 39 37 40 36 34 33 32 32 34 38 39 35 33 32 33 27 22 19 33 32 33 36 36 35 32 33 30 28 33 37 39
45 45 46 45 45 45 45 46 46 45 45 46 43 45 47 43 41 43 44 46 43 38 37 35 35 35 39 39 35 35 39 38 29 28 29 32 32 35 34 34 41 39 37 38 40 40 40

GFSGBSN_sfc_dewp_057.txt.gz
Dewpoint
49 49 50 50 50 50 51 51 54 54 53 50 48 50 48 51 52 53 53 53 53 54 56 57 58 58 53 44 40 50 58 56 44 36 34 30 26 20 20 18 20 19 17 18 19 19 28
49 49 49 50 50 50 50 50 52 52 53 53 50 49 48 49 49 51 53 53 53 53 54 56 57 57 51 42 41 47 48 46 37 33 31 32 25 24 25 26 23 23 21 18 19 19 26
49 50 51 52 51 51 50 52 52 52 52 53 53 51 47 48 48 48 51 52 52 52 53 55 57 54 49 43 41 38 39 45 40 34 31 30 25 24 28 28 30 27 22 20 18 25 30
48 48 48 50 52 52 52 52 52 51 52 52 52 52 51 47 47 47 49 51 51 52 53 55 57 52 45 42 42 42 40 39 41 37 31 29 27 27 30 29 27 24 23 19 19 26 34
47 48 49 50 50 50 51 51 52 51 51 52 52 51 52 51 49 49 49 51 51 52 53 55 53 49 44 43 40 38 37 33 34 34 30 25 29 31 29 26 24 24 19 18 17 26 35
47 48 49 50 50 50 50 50 52 51 52 52 52 52 52 52 51 50 50 50 50 51 52 53 51 45 45 32 33 35 35 31 32 31 28 28 27 26 25 23 20 22 20 16 17 26 36
46 48 48 49 50 50 49 50 50 51 51 51 51 52 52 52 51 50 49 45 44 48 50 45 42 37 28 31 35 27 33 28 31 29 24 28 25 23 23 24 23 22 23 19 18 27 26
47 48 48 49 50 50 50 50 50 50 50 51 50 51 51 51 51 50 48 42 43 43 40 44 46 42 40 43 35 34 26 26 31 28 26 26 24 25 25 23 24 25 23 20 20 28 26
48 49 49 49 49 49 49 50 50 50 50 50 51 50 51 50 51 48 43 41 42 41 40 34 35 33 34 34 37 34 26 23 30 29 28 25 26 26 25 23 24 24 22 20 20 28 25
48 49 50 49 49 50 50 50 50 50 50 50 50 50 49 49 46 43 40 47 47 44 37 29 19 27 26 25 32 35 32 23 31 28 28 27 27 26 25 25 25 21 24 20 19 24 23
48 49 49 50 50 50 50 50 50 50 50 50 50 50 50 49 44 42 43 43 45 48 11 14 15 22 20 21 26 27 30 29 27 28 28 25 26 26 25 27 26 24 29 28 26 23 21
48 48 49 49 50 50 50 50 50 50 51 50 50 50 50 47 47 44 44 43 49 36 24 16 27 26 20 20 22 25 26 29 27 25 26 25 25 25 25 26 26 26 29 27 28 25 22
48 49 49 49 50 50 50 50 50 50 50 50 50 50 49 43 41 44 48 47 35 27 5 1 28 28 28 23 18 21 23 23 24 25 25 25 25 25 25 24 27 25 25 24 24 24 23
48 48 49 49 49 50 50 50 50 50 50 50 50 50 49 44 43 44 47 40 28 17 15 14 15 22 28 27 25 22 22 24 24 24 24 23 24 24 24 24 25 25 26 27 22 26 26
48 48 48 49 49 50 50 50 50 50 50 50 50 48 46 45 44 47 42 31 24 21 14 11 6 11 21 28 29 27 26 24 26 24 22 24 23 23 22 25 26 29 26 28 26 34 29
47 48 49 49 49 49 50 50 50 50 50 50 47 46 43 45 46 44 37 32 30 28 22 19 13 17 17 23 28 28 28 28 28 27 24 26 25 24 23 24 27 25 29 27 27 25 25
47 48 48 48 49 49 49 50 50 50 50 50 46 40 42 45 47 40 31 29 27 30 27 22 16 13 15 17 20 27 27 26 28 27 25 23 25 26 25 24 24 26 24 29 30 31 26
46 47 47 48 48 48 49 49 50 50 50 49 44 35 42 44 36 36 30 30 32 26 29 28 26 23 22 23 22 23 30 33 27 27 25 25 27 23 23 26 25 25 25 26 31 29 30
45 46 47 47 48 48 48 49 50 50 50 47 40 39 44 41 30 30 32 31 31 29 27 26 25 24 23 23 22 36 35 37 38 35 26 27 23 25 25 24 24 23 24 26 29 34 29
45 46 46 47 47 47 48 49 48 49 50 48 38 32 39 41 34 29 29 30 30 31 29 28 26 25 22 23 24 34 35 37 41 40 39 32 26 22 23 26 26 26 24 24 28 28 28
46 46 46 46 47 47 48 48 49 49 50 48 37 33 37 32 33 32 28 28 28 29 28 26 25 26 25 22 25 27 35 40 41 41 36 32 24 24 25 26 26 27 27 25 24 27 29
45 46 46 46 47 48 48 48 47 47 48 46 32 35 37 30 34 33 32 29 27 26 27 25 24 25 25 23 22 27 38 39 39 42 39 34 28 27 25 25 26 27 28 27 24 28 29
46 46 46 47 47 47 47 46 47 47 47 44 41 39 35 33 32 32 30 29 30 29 29 26 26 25 24 25 28 43 44 44 43 41 40 37 32 31 25 26 25 26 26 26 27 25 25
45 45 45 45 45 46 46 46 46 46 47 44 41 41 36 33 32 30 30 30 30 31 30 28 28 26 25 41 45 43 41 39 39 40 44 39 36 33 28 29 24 27 27 25 25 25 23
44 44 45 45 45 45 44 44 45 45 46 45 42 41 37 32 33 30 30 30 30 31 30 30 28 28 27 23 29 34 33 34 35 38 40 41 39 32 28 28 28 27 25 26 25 25 24
44 45 45 45 45 45 45 45 45 45 45 45 44 43 41 35 34 31 30 30 29 29 30 29 31 33 32 25 28 24 26 31 31 32 39 38 41 34 31 27 24 30 31 32 31 25 29
45 46 46 46 46 46 46 46 45 45 45 44 43 43 40 34 37 34 31 30 31 30 29 29 30 33 33 28 27 27 30 31 28 28 29 32 33 32 32 32 32 32 31 34 26 27 32
46 46 46 46 46 46 46 46 46 46 46 45 43 44 40 37 39 38 39 38 33 33 30 32 32 35 35 28 27 27 25 28 28 28 32 31 31 30 33 30 28 38 35 27 31 33 35
46 46 45 45 45 45 46 46 46 46 45 46 42 45 44 41 41 45 44 44 44 42 39 35 32 32 36 33 32 31 27 29 26 24 31 32 33 34 34 33 39 39 43 42 42 41 39

GFSGBSN_sfc_dewp_060.txt.gz
Dewpoint
50 49 49 49 50 50 50 50 52 53 52 53 53 52 51 50 49 49 49 51 52 52 52 52 54 57 54 46 43 45 57 56 45 34 30 29 30 25 17 19 21 20 21 20 19 26 40
49 50 51 51 50 50 50 50 52 52 53 52 52 53 52 50 50 49 49 50 51 52 52 52 53 57 51 41 35 41 48 44 36 32 32 33 30 26 22 24 27 26 27 25 20 19 41
48 49 50 51 51 51 51 52 52 52 52 52 52 52 52 52 51 50 50 50 50 51 52 52 52 54 47 41 40 39 42 43 40 34 31 32 32 28 24 26 31 28 24 23 22 20 34
48 48 48 50 51 51 51 52 52 52 52 52 52 52 52 51 51 51 50 50 50 50 52 52 53 53 43 43 45 45 45 42 39 41 34 33 32 27 26 28 27 25 24 20 21 20 32
46 48 48 50 50 51 51 51 51 52 52 52 52 52 52 52 52 51 51 51 51 51 51 53 51 49 43 48 44 44 39 35 36 39 37 34 32 27 29 25 24 26 20 21 21 21 28
47 47 48 48 50 50 51 51 51 51 52 52 52 52 52 52 52 51 51 50 49 50 50 52 51 42 43 28 37 35 38 35 33 35 34 29 26 25 25 24 20 21 21 22 20 21 35
47 46 47 48 48 48 49 50 51 51 51 51 52 51 51 52 51 51 49 43 38 44 49 45 44 39 30 32 39 34 35 34 31 31 27 28 23 22 24 25 24 23 23 22 22 28 33
46 45 46 47 48 48 49 50 51 51 51 51 51 51 50 51 50 51 48 41 40 40 35 39 44 44 43 41 38 39 35 30 29 27 27 25 23 24 26 26 25 24 23 23 21 28 26
46 44 45 47 48 49 49 50 50 50 51 51 51 51 50 50 50 47 45 41 40 43 39 36 38 38 40 42 40 38 35 28 27 29 26 23 25 26 26 25 24 23 22 23 21 22 26
42 47 48 48 48 49 50 50 50 51 50 51 51 50 50 49 44 43 41 43 43 44 34 27 28 28 29 34 35 32 31 26 27 27 30 26 25 25 26 24 24 22 25 25 23 22 22
46 48 48 48 48 50 50 50 51 51 51 51 50 50 50 49 42 41 42 43 45 45 -9 5 23 30 30 25 26 30 28 31 23 29 30 29 28 27 26 25 26 25 28 27 26 23 21
46 47 47 48 49 49 50 50 50 50 50 51 51 50 49 47 45 45 44 44 47 34 17 20 22 23 24 23 22 27 30 32 30 28 29 28 29 26 27 27 27 28 27 28 28 25 23
47 47 47 48 49 49 50 50 50 50 50 51 51 51 49 45 39 43 43 46 34 27 16 3 26 25 21 21 18 22 22 27 27 23 23 25 26 27 27 24 27 25 24 23 23 22 23
46 47 47 48 48 49 49 50 50 50 50 50 50 50 49 46 44 43 45 40 25 21 12 14 15 11 28 23 19 21 23 19 26 26 23 21 23 25 27 26 24 25 25 26 21 23 24
45 46 47 47 48 48 49 49 50 50 50 50 50 48 47 46 45 45 40 30 25 22 19 16 11 10 10 24 27 20 22 21 23 25 24 26 24 26 26 26 25 27 25 27 26 31 28
44 45 46 47 47 48 49 49 50 50 50 50 47 46 44 45 45 43 36 30 28 27 24 25 18 17 16 15 24 28 30 29 25 27 27 27 24 26 25 26 25 26 29 26 29 22 23
44 46 46 46 47 47 48 49 49 50 50 50 46 40 44 45 46 39 29 29 29 29 29 27 23 20 20 19 22 26 31 30 31 29 27 26 24 24 28 25 23 26 26 30 29 29 24
45 45 45 46 46 47 48 49 50 50 49 49 44 35 44 45 35 34 30 29 32 28 30 29 29 27 24 24 24 24 25 27 36 39 31 29 27 23 22 25 26 23 25 27 28 27 30
45 45 45 46 46 46 47 48 49 49 49 47 40 39 44 40 29 30 29 28 30 29 29 28 28 28 25 24 23 27 31 35 41 39 39 38 27 24 24 23 24 23 26 26 29 32 27
44 45 45 47 46 46 47 47 48 49 50 47 37 32 39 39 34 29 28 27 28 30 29 29 29 29 27 26 25 24 29 34 42 41 44 42 36 28 22 23 26 25 26 25 26 28 27
44 45 45 45 46 46 47 47 48 49 49 47 36 33 36 32 33 32 30 27 26 27 30 30 29 28 27 26 25 22 29 39 40 43 41 42 36 30 27 24 24 27 26 26 23 27 26
44 45 45 45 46 47 47 47 48 48 49 44 32 34 37 32 34 33 31 28 27 27 28 28 26 25 24 25 26 24 26 27 37 40 40 41 36 35 28 27 24 23 26 27 26 26 27
45 45 45 45 46 47 47 47 47 48 48 43 43 40 36 34 34 33 30 28 28 29 29 29 29 27 26 26 27 29 40 42 43 38 38 36 37 35 30 26 25 25 26 25 28 30 29
45 45 45 46 46 47 47 47 47 48 48 44 42 41 37 32 32 32 30 30 29 29 29 28 28 29 29 30 42 41 39 40 41 41 40 36 35 36 31 28 25 26 30 28 28 28 28
45 45 45 45 45 46 46 47 47 47 47 44 44 41 38 32 33 30 29 29 30 30 29 31 31 30 32 29 30 26 28 29 34 39 42 41 37 32 31 29 28 30 30 29 28 25 27
44 44 45 45 44 44 44 45 46 45 46 45 43 43 40 35 34 32 29 30 29 30 30 30 32 34 33 29 27 21 18 26 28 35 40 38 38 33 31 28 26 29 30 32 30 26 29
44 44 44 45 45 45 45 45 45 45 45 44 44 43 40 33 37 35 30 30 31 30 29 30 31 32 33 29 25 25 22 26 24 27 30 30 30 30 31 30 32 35 38 32 27 26 31
45 45 45 45 45 45 46 45 45 45 45 44 41 44 40 35 36 39 37 33 32 31 29 30 31 33 34 29 28 26 24 30 30 29 30 28 28 29 32 31 27 39 39 32 36 41 42
46 46 46 46 46 46 46 46 46 46 45 45 40 44 44 39 38 43 41 43 38 37 34 34 31 32 35 33 30 29 25 25 27 24 29 29 31 31 31 31 36 41 40 44 43 41 43

GFSGBSN_sfc_dewp_066.txt.gz
Dewpoint
49 49 49 50 50 50 51 51 52 52 52 52 51 50 51 50 50 51 52 52 52 52 51 50 50 51 51 42 35 42 57 58 50 33 26 27 27 23 19 17 19 18 19 22 23 27 26
48 48 48 49 49 49 49 49 50 52 52 52 52 52 51 50 50 50 51 52 52 52 52 51 50 51 47 37 30 40 40 46 36 29 28 27 25 26 23 21 21 25 24 26 26 24 42
46 47 47 48 49 49 49 50 50 51 52 52 52 52 52 51 50 51 51 51 51 51 52 51 50 48 45 37 40 41 42 37 38 33 29 31 30 29 28 25 26 28 24 24 22 23 34
47 47 46 46 50 50 50 50 49 49 51 51 50 52 52 52 52 51 51 50 50 50 51 51 50 48 40 44 45 45 43 40 40 37 35 34 33 29 28 28 26 24 23 20 20 25 30
46 47 47 47 47 49 50 49 50 49 50 51 52 52 52 52 52 51 51 50 48 50 51 51 46 45 40 45 42 44 42 36 32 37 36 35 32 29 29 25 23 23 18 18 19 23 33
46 45 46 47 47 47 47 49 50 51 51 52 52 52 52 51 51 51 50 47 48 49 48 47 48 37 35 20 32 40 44 40 33 36 36 36 33 26 26 23 18 20 21 23 21 22 26
46 45 45 45 45 45 46 47 49 50 51 51 52 52 52 51 51 51 47 42 37 38 40 39 40 38 35 42 42 38 39 36 33 34 24 32 29 26 25 25 23 22 22 21 21 22 24
45 45 44 43 43 44 45 46 49 50 51 51 51 51 51 51 51 51 44 40 39 39 37 38 39 39 39 42 39 33 35 33 30 28 30 25 27 28 26 26 25 24 23 22 22 23 24
46 44 42 43 44 42 44 46 49 50 51 51 51 51 51 51 50 42 40 41 42 40 39 36 37 36 33 33 33 31 32 32 28 27 29 25 27 27 25 25 24 24 23 22 18 23 24
45 45 44 45 43 43 45 46 47 49 50 50 51 51 51 50 43 41 41 42 42 44 32 27 33 33 29 38 35 32 27 27 29 26 28 27 28 26 24 23 23 21 25 24 23 23 21
45 45 44 45 43 45 46 47 47 48 50 50 50 51 51 50 40 40 39 43 41 44 -0 7 27 30 33 24 23 30 31 30 26 26 28 26 27 27 25 24 24 22 26 25 25 24 23
44 44 44 44 44 45 46 46 48 49 49 50 50 51 51 47 46 44 45 43 45 28 15 14 24 28 31 30 26 31 32 30 28 27 29 26 30 27 26 26 26 29 28 28 28 26 23
44 44 44 44 44 44 44 45 48 49 49 49 49 50 49 45 39 43 42 43 32 23 21 12 18 27 27 26 25 25 26 24 23 20 22 24 27 28 28 26 28 26 25 23 22 23 23
44 44 43 43 43 43 44 45 47 48 49 49 49 49 48 46 43 43 41 36 25 24 24 24 20 19 23 23 22 20 21 21 23 25 22 20 20 26 29 27 26 27 26 25 20 21 22
42 41 43 43 43 43 43 44 47 47 48 49 49 47 47 47 44 42 35 27 23 25 26 25 22 17 18 18 26 24 23 19 18 24 22 23 21 23 27 28 26 27 25 26 23 27 25
41 43 42 43 43 42 43 44 46 47 48 48 44 45 44 46 45 42 32 23 28 29 29 29 21 20 19 21 23 26 29 30 28 27 28 28 23 27 27 26 28 27 28 25 27 21 21
41 41 41 42 42 43 42 43 45 47 47 48 45 39 44 46 46 38 27 24 25 27 28 28 28 25 24 22 22 22 26 34 37 37 29 27 26 25 27 25 24 26 25 27 27 26 22
41 41 41 41 41 42 42 43 45 46 47 46 42 34 45 45 34 34 29 27 30 25 30 29 30 29 26 25 22 20 24 34 34 39 33 37 30 24 23 25 26 26 26 28 26 23 28
41 41 40 41 42 43 43 43 45 46 46 43 38 38 45 42 29 30 30 28 26 29 29 28 29 30 28 24 19 23 26 34 39 40 38 37 35 29 25 26 27 25 25 25 29 29 26
41 41 40 41 42 43 44 45 45 45 46 44 35 31 38 40 36 30 29 28 26 29 29 30 29 29 28 27 27 25 26 29 33 38 43 41 36 36 31 34 35 33 31 28 24 24 23
41 42 42 43 43 43 43 44 44 44 45 44 36 31 36 30 33 31 29 27 26 27 27 29 27 28 27 25 25 24 25 27 27 33 40 37 32 36 37 35 35 34 31 31 30 24 23
41 42 42 43 43 43 43 43 44 45 45 42 32 33 38 35 33 34 31 30 26 26 28 27 28 29 27 25 24 22 26 25 25 27 37 39 30 35 32 33 31 30 28 30 31 27 26
42 43 43 43 43 43 43 44 44 45 45 40 40 40 39 36 34 33 30 29 29 28 28 27 30 29 28 28 29 29 29 29 29 29 30 36 34 31 25 31 29 23 31 26 26 30 29
43 43 43 43 44 43 43 43 44 45 45 43 41 40 35 31 33 31 31 30 29 29 27 29 28 28 31 32 32 33 32 30 29 29 32 33 33 31 26 27 21 21 33 29 31 26 24
43 43 44 45 45 44 44 44 44 45 45 43 43 40 36 30 35 32 33 33 30 30 30 29 30 30 33 32 31 26 25 29 33 36 36 37 34 28 23 25 25 24 22 27 26 23 25
45 44 43 43 45 44 44 45 45 45 46 45 44 44 41 34 32 37 33 33 32 31 29 30 32 34 33 31 29 26 22 22 25 31 38 37 35 32 29 23 17 21 33 40 38 26 39
44 44 43 43 43 45 45 45 46 46 46 45 43 44 40 33 37 36 35 35 34 33 30 30 31 32 33 28 26 26 25 25 21 26 29 32 32 30 30 28 27 31 36 41 32 26 37
43 43 43 43 43 43 44 44 45 46 46 45 42 45 40 35 38 40 38 37 36 33 29 31 32 33 32 29 27 27 24 25 24 28 30 29 28 28 29 28 24 35 35 30 36 37 34
44 45 44 44 44 43 43 44 44 44 45 46 39 45 45 38 37 40 41 40 38 35 33 32 31 33 32 28 27 27 24 23 26 23 30 26 29 27 29 27 32 36 33 37 37 35 35

GFSGBSN_sfc_dewp_069.txt.gz
Dewpoint
48 48 48 49 49 49 49 49 50 51 51 52 51 51 51 51 51 50 51 52 51 51 51 51 51 51 50 33 24 39 52 58 53 38 28 27 29 27 24 20 20 21 20 20 20 23 26
46 47 47 47 48 46 47 49 49 51 51 52 52 52 51 51 51 51 51 51 51 50 49 50 51 51 48 20 24 40 41 42 38 31 28 27 24 27 24 20 20 23 20 23 26 25 28
46 45 47 47 47 47 48 49 49 49 50 51 51 52 52 51 51 51 51 51 51 51 51 48 50 48 42 27 33 40 41 36 38 32 29 29 27 27 27 24 26 26 25 24 23 22 27
48 46 47 48 49 48 48 49 49 49 49 50 50 52 52 52 52 52 52 51 51 50 50 50 49 45 37 40 44 44 42 38 38 35 35 35 33 29 27 27 26 24 24 20 19 27 35
48 48 45 47 48 49 48 48 49 49 49 50 51 52 52 52 52 51 51 51 50 49 51 50 47 44 32 42 41 41 40 33 35 36 35 33 33 31 28 23 21 24 18 20 18 22 36
45 46 46 45 46 46 46 46 48 49 50 51 51 52 52 52 52 51 51 50 47 49 48 47 46 38 32 16 32 40 43 40 32 35 34 33 33 30 27 22 12 15 21 21 19 22 26
46 45 46 44 45 44 45 45 46 48 50 50 51 51 51 51 51 51 48 41 37 37 39 38 36 35 35 40 42 39 42 37 31 31 27 36 28 29 27 26 21 21 21 19 21 22 21
46 47 46 44 43 44 43 43 46 48 49 49 51 51 51 51 51 50 43 40 38 39 36 38 38 36 38 40 36 36 37 28 30 27 27 29 28 30 29 27 24 23 22 21 22 24 23
45 45 46 45 41 43 44 43 46 48 49 49 50 51 51 51 51 42 42 40 41 42 38 35 36 36 35 35 31 28 33 33 28 27 27 20 24 30 28 26 25 24 23 22 20 22 23
44 45 45 44 43 45 42 42 46 47 47 49 50 50 51 50 43 41 38 43 43 43 32 26 33 34 32 33 30 29 25 27 31 26 29 24 22 27 26 25 25 23 24 23 22 21 13
44 44 45 44 43 45 44 43 45 46 47 49 49 50 50 50 42 40 38 44 43 44 6 11 27 30 34 26 22 30 29 27 16 27 29 26 28 27 25 24 25 22 27 25 24 22 22
43 43 44 43 44 45 45 45 45 45 47 48 49 50 49 47 47 44 45 43 45 28 12 16 23 28 31 31 27 31 29 30 24 25 30 26 30 28 24 26 25 27 25 26 28 26 23
42 43 43 44 44 44 44 43 45 45 46 47 49 49 48 46 41 43 43 42 30 22 22 16 20 23 21 26 26 26 28 24 20 18 25 27 25 28 28 25 27 25 25 21 23 24 21
41 42 43 44 44 42 43 44 45 45 46 47 48 48 47 47 43 44 42 34 22 22 25 25 23 23 21 22 23 23 24 22 23 24 18 22 20 27 29 28 26 27 25 24 16 22 22
41 40 43 42 43 43 42 43 43 45 46 47 47 45 46 47 46 44 36 25 21 23 26 26 24 18 20 21 24 23 22 22 20 24 22 23 18 23 28 29 28 28 25 28 25 27 26
40 40 42 42 43 43 43 42 42 43 45 46 43 43 42 47 46 43 33 23 25 29 28 28 22 23 20 20 20 24 29 33 34 29 29 27 24 26 24 27 29 28 29 26 27 20 18
38 41 40 41 42 42 41 42 41 42 44 46 42 37 43 47 47 37 27 27 23 23 24 28 27 26 25 23 21 17 28 32 34 36 30 27 27 27 27 25 24 26 26 28 27 27 21
39 38 41 42 42 41 41 41 41 42 44 43 39 32 45 47 34 34 30 27 28 24 29 28 30 29 26 24 21 21 25 30 29 39 33 37 31 25 22 25 27 26 26 28 27 23 28
39 39 40 41 41 41 41 41 42 43 43 41 36 36 45 44 29 30 34 31 26 27 26 27 28 29 28 24 20 21 27 30 30 30 35 36 34 29 26 27 33 31 30 31 30 29 25
39 39 40 40 41 40 40 41 42 43 43 42 36 30 37 40 38 30 31 29 27 28 27 29 29 29 27 26 27 25 25 28 32 28 39 42 34 34 30 33 36 33 33 32 30 29 25
41 41 41 41 40 40 40 41 42 43 43 41 36 31 36 29 31 33 31 30 26 24 27 29 28 28 27 24 25 24 25 26 27 31 40 38 31 32 31 32 35 32 31 28 24 28 29
40 40 41 41 41 41 41 42 43 43 44 38 32 33 37 35 34 34 32 32 27 26 28 26 26 28 29 25 25 21 25 23 24 29 31 33 31 35 33 34 33 31 30 28 26 29 28
42 41 41 41 42 42 43 43 43 44 42 38 38 39 37 30 32 33 32 30 30 29 29 28 28 28 28 29 30 30 31 30 28 27 27 29 34 32 27 31 30 25 28 27 28 28 29
45 43 42 42 43 42 43 43 43 43 43 40 40 39 33 27 32 31 35 31 30 29 28 29 29 30 31 33 34 33 32 31 31 30 30 27 30 33 29 28 20 20 27 29 29 29 29
43 44 43 43 43 43 43 44 44 43 44 42 41 39 36 29 29 33 34 33 31 31 30 30 30 30 34 33 34 29 26 29 32 31 31 30 31 31 28 26 24 22 21 23 26 24 35
44 43 43 44 44 44 45 45 45 44 43 43 42 43 40 33 31 31 35 35 31 32 32 32 33 39 35 36 33 24 21 22 22 29 36 34 34 31 31 24 21 22 29 38 33 25 36
45 44 45 45 44 44 43 45 45 44 44 43 42 43 40 33 36 34 32 34 34 33 32 32 34 36 36 34 28 25 22 25 22 24 27 30 32 28 30 27 28 30 31 41 26 27 36
44 44 44 44 44 44 43 44 45 45 44 43 42 45 40 34 38 38 36 35 38 35 32 33 34 35 34 30 29 27 27 26 24 27 30 27 29 28 29 27 23 32 35 29 30 36 36
45 45 44 44 44 43 43 43 44 45 45 45 40 45 44 38 38 42 41 41 39 37 35 35 33 33 34 31 30 29 28 28 26 23 30 25 30 29 31 29 33 36 37 36 38 37 38

GFSGBSN_sfc_dewp_072.txt.gz
Dewpoint
46 46 47 47 48 47 48 48 49 51 51 51 51 51 51 50 50 51 52 52 52 50 51 50 49 51 45 28 9 31 55 57 46 41 29 29 27 23 20 18 19 22 14 16 19 19 20
47 46 47 47 48 47 48 48 48 50 50 51 52 52 51 51 51 50 51 52 52 51 51 50 49 50 41 28 11 30 36 39 36 38 32 28 24 25 22 20 19 18 18 16 15 19 22
49 48 46 47 47 47 46 48 48 49 50 50 51 52 52 51 51 51 52 52 51 51 51 50 49 45 41 27 18 31 34 29 36 29 32 29 28 25 22 22 23 20 19 16 18 19 18
46 49 49 47 48 49 49 48 47 48 49 49 50 52 52 52 52 52 52 52 51 51 51 51 50 44 34 29 34 34 29 21 32 35 33 29 29 28 27 25 23 20 20 16 14 16 24
47 46 46 47 47 47 48 47 47 47 48 49 50 52 52 52 52 52 52 51 51 50 51 50 46 42 27 37 34 30 29 22 17 24 27 33 34 29 29 24 19 22 15 18 16 19 22
45 45 46 46 46 45 46 46 46 47 47 50 50 51 51 51 51 51 51 51 48 48 47 45 42 38 30 15 30 38 41 35 27 22 31 34 32 30 29 23 18 18 17 16 16 16 24
45 46 47 46 45 44 45 45 45 47 48 48 49 50 51 51 51 51 47 39 33 36 35 33 30 32 26 34 37 33 42 40 32 24 25 33 28 27 26 26 23 19 16 15 13 17 21
44 45 45 46 46 43 43 44 44 46 47 48 48 50 51 51 51 51 42 38 38 37 34 34 33 31 30 31 31 30 38 30 33 21 18 30 28 26 27 27 25 22 18 17 16 20 21
44 44 44 44 46 45 42 45 44 45 47 47 48 49 50 51 51 45 41 39 41 41 35 30 33 33 33 34 28 24 37 29 29 27 19 21 22 25 25 27 24 23 20 19 16 16 19
43 44 45 45 45 44 42 44 42 43 45 47 49 50 50 50 46 41 39 41 42 44 32 18 28 30 34 31 28 27 27 30 26 22 24 22 19 22 25 25 24 21 21 21 20 19 14
43 43 44 45 45 44 45 44 43 44 45 46 49 49 49 49 45 39 40 43 42 44 7 11 22 30 29 27 21 30 27 20 18 22 27 23 22 18 18 22 20 20 21 22 22 21 21
43 43 42 42 44 45 45 45 44 44 44 45 47 48 48 43 46 43 44 43 42 32 4 10 22 24 29 26 23 30 27 22 20 17 21 24 27 25 18 23 25 24 24 23 24 22 20
42 42 42 43 43 43 45 43 43 44 44 45 46 47 45 43 41 44 45 38 29 14 16 13 20 20 20 19 25 23 28 24 16 18 20 21 22 25 26 21 23 23 22 22 22 23 20
41 40 41 41 41 43 45 43 44 44 43 44 46 47 44 42 47 45 43 33 21 11 18 22 22 21 19 20 24 23 25 23 19 16 14 19 20 22 26 25 23 22 23 22 18 22 20
39 39 39 41 41 41 43 43 44 43 44 44 46 43 44 43 47 47 38 28 13 17 20 25 20 16 17 19 22 23 30 30 20 20 13 17 16 23 23 26 25 25 24 24 23 26 26
40 41 40 41 42 42 42 43 43 42 42 44 43 42 37 44 50 44 35 24 20 28 27 27 20 22 18 19 17 24 28 30 33 30 23 24 17 19 21 25 26 26 26 25 26 22 20
38 38 39 39 40 41 43 42 43 41 42 43 42 36 36 45 49 39 28 27 22 22 25 26 25 24 23 21 18 18 29 28 26 32 31 24 26 27 25 23 23 25 27 26 25 25 22
39 40 40 39 39 40 42 42 41 41 42 41 38 31 43 49 36 36 31 28 29 22 24 26 28 27 25 23 21 17 20 25 26 27 31 35 30 24 24 25 24 25 25 26 25 23 25
40 40 39 40 40 40 42 42 41 42 42 39 34 33 43 45 30 31 34 30 26 23 22 23 24 28 27 24 20 20 23 28 28 24 28 33 31 20 17 22 28 24 28 28 28 29 27
39 39 40 39 40 40 42 42 41 42 43 43 36 30 34 39 37 31 28 28 31 26 24 26 25 29 27 25 25 22 22 22 27 24 39 37 30 31 24 26 30 31 30 31 30 28 25
40 40 41 40 39 40 41 42 41 43 43 42 37 31 30 31 31 35 28 27 25 24 26 26 25 26 25 24 24 24 23 24 24 32 32 38 27 27 27 25 26 26 25 25 25 26 26
42 42 42 41 42 40 40 41 42 43 43 40 33 30 33 31 29 35 35 31 26 23 25 24 25 25 27 26 25 22 23 24 24 25 28 32 26 31 24 24 24 25 23 24 23 23 26
44 44 44 43 42 41 41 42 42 43 43 38 39 36 34 29 26 28 29 28 33 28 27 25 26 26 28 27 29 29 30 30 28 27 27 27 30 27 22 27 26 24 25 22 22 21 26
44 45 45 45 45 42 42 42 42 43 43 41 39 37 33 25 27 26 22 28 31 29 28 27 27 28 30 34 34 34 32 31 31 30 29 27 30 31 27 29 20 19 23 24 25 23 23
45 45 44 44 44 44 42 42 42 43 43 43 41 39 34 28 25 23 25 34 32 31 31 29 28 29 36 35 32 27 28 29 29 30 30 30 28 29 25 21 19 18 18 19 18 16 28
44 44 44 44 44 44 43 43 43 43 44 42 41 43 38 33 29 23 23 27 32 31 30 31 38 36 38 36 30 23 21 21 22 27 29 30 30 29 28 21 20 21 28 33 30 20 29
45 45 45 45 44 44 44 44 44 44 45 43 42 43 38 33 32 36 28 26 34 36 32 33 37 37 39 35 29 25 22 22 20 23 30 29 30 29 27 27 24 25 23 36 25 29 31
44 45 45 45 45 45 45 44 45 45 45 45 41 43 38 34 33 32 35 31 31 34 29 36 35 35 34 32 29 25 26 24 21 23 28 28 26 28 29 25 24 29 32 29 35 34 33
45 45 45 45 45 44 44 45 44 44 45 45 40 44 42 39 37 38 36 36 36 35 36 38 33 35 34 32 30 29 28 30 22 20 25 27 28 27 26 26 32 35 34 33 39 38 38

GFSGBSN_sfc_dewp_075.txt.gz
Dewpoint
46 47 46 47 47 48 46 48 48 49 49 49 50 50 50 50 51 51 52 52 52 51 50 51 50 50 45 32 29 26 53 55 46 43 36 30 28 25 21 17 16 17 16 15 13 13 13
49 49 47 47 46 47 46 46 47 48 50 50 50 51 50 51 51 51 52 52 52 52 51 51 50 50 41 29 27 16 20 23 35 38 31 29 27 24 21 19 18 18 16 17 15 14 13
47 47 49 48 47 47 48 48 47 47 48 50 50 51 51 51 51 50 51 52 52 52 52 51 51 46 37 27 19 21 25 16 19 34 35 31 28 24 24 22 21 20 17 17 18 16 14
48 47 47 47 48 48 47 47 47 46 46 48 48 50 52 52 52 52 52 52 51 52 51 50 52 45 33 24 23 25 26 24 20 19 29 31 32 29 28 27 24 21 22 19 18 17 16
47 46 46 47 47 47 46 46 46 46 47 47 48 50 51 51 51 52 51 51 51 51 49 50 46 41 28 34 25 23 24 23 19 15 26 24 28 28 27 25 23 24 18 19 18 17 16
46 46 47 47 47 47 45 45 47 46 46 46 48 49 50 51 51 51 51 50 48 48 48 43 39 38 34 13 21 30 39 30 19 17 17 19 21 22 22 21 20 20 19 19 19 17 17
45 45 45 46 45 48 46 44 46 46 46 46 48 48 49 51 51 51 48 38 33 39 37 30 27 31 23 17 27 26 35 37 32 27 17 14 19 17 19 21 22 23 20 18 18 17 17
45 44 44 44 44 45 46 44 46 46 45 47 48 48 49 50 50 50 47 36 36 38 35 33 30 28 26 23 21 22 28 35 33 32 32 19 22 22 23 23 25 24 22 21 19 17 19
44 45 44 44 44 44 45 44 45 45 44 44 47 48 48 50 49 47 39 37 40 41 34 27 26 27 27 30 25 22 20 29 29 31 32 28 20 25 23 24 24 26 25 24 20 19 18
44 43 44 44 45 45 45 45 43 44 44 45 46 48 49 49 45 40 37 38 40 44 32 23 23 26 31 30 26 25 22 26 25 25 32 33 30 21 26 25 25 25 24 22 21 20 17
43 42 43 45 44 44 44 45 43 42 44 44 46 47 48 48 41 37 38 41 42 42 11 9 19 29 28 27 24 26 25 23 27 23 27 30 30 26 22 23 24 24 24 23 21 22 23
42 42 42 42 43 44 43 44 44 43 44 44 45 46 47 41 44 41 41 44 42 33 12 9 19 20 25 26 25 26 30 23 25 23 25 26 28 28 23 21 22 23 22 23 22 23 21
42 43 43 44 44 44 43 43 44 44 43 43 44 45 44 39 38 42 45 40 26 15 9 7 14 17 17 20 23 24 26 23 15 17 19 23 26 24 24 23 19 22 23 22 22 22 22
40 40 41 41 40 41 42 43 44 44 43 43 44 45 42 37 40 45 42 31 19 7 10 16 17 16 15 20 23 25 23 22 19 19 13 13 18 23 23 24 22 23 24 23 21 24 22
40 39 40 40 40 40 42 42 42 43 44 43 44 37 38 41 43 47 39 28 11 12 9 16 17 11 9 17 22 23 23 26 22 21 18 16 19 22 24 25 25 25 22 22 22 28 27
39 40 41 40 41 41 43 43 43 43 43 43 34 37 37 42 47 45 35 25 18 17 23 21 12 14 14 17 20 21 27 30 31 32 22 22 18 18 25 25 25 24 26 22 23 23 22
39 39 39 40 39 40 39 42 43 42 43 42 33 33 34 41 48 40 29 25 21 19 24 22 18 20 17 20 20 20 34 30 25 28 29 20 25 23 23 27 24 23 23 26 25 24 24
39 39 39 40 40 41 40 40 43 42 42 39 32 32 38 43 36 36 30 26 26 20 20 22 25 26 24 22 21 19 19 26 26 27 31 24 32 25 22 21 26 24 22 26 26 25 26
39 40 40 40 41 40 41 41 42 43 43 31 32 29 39 45 30 30 30 25 25 22 19 19 22 21 23 24 20 20 19 27 25 23 28 28 27 24 25 26 24 24 25 25 27 28 29
39 39 39 39 41 41 40 41 41 42 43 39 36 32 30 40 37 30 26 25 23 25 23 19 19 21 21 24 24 22 21 21 25 25 36 34 32 26 19 25 26 23 25 28 27 27 25
40 41 41 41 40 39 40 40 42 42 43 39 36 32 29 32 31 31 32 33 23 23 24 23 23 20 23 22 21 21 22 22 23 30 26 31 33 32 30 30 26 27 26 25 25 26 26
41 42 42 41 41 41 41 42 42 43 43 41 34 30 27 28 29 29 28 29 28 20 20 22 22 20 21 21 22 21 24 24 24 24 25 27 23 25 28 25 24 23 25 25 23 23 23
42 43 43 44 44 43 42 42 42 43 43 39 40 34 34 27 24 27 29 27 25 28 31 26 23 22 25 26 27 29 31 32 29 27 27 28 26 22 22 19 23 25 23 22 23 25 24
42 43 43 45 45 44 44 42 42 43 43 37 36 33 33 27 24 21 21 26 25 28 30 30 29 27 28 33 33 32 31 29 29 29 29 28 27 26 25 26 20 19 20 20 21 22 22
43 43 43 44 44 45 45 45 42 43 43 44 36 39 34 28 20 19 21 22 28 30 30 35 37 29 35 34 31 27 28 28 29 28 28 28 28 28 26 22 19 16 15 17 18 16 23
43 43 43 44 45 45 44 44 43 43 43 44 43 42 39 34 26 19 19 20 25 28 35 32 39 39 37 34 34 26 21 22 22 23 27 27 29 28 26 21 17 17 25 29 25 20 27
43 43 44 44 45 44 44 45 43 42 43 43 40 43 39 35 28 32 22 21 23 29 33 33 37 38 38 35 31 26 23 21 22 24 27 29 31 28 26 24 21 21 23 28 23 28 31
44 44 45 45 45 44 44 44 44 43 43 42 39 42 39 37 30 29 30 32 32 29 31 37 37 37 35 33 30 27 27 26 20 23 27 28 28 28 28 28 23 24 25 27 36 36 35
44 44 45 45 46 45 45 44 44 44 44 44 39 43 42 37 31 34 32 32 33 37 38 36 34 35 34 33 30 30 29 30 23 21 27 27 27 26 24 24 29 32 34 36 37 36 36

GFSGBSN_sfc_dewp_078.txt.gz
Dewpoint
49 48 48 48 47 46 46 47 48 48 48 48 49 49 50 50 50 51 52 52 52 51 51 51 51 51 44 31 30 25 58 57 46 39 34 31 31 27 24 22 21 16 14 14 14 16 14
47 48 48 50 48 48 47 48 48 48 49 49 50 49 50 50 50 50 51 52 52 52 51 51 51 51 41 28 23 21 25 19 21 36 36 34 29 27 25 22 19 17 15 14 15 15 16
48 48 48 48 49 48 46 47 47 47 47 47 48 49 49 50 50 51 51 51 51 52 51 50 51 46 39 27 22 25 22 21 17 19 33 33 29 27 26 23 21 20 18 17 16 16 17
47 47 48 48 48 48 48 47 46 47 46 47 47 49 50 51 51 51 51 51 51 51 51 51 50 45 35 26 25 22 21 19 24 21 20 32 34 32 28 26 23 20 21 19 18 17 17
46 46 47 48 48 49 48 47 46 46 46 46 46 49 50 51 51 51 50 50 51 51 51 50 47 43 31 36 25 22 21 19 21 25 22 13 28 30 30 26 24 24 20 21 19 19 18
45 46 46 46 46 47 48 48 47 47 47 46 47 48 49 50 50 50 49 49 49 50 46 45 42 37 36 20 19 24 29 36 23 21 18 16 20 24 26 24 21 20 20 21 20 19 19
44 45 46 45 45 45 45 47 47 47 47 46 46 47 48 50 50 49 46 43 35 40 43 35 32 33 26 23 20 19 23 35 27 20 19 17 15 13 16 25 24 23 22 21 22 20 19
45 44 45 46 45 45 45 44 47 47 46 44 44 46 48 49 49 49 45 37 35 37 34 32 28 25 23 23 19 18 21 29 32 26 25 21 17 17 17 14 17 18 19 22 24 22 19
45 45 45 44 44 44 45 46 47 46 46 44 45 46 47 49 49 45 41 36 37 40 34 27 26 25 24 26 23 21 17 17 28 28 28 29 27 26 21 21 19 21 23 25 23 23 22
43 43 43 43 44 44 45 45 45 45 45 45 45 46 48 49 43 42 38 37 39 44 31 26 23 23 27 28 26 23 23 17 16 24 24 29 30 28 27 30 32 27 27 26 24 24 23
42 44 44 44 43 44 44 44 44 45 44 44 45 44 47 47 40 36 39 39 41 43 22 22 17 28 25 25 25 23 26 22 15 21 21 25 28 29 30 34 33 34 32 31 31 25 25
41 42 43 43 43 44 44 44 44 43 44 45 44 44 46 39 41 40 43 43 43 33 21 9 21 23 24 24 24 23 26 21 18 18 23 24 27 31 35 36 32 33 31 32 30 26 23
42 43 42 42 43 43 43 43 43 44 44 44 44 44 43 37 37 43 46 41 32 21 6 6 12 16 14 13 15 21 25 24 16 19 21 22 23 30 35 34 34 31 27 29 26 24 23
41 42 41 40 41 41 41 42 43 42 44 43 44 44 41 35 38 42 42 36 22 7 9 15 13 12 11 11 17 21 23 23 22 16 12 12 15 19 27 29 29 28 26 31 24 25 23
41 41 40 40 41 41 41 41 43 42 43 44 43 38 36 39 43 44 41 27 13 15 8 7 12 12 4 9 16 21 22 21 26 19 16 16 12 16 24 25 27 32 29 32 31 30 33
40 41 40 40 40 41 40 41 41 43 43 43 35 34 34 41 46 43 36 28 20 15 17 19 14 7 7 7 15 16 16 29 34 28 23 24 20 21 23 26 30 32 30 27 29 25 27
40 40 40 40 40 40 41 40 40 42 44 39 36 30 33 42 47 40 30 26 23 20 20 20 17 15 13 14 16 18 26 33 31 25 29 28 23 22 22 24 27 28 28 32 32 30 27
39 40 40 40 41 40 41 40 41 41 42 39 34 30 42 43 36 36 32 26 28 20 18 17 19 21 22 21 19 19 20 28 25 25 28 34 28 23 22 26 26 28 27 28 30 32 30
40 40 40 40 40 41 41 41 41 41 41 37 33 26 35 44 30 31 29 27 26 23 20 19 17 19 20 19 18 18 21 26 25 23 26 26 26 25 26 31 26 25 30 32 28 34 35
38 39 40 41 41 40 40 40 42 42 41 39 37 31 27 41 35 31 29 25 24 22 21 19 17 17 17 17 18 21 21 22 23 23 36 31 28 29 29 33 34 30 29 30 31 28 31
39 40 40 41 41 42 41 41 41 41 40 41 36 31 30 30 30 30 28 27 26 19 20 20 19 18 17 18 18 18 20 20 21 30 25 28 28 30 26 32 33 36 34 33 35 35 31
39 41 41 41 42 42 42 41 42 41 41 40 33 28 24 27 29 28 27 27 23 24 24 24 22 19 20 19 20 22 22 24 27 23 25 25 26 25 23 24 33 26 25 24 28 31 25
39 40 42 43 43 43 44 43 43 43 42 39 35 32 34 28 22 25 29 25 23 25 26 33 29 28 22 19 28 34 33 34 34 31 27 28 25 23 20 21 24 25 25 23 23 24 25
39 40 42 43 43 44 44 44 44 43 43 38 32 30 32 27 23 23 19 21 25 21 25 26 28 32 32 36 32 34 32 30 34 32 28 26 25 26 26 25 21 22 21 21 22 23 23
41 41 42 43 44 44 44 45 45 43 43 41 36 39 34 28 22 19 20 21 28 28 28 28 27 33 41 39 29 25 26 26 26 26 26 28 27 28 25 22 19 17 16 16 17 17 21
42 42 43 44 44 44 45 45 45 45 43 41 39 41 38 34 25 19 17 19 19 23 26 29 32 40 41 34 31 23 20 20 21 23 26 27 31 29 28 22 18 19 16 25 23 19 28
43 43 43 44 44 44 44 45 45 45 45 42 37 43 39 33 29 28 24 22 22 23 27 33 37 38 39 33 28 24 23 23 23 23 25 27 30 28 28 25 22 19 30 29 24 29 32
43 44 44 44 44 45 45 45 44 45 45 43 39 42 38 35 30 29 28 28 30 31 31 35 36 37 36 31 29 26 28 26 24 24 28 25 28 28 28 25 23 26 27 30 38 39 37
43 44 44 44 44 45 46 45 45 45 44 43 39 41 42 37 30 34 33 32 30 33 37 38 35 35 33 30 29 31 31 34 25 22 30 30 27 27 25 25 29 34 38 37 37 37 37

GFSGBSN_sfc_dewp_081.txt.gz
Dewpoint
48 48 48 49 50 49 48 48 49 50 50 50 50 48 49 49 49 50 52 52 52 51 50 51 51 51 48 35 34 40 59 59 54 47 39 34 26 28 26 25 25 22 20 18 17 16 16
48 49 49 49 48 49 49 47 48 49 49 49 49 49 48 48 48 49 51 51 51 51 51 50 51 51 46 33 24 24 31 44 40 38 36 34 30 31 29 26 25 24 22 20 16 15 15
48 47 48 48 48 48 48 48 48 47 48 48 48 49 48 48 49 50 50 50 50 50 51 50 51 48 43 34 27 27 28 24 21 24 21 37 36 33 29 27 27 25 21 20 20 19 18
47 47 47 47 48 49 49 49 48 47 47 47 46 48 49 50 50 51 50 50 50 50 50 50 51 47 40 36 32 31 29 23 22 20 25 22 25 32 33 32 29 25 24 19 20 19 19
46 46 46 47 47 48 49 49 49 48 47 47 47 48 49 50 50 50 50 49 49 50 50 52 48 46 37 40 35 33 31 22 18 22 25 23 17 24 30 30 27 26 22 22 21 22 20
47 46 45 46 46 45 46 47 48 48 48 48 47 47 48 49 49 49 49 48 47 49 48 44 44 43 41 29 26 25 25 35 35 24 23 24 15 20 26 26 24 23 22 21 21 22 22
44 47 45 44 45 46 46 46 47 47 48 47 46 45 47 49 49 49 47 40 35 40 41 41 39 35 31 32 24 20 21 33 34 24 19 19 14 16 19 25 26 24 23 22 22 23 24
45 46 46 46 45 45 45 44 47 48 47 46 47 46 47 48 49 49 44 40 35 35 35 35 34 33 34 30 23 21 20 21 33 24 20 20 15 16 17 16 15 18 18 19 20 22 21
44 44 44 44 44 44 44 44 45 46 47 46 47 45 46 48 48 45 42 41 38 40 35 32 30 30 28 27 24 24 23 19 21 30 29 24 24 24 26 19 19 22 21 21 22 20 23
43 42 43 44 44 44 44 45 45 44 46 46 46 47 47 48 42 40 37 41 40 42 32 27 27 23 26 28 27 25 23 19 16 18 28 27 28 29 29 27 24 22 26 30 33 36 33
43 42 42 43 43 44 44 44 44 44 44 45 46 46 47 46 41 37 36 40 42 42 22 28 21 24 25 27 26 22 27 22 18 15 21 24 29 29 29 28 28 27 34 34 37 38 36
41 41 42 43 43 43 44 44 44 44 44 44 46 45 46 41 40 39 41 42 43 33 21 15 23 21 24 26 26 28 27 25 22 17 16 19 25 28 29 32 35 38 38 36 37 38 33
40 41 42 43 42 41 42 42 42 42 43 44 45 44 42 40 35 37 38 39 32 25 20 10 20 23 24 19 23 24 26 19 17 17 18 19 22 31 37 36 37 37 37 32 30 31 29
40 41 41 41 41 41 41 42 42 43 44 43 44 45 42 39 38 37 39 36 25 21 18 17 15 15 14 13 15 21 23 24 21 19 14 17 17 23 34 32 29 34 35 32 25 27 29
40 40 41 41 41 41 41 41 42 42 43 43 42 40 38 38 39 39 38 26 22 18 15 18 14 15 14 11 15 21 24 23 26 22 17 18 17 18 19 28 30 29 30 34 32 35 32
40 41 40 40 41 41 41 41 41 41 42 44 40 37 35 37 40 40 34 27 22 21 23 19 16 17 12 12 17 18 20 31 35 33 24 26 24 22 21 25 28 27 32 31 34 27 27
40 41 41 40 41 41 41 40 41 42 41 42 37 35 34 36 44 37 27 27 25 25 23 20 19 18 21 22 18 18 28 33 30 27 29 31 29 25 25 25 26 29 29 36 37 33 32
40 41 40 41 41 41 41 41 41 40 42 41 38 29 39 39 33 34 29 29 30 25 26 23 23 17 19 22 22 22 21 27 25 25 28 30 29 24 22 23 26 31 33 34 33 33 32
40 40 40 39 40 41 41 41 40 41 41 41 34 30 36 42 26 30 33 28 28 27 26 22 20 22 21 20 21 22 24 30 27 26 26 26 27 26 26 31 31 30 32 34 37 35 34
39 39 39 40 41 41 42 42 41 41 41 40 35 21 29 36 36 32 27 26 26 26 24 24 21 21 20 20 21 20 21 26 28 28 35 31 27 28 28 34 36 36 34 34 36 34 31
40 40 40 40 40 41 41 42 42 41 42 39 35 25 33 26 29 32 30 32 31 28 25 23 21 20 20 20 20 20 23 24 28 34 29 28 27 30 30 28 28 37 33 38 37 37 34
39 39 40 40 40 41 42 43 43 42 42 38 32 26 28 29 29 31 28 27 24 24 23 28 27 26 25 20 21 21 29 27 27 32 32 30 25 27 26 25 23 26 31 34 34 37 37
38 39 40 40 41 41 42 44 44 43 41 37 37 34 31 29 26 28 27 29 26 26 26 24 30 32 29 32 36 34 34 34 34 33 32 31 29 25 23 25 28 27 27 26 30 37 36
37 38 39 41 41 41 43 44 45 43 42 36 36 31 27 22 24 23 23 23 25 27 28 26 33 33 34 39 37 35 33 33 35 34 34 31 28 27 25 26 21 28 28 26 27 26 25
39 39 41 41 42 43 44 44 45 44 43 38 36 34 30 21 24 23 23 23 23 28 29 29 31 35 39 37 34 30 26 27 29 33 32 32 28 24 23 24 24 21 22 21 22 21 27
39 40 41 42 43 44 44 45 45 45 44 40 37 37 34 30 25 24 23 24 25 24 26 27 38 39 38 35 33 25 20 23 21 23 28 29 30 27 25 24 19 24 27 30 28 26 33
39 40 41 42 43 44 44 45 45 45 45 42 37 38 36 31 29 30 28 28 30 30 28 29 34 35 37 32 29 23 22 23 22 25 25 25 26 25 24 25 27 27 33 34 25 32 37
41 42 43 43 44 44 44 44 45 45 45 44 39 40 36 34 31 31 31 30 31 31 30 33 31 34 34 24 26 24 23 26 27 30 32 26 25 25 26 23 21 31 33 31 39 38 36
42 42 42 43 44 44 44 45 45 45 45 45 38 39 42 35 31 35 34 34 33 32 33 36 33 35 36 31 29 29 26 29 28 27 34 31 29 28 26 26 38 42 41 42 41 41 38

GFSGBSN_sfc_dewp_084.txt.gz
Dewpoint
48 48 49 49 49 49 49 49 49 50 50 49 49 48 48 48 48 49 51 51 51 49 49 49 49 50 46 40 37 30 58 59 57 50 40 34 22 21 24 25 28 27 27 27 24 21 19
48 48 48 48 49 48 48 48 49 49 50 49 50 49 47 47 47 49 50 51 50 50 49 49 49 50 44 35 26 25 27 37 49 42 37 36 31 27 30 29 26 26 26 25 23 21 19
47 47 47 48 48 48 49 49 49 49 49 49 49 49 48 47 48 48 50 50 50 50 49 48 49 46 41 35 30 27 31 28 30 35 33 37 36 33 33 30 30 28 25 24 23 21 20
47 46 46 46 47 47 47 47 47 47 48 48 47 48 49 49 49 49 49 49 49 49 49 48 49 46 37 39 39 38 34 29 26 22 22 24 24 31 33 33 31 27 26 22 23 23 21
47 47 46 45 46 47 47 48 47 46 46 48 47 49 49 48 48 49 49 49 49 49 49 49 48 45 36 43 40 38 34 28 22 20 24 22 26 16 29 29 28 27 23 23 23 24 23
44 44 47 46 45 45 46 46 48 48 48 48 47 47 48 48 48 48 48 48 46 49 47 47 45 42 39 30 30 26 29 30 34 33 23 24 21 13 25 26 25 25 24 23 22 23 23
45 45 46 46 46 46 45 45 45 47 47 47 47 46 47 48 48 48 45 41 35 35 39 40 39 39 35 37 31 23 21 23 34 26 19 23 16 13 16 24 27 26 25 24 23 23 26
43 44 45 45 45 45 44 44 44 46 46 46 47 46 46 47 48 47 44 40 39 40 33 35 35 36 39 39 35 33 24 19 34 26 22 19 14 15 19 20 21 22 20 18 19 22 32
44 43 42 42 43 43 44 45 45 45 45 45 46 46 45 47 47 44 35 37 40 42 34 33 33 32 31 29 32 31 23 21 21 30 26 19 20 19 17 17 15 15 19 20 21 31 32
43 44 43 42 43 43 44 44 44 44 44 44 46 46 47 47 37 39 33 38 40 42 30 27 31 29 29 28 25 24 25 20 17 17 29 29 27 25 27 27 26 23 24 27 30 35 30
39 40 41 42 43 44 43 43 44 44 44 44 44 45 46 45 40 38 37 39 37 42 17 25 27 29 28 27 25 24 25 23 16 15 23 24 29 29 28 28 27 28 38 36 36 35 35
40 41 41 42 42 43 42 42 42 43 43 43 44 44 46 41 38 40 38 36 40 31 18 24 24 21 25 27 26 28 26 23 22 19 17 18 22 29 28 34 33 38 37 37 37 35 28
41 40 40 41 42 42 42 41 42 42 42 43 44 43 43 41 37 38 38 37 29 21 22 20 22 21 26 25 24 27 23 19 17 16 16 18 18 31 36 36 38 37 34 29 29 29 24
40 40 41 41 40 41 41 41 41 42 42 42 43 43 42 40 40 39 37 35 20 20 20 19 20 25 24 22 24 26 25 20 20 19 17 17 15 30 34 30 32 35 35 30 25 25 27
39 39 39 40 40 41 41 41 41 41 42 42 42 39 39 37 39 39 36 25 21 21 23 21 21 14 16 17 15 23 26 25 24 19 15 16 15 19 32 31 30 34 32 34 33 35 30
38 39 40 41 41 41 41 41 41 41 41 42 37 36 36 36 39 39 32 24 23 24 24 23 19 20 19 22 20 18 28 33 34 28 24 26 24 26 24 28 31 30 36 34 35 26 26
39 40 40 41 40 40 41 41 41 40 41 42 36 33 35 38 41 36 26 26 25 26 27 25 21 17 17 19 20 20 31 33 27 25 31 32 29 28 28 25 26 28 33 36 36 33 28
38 39 41 40 40 40 40 41 41 42 41 39 35 28 38 41 28 30 25 28 30 26 27 27 26 23 19 21 21 22 25 25 24 27 28 29 27 27 25 25 27 28 31 35 33 32 33
38 39 39 39 39 40 41 41 42 41 40 37 33 32 36 40 24 25 30 27 26 25 26 26 25 25 23 22 19 24 26 31 27 27 24 25 31 25 26 30 36 35 33 34 35 35 32
37 40 38 39 39 41 41 42 42 42 41 38 33 27 28 35 34 31 31 28 27 28 27 25 24 25 22 22 23 22 22 26 28 29 36 30 26 28 26 29 36 34 34 37 38 34 31
38 37 39 39 39 40 41 41 42 42 40 37 32 25 30 26 30 31 32 33 30 27 30 29 25 24 23 21 20 20 23 27 29 36 30 27 23 28 30 31 29 29 32 36 35 37 35
38 37 39 38 39 40 40 41 42 43 41 37 29 26 29 27 29 30 31 28 25 24 26 24 28 30 31 28 31 31 30 28 27 31 32 33 26 27 25 26 25 26 25 36 37 36 36
36 38 38 38 39 40 41 41 42 44 42 36 36 34 30 25 25 25 28 24 25 29 29 28 26 32 32 33 35 33 35 34 33 31 30 30 30 27 24 26 25 25 28 30 35 36 36
39 39 37 39 40 41 42 42 43 44 42 35 33 31 27 22 23 21 21 22 23 25 29 29 32 32 33 38 36 35 33 33 33 33 33 30 30 31 26 25 18 23 22 23 30 31 37
39 37 37 39 40 41 42 43 44 44 43 40 34 33 31 18 25 23 23 22 26 26 28 28 29 35 38 36 31 27 25 26 28 33 33 33 29 23 22 22 22 15 18 26 23 31 34
36 36 37 39 41 41 43 43 44 44 45 42 37 36 33 29 22 25 27 27 24 25 27 27 39 39 37 33 30 22 22 23 22 24 32 32 31 26 23 22 17 23 26 30 31 31 36
37 37 38 39 41 42 43 43 44 44 44 43 39 37 33 30 29 29 26 27 31 30 28 31 33 33 34 30 28 23 22 25 21 24 24 26 25 25 23 21 25 28 36 35 27 31 37
37 37 39 40 41 42 43 44 44 45 44 44 40 38 34 29 29 31 31 29 30 33 30 33 28 30 33 26 25 24 22 25 25 27 27 28 27 24 24 22 20 38 37 32 37 37 37
37 38 40 41 42 43 43 44 44 45 45 45 39 40 40 33 30 34 33 33 31 31 31 35 33 34 36 33 30 30 24 25 27 24 34 29 33 28 26 24 38 40 40 40 40 39 38

GFSGBSN_sfc_dewp_090.txt.gz
Dewpoint
48 47 47 47 48 48 48 47 47 47 47 47 48 48 49 48 48 47 48 48 47 46 47 47 48 47 44 38 31 26 44 38 54 48 39 30 24 25 24 26 31 29 30 28 28 26 26
47 46 46 46 45 46 46 46 46 46 47 47 46 47 47 48 48 47 48 48 48 48 46 47 47 47 41 34 29 27 30 30 41 46 40 32 28 25 23 20 27 29 30 29 29 28 28
45 46 46 45 45 45 45 46 46 47 46 45 45 46 48 48 47 47 47 48 48 48 48 47 48 45 39 35 34 32 34 32 29 38 41 39 33 28 24 23 27 23 24 27 28 26 25
44 44 44 47 45 45 46 46 46 45 45 45 46 46 48 48 48 48 48 48 47 47 49 50 48 43 37 39 39 38 38 36 35 34 36 37 37 35 34 34 32 29 27 25 26 26 25
42 43 43 45 46 46 45 45 44 45 45 45 46 46 47 48 48 48 48 47 47 48 49 48 44 42 36 42 38 39 39 33 32 31 28 26 24 22 25 27 25 28 26 24 24 24 24
43 43 44 44 45 45 44 43 44 45 45 44 44 45 45 47 48 47 47 46 46 47 46 46 43 38 35 27 37 37 39 35 30 26 23 20 22 17 22 26 20 25 25 25 24 24 23
42 42 42 42 42 42 42 42 44 44 43 44 44 45 45 45 46 46 44 38 34 33 36 34 35 35 37 38 38 36 36 29 30 25 18 21 18 16 20 23 25 28 26 24 24 25 21
41 44 41 42 43 41 41 42 43 43 43 43 44 44 44 45 45 46 36 30 34 37 32 35 36 36 36 35 33 32 35 23 32 26 21 18 17 18 18 21 24 25 25 24 23 21 29
41 39 40 41 41 41 42 42 43 43 43 43 43 44 44 45 45 39 37 33 36 36 34 33 33 32 34 36 34 31 32 28 30 27 21 19 19 21 18 17 18 19 20 18 18 27 27
37 37 37 39 40 40 41 42 43 42 42 42 42 43 44 45 37 38 34 34 37 37 29 25 31 32 31 33 32 31 30 22 18 30 28 23 22 19 17 16 15 13 18 20 28 26 22
37 37 37 39 39 41 41 42 42 41 41 42 42 43 43 43 38 36 35 38 36 41 15 15 27 33 31 27 21 29 30 21 17 19 28 26 28 26 21 19 19 23 32 31 34 31 31
41 40 39 39 40 41 40 41 41 42 42 42 41 42 43 40 37 37 38 38 38 29 13 20 32 27 26 25 26 25 24 23 20 18 20 25 21 25 28 38 31 38 32 35 36 32 25
39 40 38 39 40 40 40 41 41 41 41 42 41 41 41 40 34 37 39 34 25 18 17 19 25 24 24 25 25 23 21 20 17 15 16 16 16 28 36 36 36 31 27 21 17 23 20
37 38 38 37 38 40 41 40 41 41 41 42 41 42 41 38 38 38 35 28 16 13 17 27 26 27 24 25 25 26 21 18 19 17 16 13 10 25 34 29 32 32 27 23 17 23 25
39 36 36 37 40 40 40 40 41 41 41 41 41 36 35 37 38 38 31 19 15 20 26 29 29 26 23 20 21 26 21 19 19 18 16 14 14 26 33 34 30 34 29 31 27 28 24
37 35 36 39 39 41 40 40 41 41 41 41 35 34 33 37 39 35 27 18 22 23 23 32 28 29 22 18 21 25 28 32 29 24 23 24 20 27 30 30 34 30 34 27 31 25 22
35 37 38 37 40 41 40 39 41 41 42 41 33 29 32 39 41 34 18 20 22 24 26 32 30 30 27 19 22 30 30 30 29 31 31 31 26 28 27 27 30 32 32 33 32 30 25
36 36 37 37 39 39 39 39 41 42 41 37 33 23 33 40 27 30 18 24 25 25 25 29 34 33 31 25 23 29 28 30 30 30 27 29 30 27 27 33 30 30 33 32 26 25 32
35 36 38 37 39 38 38 40 41 42 39 34 29 29 35 39 23 24 24 25 25 23 20 22 30 34 32 29 25 25 30 32 33 27 27 24 28 19 28 31 31 33 35 35 36 34 30
35 38 37 37 38 37 38 39 40 41 41 35 30 22 25 35 34 27 27 24 22 28 23 31 30 33 33 27 28 28 27 31 34 32 37 32 28 22 20 22 31 31 31 33 34 30 31
36 39 35 37 37 38 37 38 40 41 41 37 31 22 28 20 24 27 28 29 28 30 29 32 33 33 32 29 27 29 30 29 29 34 33 28 23 26 26 27 29 28 28 30 33 32 30
37 37 34 36 37 37 39 39 40 41 41 37 28 26 27 26 26 25 25 26 26 26 32 29 27 29 31 29 30 28 29 30 31 30 30 31 27 26 25 25 25 24 24 25 25 27 31
37 37 36 36 36 38 36 38 40 42 42 37 36 35 29 23 22 22 24 21 22 25 31 29 28 30 28 31 32 32 32 32 32 31 28 29 27 24 20 26 23 19 23 18 17 34 34
38 34 36 37 39 39 37 39 42 43 42 39 37 36 29 18 23 21 22 23 23 24 27 27 30 30 34 37 35 34 34 34 34 33 32 29 27 27 24 24 13 18 19 20 26 27 36
37 35 37 38 39 35 37 40 42 42 43 40 39 36 30 17 23 23 24 23 24 28 28 28 34 36 37 34 27 24 24 23 24 28 30 30 28 23 21 21 19 18 22 29 27 24 34
37 36 37 40 34 36 37 40 41 42 43 42 38 39 35 23 20 25 25 26 26 27 27 30 34 36 34 30 27 23 19 22 21 22 32 31 28 25 23 19 12 19 27 35 32 17 38
36 36 38 40 35 37 38 39 41 42 43 43 40 38 36 28 27 27 24 26 29 27 27 30 29 32 32 28 25 24 23 25 19 21 23 27 27 25 23 20 23 27 37 36 22 24 37
36 37 39 39 37 37 37 39 41 41 43 43 41 39 36 29 26 28 28 25 27 28 23 27 26 27 31 26 26 25 23 24 25 25 25 24 23 23 25 23 19 37 35 28 35 38 37
37 38 39 37 37 37 38 39 41 42 42 43 40 40 40 35 30 33 30 29 30 30 28 29 28 28 34 26 27 29 27 25 26 22 31 20 29 29 28 26 36 36 34 35 36 35 36

GFSGBSN_sfc_dewp_093.txt.gz
Dewpoint
47 46 46 46 46 45 45 45 46 46 46 45 45 45 46 48 48 47 47 48 46 46 46 46 47 47 42 38 33 26 43 39 50 49 36 32 32 32 28 30 31 31 28 28 26 24 25
47 45 45 45 45 45 45 46 46 46 45 45 45 46 47 47 46 46 46 47 48 47 46 46 47 47 41 32 30 31 31 32 28 46 39 33 28 29 25 23 27 29 29 26 26 28 29
46 46 48 46 45 45 46 45 45 44 44 44 45 46 46 46 46 46 46 47 48 47 47 48 50 45 39 34 33 32 31 31 30 26 34 37 32 26 26 24 25 24 21 22 26 27 28
44 43 43 44 47 46 45 44 44 44 45 44 44 44 45 45 46 46 46 47 47 48 47 50 49 44 37 39 39 37 37 36 37 33 27 28 39 31 32 32 31 29 26 23 25 21 24
41 42 42 44 44 44 44 43 44 45 44 44 44 44 44 46 46 47 47 47 47 45 49 47 44 42 36 42 38 38 39 34 31 33 31 28 33 32 30 29 22 28 23 26 26 26 25
43 42 43 44 43 42 41 41 43 44 43 43 43 44 44 45 46 46 47 45 43 47 43 45 42 38 36 29 37 36 39 37 31 30 26 26 23 22 21 23 18 21 26 26 25 25 24
42 42 41 41 41 41 41 41 43 43 43 43 43 43 43 43 44 46 41 33 32 32 33 30 29 33 33 30 30 31 35 32 34 25 17 22 19 18 19 23 21 25 25 24 25 26 25
41 43 42 40 41 41 41 41 42 43 43 42 42 42 43 43 43 44 38 31 32 34 31 33 33 33 33 30 28 27 29 30 28 25 20 19 18 19 21 22 22 23 21 22 25 26 25
40 38 38 38 40 40 40 41 42 42 41 42 42 42 43 43 43 40 38 34 37 36 32 30 31 30 30 33 32 30 32 30 26 30 23 13 15 20 19 18 20 20 20 22 20 23 26
36 36 36 38 39 40 41 41 41 42 41 42 42 42 43 44 36 38 35 35 38 38 27 23 28 31 31 34 32 34 28 27 18 29 28 25 20 19 19 17 17 16 19 19 18 22 17
35 36 36 38 38 40 40 40 41 41 41 41 41 41 41 42 39 34 35 39 39 39 10 15 25 34 32 29 26 30 30 26 18 28 29 26 28 21 19 17 18 15 21 20 30 28 30
38 37 38 38 40 40 40 40 40 41 41 41 41 41 42 39 39 38 39 39 37 23 8 15 25 28 29 27 25 28 27 27 23 21 23 25 23 26 23 36 20 35 33 35 35 32 23
37 39 39 36 38 38 40 41 40 41 41 41 42 42 40 40 34 38 39 34 21 13 14 17 24 24 29 28 23 24 23 22 19 19 18 18 17 33 37 34 35 30 27 25 20 23 14
37 35 36 36 36 40 40 40 41 41 41 41 42 42 39 38 39 39 35 26 13 7 14 26 26 28 29 26 25 22 22 17 19 18 16 14 14 27 33 33 32 29 27 22 13 19 22
39 37 35 35 39 39 40 40 40 41 42 42 42 37 35 37 39 38 30 17 11 19 25 24 24 27 31 21 22 21 21 18 18 19 15 15 13 29 32 35 31 32 27 29 26 28 24
39 34 35 35 38 39 40 40 40 41 42 42 37 34 32 39 40 37 26 17 16 17 16 25 26 30 28 26 22 25 27 31 27 22 23 20 24 28 33 32 34 30 33 27 30 23 20
35 34 36 37 36 40 39 39 40 42 42 41 34 29 32 40 40 33 22 19 19 19 22 31 27 25 31 29 26 31 31 31 29 29 28 30 28 28 29 26 30 30 30 32 31 28 23
38 34 35 37 37 39 38 39 40 41 41 37 32 22 32 40 28 30 24 25 24 19 21 23 31 31 31 31 30 32 29 29 32 33 27 30 31 27 29 33 33 32 32 30 25 26 28
40 35 35 39 36 39 37 38 39 41 40 35 29 28 33 39 22 23 24 23 24 21 20 19 21 29 34 32 30 35 33 33 34 31 27 29 27 29 29 28 28 30 33 35 35 33 27
39 35 36 38 37 37 37 37 38 40 41 36 28 20 25 32 32 27 24 21 25 28 23 26 31 34 33 32 35 31 33 31 33 35 39 37 28 23 22 25 29 26 26 31 32 28 25
38 36 37 35 37 37 36 37 39 40 42 38 30 21 27 21 24 26 26 26 25 25 35 35 33 33 33 30 30 30 31 31 31 34 34 32 26 26 26 27 29 26 25 25 28 29 28
37 35 38 33 34 37 37 38 38 39 41 37 29 26 28 26 26 24 23 24 24 23 31 31 28 30 31 29 31 28 29 30 29 30 30 31 28 26 21 25 23 21 20 23 25 26 27
36 37 35 34 37 36 38 36 38 39 41 37 36 35 31 23 21 21 23 21 21 23 26 28 28 28 29 32 35 35 33 33 32 32 28 29 27 20 17 24 20 14 20 15 18 20 29
37 35 36 34 36 37 40 37 39 41 42 40 37 36 29 21 21 19 21 22 23 21 25 28 32 31 33 35 36 34 34 33 33 32 33 29 26 26 21 23 11 15 21 21 23 24 33
36 36 35 35 38 40 36 36 39 42 42 41 39 36 31 22 23 21 23 22 24 27 27 29 32 31 35 35 28 22 23 23 26 32 30 31 28 25 19 17 17 17 28 27 25 21 36
35 36 36 35 37 39 35 36 39 41 42 41 38 40 35 27 20 24 24 26 26 27 25 30 34 35 34 30 27 21 19 22 20 25 32 30 30 25 23 15 12 20 30 35 34 15 35
36 36 36 37 38 39 37 37 39 40 41 42 40 40 36 29 27 28 25 26 27 26 23 28 29 31 34 29 27 24 22 24 19 19 24 27 27 23 22 19 20 33 35 34 18 24 34
36 36 36 37 39 39 37 37 39 40 41 42 41 40 37 31 28 28 28 25 24 27 23 27 27 28 29 26 26 26 25 26 25 26 27 24 24 24 23 21 19 35 33 29 35 37 36
35 36 37 37 40 38 37 37 38 40 41 41 39 41 41 36 32 33 32 32 29 29 31 30 30 29 31 26 27 27 25 27 25 22 30 27 32 28 29 30 35 36 34 35 36 34 35

GFSGBSN_sfc_dewp_096.txt.gz
Dewpoint
48 47 47 46 45 45 45 46 46 46 45 45 45 45 46 46 46 46 46 47 46 46 46 46 47 47 43 31 25 10 47 39 22 38 31 27 26 23 23 26 27 26 26 23 23 21 19
47 46 46 46 45 45 45 45 45 44 44 44 44 45 45 45 46 46 46 47 47 47 46 47 48 48 41 29 21 23 24 25 22 38 30 23 25 26 24 26 26 26 26 24 23 22 22
47 47 48 46 45 45 45 44 43 44 44 44 44 44 45 45 45 46 46 46 48 48 47 48 50 47 40 31 24 23 25 24 24 26 34 34 26 24 24 23 24 24 23 24 24 25 25
45 44 44 46 47 45 44 43 43 44 44 43 44 44 44 44 44 45 46 47 48 48 47 49 50 45 35 33 35 33 32 29 28 24 26 24 33 31 27 25 26 22 24 22 24 23 23
44 43 44 45 45 44 41 41 43 43 43 43 43 43 43 45 46 46 46 47 47 45 48 48 44 41 28 37 34 36 36 36 33 28 29 19 22 33 29 26 24 26 21 24 25 25 23
44 44 44 43 42 40 40 41 42 42 43 43 42 42 42 43 45 46 46 46 43 44 40 41 40 37 32 21 29 34 28 37 35 30 26 23 25 26 29 24 20 21 22 23 23 24 26
44 43 42 42 40 39 40 41 42 43 42 42 42 42 42 43 44 45 40 30 22 26 29 21 16 13 14 14 17 20 19 33 32 28 12 19 17 18 20 24 23 21 20 21 22 24 25
43 44 42 40 38 39 39 40 42 41 41 41 42 42 42 43 43 43 36 28 31 33 30 25 24 25 25 26 26 22 21 24 30 25 10 15 12 15 15 19 20 25 25 20 21 25 26
42 40 39 38 38 38 39 40 41 41 41 41 42 42 42 42 43 37 33 31 33 35 29 20 21 25 29 30 28 27 22 18 24 25 15 13 12 13 19 18 22 24 21 19 19 20 22
39 38 38 38 37 40 40 39 40 40 40 41 41 42 42 42 36 32 26 29 35 38 25 9 23 33 36 35 31 30 26 20 22 23 23 15 11 17 20 19 22 18 18 18 19 19 18
39 38 37 37 37 39 39 39 40 40 40 41 41 42 42 41 36 29 29 35 37 39 6 3 22 36 31 34 32 28 30 23 20 23 28 22 19 18 19 15 16 15 15 17 16 14 18
40 40 39 38 40 38 38 40 40 40 41 41 42 42 42 36 35 34 36 38 37 25 2 7 17 22 19 27 26 27 30 26 22 22 29 25 28 22 19 20 19 17 17 21 24 24 24
38 40 39 36 36 35 38 39 40 41 41 42 42 42 40 35 33 39 40 33 18 7 -0 9 17 17 19 27 30 26 26 22 17 22 24 23 21 30 27 28 23 24 25 25 24 24 17
38 37 37 35 35 38 38 40 40 40 41 42 43 41 37 36 39 41 35 22 5 -4 5 19 15 18 29 33 30 24 21 17 18 16 16 16 15 30 33 25 23 25 23 21 12 13 13
38 39 36 35 36 38 39 39 39 40 42 43 42 36 36 39 42 40 31 17 3 6 10 12 14 22 25 24 33 21 17 13 16 19 15 16 13 20 31 32 27 28 26 26 21 26 23
41 38 35 34 37 37 40 39 39 41 42 42 34 33 33 42 43 37 29 17 14 15 16 15 22 24 23 23 30 30 18 14 16 19 20 16 21 21 31 32 32 28 28 26 28 22 19
40 36 34 38 35 37 38 38 39 41 42 40 35 26 33 41 41 34 25 19 20 18 17 18 26 26 26 28 31 33 33 27 29 21 21 19 22 26 29 25 26 28 27 28 26 27 22
40 36 36 36 36 37 38 37 39 41 41 37 36 30 35 42 33 31 24 22 25 22 21 18 27 28 29 30 31 34 34 32 31 29 24 32 26 23 22 31 27 23 23 25 23 26 27
37 37 35 36 39 38 37 37 38 40 40 37 34 28 34 40 26 23 23 20 22 23 24 18 18 25 32 32 30 33 35 34 35 32 29 29 28 26 28 29 29 27 29 30 32 31 28
38 39 36 36 37 38 36 37 37 39 40 37 34 32 28 35 32 26 22 21 24 24 31 30 28 36 34 33 34 33 34 34 36 34 39 34 26 24 22 25 27 29 29 29 28 29 24
41 37 36 39 36 38 38 36 37 39 42 36 34 30 28 29 29 27 25 27 25 27 26 33 30 29 31 29 29 31 33 33 30 36 35 32 24 25 24 23 23 21 19 20 21 22 23
40 39 37 39 36 36 36 37 38 38 41 38 34 28 28 25 26 24 22 25 23 22 28 27 28 30 28 29 31 30 31 31 30 30 31 33 25 21 22 20 17 15 14 14 17 20 21
39 37 37 36 34 35 37 38 36 38 41 38 35 35 32 23 21 21 20 17 19 22 24 27 29 28 28 30 32 33 34 34 32 31 30 26 22 16 17 17 13 13 18 15 18 22 23
37 38 36 36 36 36 37 38 37 39 42 41 38 37 31 24 21 19 20 19 19 20 24 27 29 29 30 33 34 33 34 31 30 31 31 23 19 21 18 16 5 19 20 23 21 27 29
36 37 37 37 35 37 40 40 38 40 42 42 40 38 33 27 21 17 21 22 23 25 25 27 28 30 35 34 27 17 22 23 25 29 28 29 24 21 17 12 14 23 27 26 24 24 32
36 37 37 36 36 38 40 36 37 40 41 43 40 41 37 32 22 22 22 24 23 23 22 25 30 34 35 31 26 20 18 19 18 21 29 28 28 24 21 11 11 27 29 31 30 21 33
37 37 37 37 36 38 40 37 36 40 40 43 41 41 38 34 27 27 24 22 25 22 21 24 27 30 33 31 26 23 20 23 18 17 22 25 27 24 23 19 21 32 31 31 21 30 35
37 37 37 37 37 38 40 37 37 39 40 42 41 41 38 32 29 30 28 26 24 25 24 27 29 29 31 28 24 25 25 26 24 27 26 23 25 26 25 21 17 34 30 29 34 36 35
37 37 37 36 37 39 40 38 37 38 40 42 39 42 42 36 34 36 35 34 31 29 29 31 31 28 31 28 27 27 27 28 25 23 28 28 30 29 29 28 34 33 33 33 34 32 35

GFSGBSN_sfc_dewp_099.txt.gz
Dewpoint
50 49 48 46 45 44 45 45 45 44 44 44 45 45 45 46 46 46 46 46 46 46 46 47 48 49 44 24 19 16 51 45 24 14 22 26 28 24 19 21 25 22 23 24 24 23 22
49 48 47 46 45 44 44 44 44 44 44 44 44 44 44 45 45 44 45 46 48 47 46 47 48 49 41 25 16 15 15 16 17 12 10 22 21 24 21 20 24 25 24 25 25 25 23
48 47 47 46 45 45 44 43 43 44 44 43 44 44 44 44 44 44 44 45 47 48 47 47 48 46 39 26 18 16 15 15 15 14 14 26 22 22 25 24 23 23 25 26 26 26 25
48 47 48 47 47 45 43 42 44 43 42 43 43 43 43 44 44 44 45 47 47 47 46 47 49 44 36 26 23 24 23 21 20 22 19 19 28 26 23 25 24 21 24 23 25 24 25
46 45 45 46 45 43 40 40 42 41 42 43 42 43 43 44 45 46 46 47 47 46 45 49 45 39 33 34 26 26 32 28 30 28 25 16 21 27 28 25 23 22 19 21 21 22 23
45 45 46 45 43 41 40 39 41 41 43 42 42 43 43 43 45 45 46 46 43 44 41 35 35 35 34 24 14 23 28 30 33 34 30 20 15 13 19 23 20 21 21 22 21 22 24
46 45 45 43 42 41 39 39 41 42 41 41 42 43 43 43 44 45 42 26 23 22 28 22 18 22 15 12 16 14 10 9 20 29 26 22 12 8 13 22 22 22 22 26 24 24 25
45 44 44 43 40 40 39 40 40 40 41 41 42 42 43 43 43 44 37 28 27 30 28 25 21 19 19 19 21 25 27 21 12 12 25 18 8 7 14 17 22 23 33 31 28 25 25
44 45 43 41 40 39 39 40 39 40 40 41 41 42 43 43 43 39 30 25 27 32 27 19 15 19 28 32 28 27 27 22 12 14 18 19 8 6 10 13 17 26 30 27 23 21 25
43 42 41 41 40 41 39 38 39 39 40 41 42 42 43 44 39 31 23 28 31 36 23 9 11 28 30 29 29 23 26 21 14 15 22 20 8 10 11 12 15 18 24 23 21 25 24
42 41 41 40 39 40 39 39 39 39 41 42 42 42 43 43 36 28 30 34 35 38 9 3 18 31 25 14 16 20 30 25 14 14 19 21 8 12 13 15 18 17 20 22 24 20 19
41 41 40 40 41 40 38 39 38 40 41 41 42 42 43 35 35 33 37 38 35 26 7 -1 13 10 9 12 23 26 29 29 17 12 16 20 17 16 14 16 18 21 18 17 17 15 15
41 41 41 40 39 37 39 39 39 40 41 42 43 43 40 34 33 37 40 33 18 4 -3 -4 5 7 8 30 29 29 27 26 13 10 20 27 31 18 17 19 23 20 19 20 18 18 17
41 41 41 38 37 38 39 39 39 40 41 42 43 43 39 34 38 41 36 25 10 4 5 5 9 9 19 29 27 33 26 19 15 16 23 26 26 21 25 21 21 20 19 25 17 19 18
40 39 38 38 38 40 39 39 38 39 42 43 43 37 36 40 42 39 29 19 7 8 8 11 11 13 24 25 28 32 26 16 13 14 28 27 17 27 26 22 20 21 21 25 28 24 21
40 40 38 37 39 39 40 39 38 40 42 42 35 32 32 41 43 37 30 17 15 15 16 15 18 24 24 23 28 28 14 14 14 20 27 19 23 20 24 28 24 23 23 24 27 14 12
41 40 37 37 39 39 39 38 38 40 42 41 37 27 34 41 41 32 29 19 19 18 18 18 20 20 25 28 28 28 32 12 19 15 19 18 25 19 24 26 22 24 25 25 23 22 23
41 38 38 39 37 37 40 37 38 40 42 40 36 34 35 40 37 33 25 21 25 19 21 21 21 30 30 31 30 32 35 36 30 28 16 20 24 20 21 21 30 22 26 23 25 23 23
41 38 37 37 37 39 38 37 37 39 41 35 34 27 35 38 32 26 23 22 23 23 26 27 29 31 33 32 30 33 34 36 35 34 28 30 25 20 24 25 30 27 28 23 28 29 26
38 38 36 36 40 38 38 37 37 39 42 38 34 35 28 33 32 27 25 23 25 25 27 32 36 35 34 32 31 32 33 35 35 34 40 37 28 20 20 22 23 27 24 25 26 25 22
38 41 38 36 39 37 38 39 37 39 41 39 35 32 28 32 32 27 26 27 26 26 25 27 27 26 27 30 29 29 31 34 34 35 37 35 32 33 25 20 22 25 27 27 26 22 22
39 41 38 39 38 38 38 36 38 38 41 36 34 29 27 25 24 24 24 26 22 20 24 25 26 25 26 25 26 27 27 30 34 34 34 33 24 24 20 21 20 17 15 14 15 17 19
41 40 38 39 37 36 37 38 37 37 41 36 33 32 30 24 18 21 21 17 18 21 23 25 25 26 25 26 29 31 32 32 32 30 29 26 23 22 17 13 12 18 16 13 17 22 22
41 39 39 38 36 35 37 39 37 38 41 37 34 33 30 26 20 15 16 17 16 18 23 25 27 26 27 31 32 29 32 30 27 29 29 25 18 20 18 15 12 20 23 21 24 27 28
39 39 38 37 37 37 37 38 38 39 41 44 40 37 32 28 20 18 19 19 21 21 23 23 25 27 32 32 26 19 23 25 21 25 25 27 23 20 17 15 19 21 25 26 24 30 30
36 38 37 38 37 36 40 40 39 39 40 44 40 40 37 32 25 20 23 20 20 19 20 22 27 32 33 28 25 18 18 19 16 18 23 24 25 24 21 11 16 32 29 29 28 28 33
39 37 38 39 36 37 40 39 37 39 40 43 42 42 39 35 27 26 24 25 25 21 19 22 27 30 32 31 28 21 22 19 20 18 20 23 25 24 23 19 26 32 31 31 23 30 35
39 39 39 38 37 38 40 40 37 38 40 41 42 42 39 34 30 30 30 27 26 24 24 26 28 30 31 28 24 25 26 24 25 23 24 26 27 26 26 21 22 31 30 29 32 35 35
40 40 39 39 38 38 39 39 38 38 40 40 39 43 43 37 33 37 36 36 34 31 29 27 29 28 30 28 27 28 28 28 24 28 26 28 30 28 29 28 32 32 31 32 33 32 35

GFSGBSN_sfc_dewp_102.txt.gz
Dewpoint
51 51 50 49 47 46 46 46 44 43 44 44 44 45 45 45 45 45 45 45 45 45 44 45 46 47 43 26 23 18 54 49 30 20 16 8 16 23 25 19 16 20 26 26 26 25 24
51 50 49 47 46 46 46 45 43 43 43 43 44 44 44 44 44 45 45 46 47 45 46 46 46 48 39 27 22 14 14 19 12 12 12 10 8 16 20 23 21 20 20 24 24 24 24
50 49 48 47 46 46 46 43 43 43 42 42 43 43 44 44 44 45 45 45 48 47 46 47 47 43 35 28 23 25 23 17 11 11 10 10 10 15 18 18 20 22 18 20 24 24 23
50 48 48 47 46 46 45 42 43 42 41 43 42 43 43 44 44 44 45 47 47 47 46 47 47 42 33 32 32 27 23 18 19 18 15 12 12 13 21 19 17 20 22 19 21 23 25
49 49 49 48 48 46 43 41 42 41 42 42 42 43 43 44 45 46 46 47 47 48 47 48 44 41 34 38 31 27 23 24 26 23 22 17 17 15 17 22 19 19 19 20 21 22 24
50 48 47 47 46 44 42 41 41 41 41 41 42 42 43 44 45 46 46 46 46 46 40 33 37 32 33 30 24 15 15 13 26 25 26 28 22 15 13 21 19 16 18 19 20 21 23
49 48 47 46 44 42 42 41 42 41 41 41 41 42 43 44 44 46 43 28 20 21 23 19 17 18 17 17 17 15 16 15 11 8 9 21 24 19 10 14 17 18 17 18 20 31 29
48 48 48 45 43 42 41 41 41 40 40 41 41 42 43 44 44 46 41 22 21 25 24 21 19 19 18 17 14 17 22 22 24 15 5 12 24 24 12 6 7 14 20 21 30 31 31
48 48 47 45 42 42 41 41 40 39 39 40 42 42 43 44 45 41 30 25 26 30 23 20 17 16 28 32 31 20 25 25 27 23 16 6 14 27 14 8 3 11 16 27 27 32 37
48 47 46 44 42 42 42 40 39 39 39 41 42 42 43 45 41 33 25 30 31 35 24 11 19 32 33 19 10 14 21 18 26 22 17 4 5 20 14 6 3 11 15 27 28 34 30
47 47 44 43 42 42 40 40 39 39 40 41 42 42 43 43 39 30 30 34 36 34 13 2 -1 16 7 4 5 6 25 30 29 17 11 6 9 19 18 3 4 11 18 25 24 29 30
46 44 43 42 41 42 40 41 39 40 41 41 42 43 44 36 40 34 36 39 38 27 7 2 3 5 8 10 15 26 31 32 31 17 9 5 13 30 21 14 8 15 28 28 28 26 28
44 43 43 41 42 41 40 40 39 40 41 42 43 44 41 35 33 38 41 36 25 10 5 4 9 12 13 19 28 25 30 33 31 17 9 13 18 26 18 16 18 22 25 21 22 26 21
43 43 43 41 41 39 40 40 40 39 41 42 43 44 42 34 39 42 39 30 6 8 9 12 13 14 18 31 26 27 30 29 23 9 8 11 29 32 26 14 17 20 22 24 13 15 14
42 43 42 41 39 39 40 40 39 39 41 43 43 40 38 40 42 41 34 18 11 12 12 13 14 17 21 22 28 31 28 27 11 9 17 31 32 28 21 18 22 19 19 25 35 31 31
42 42 41 39 39 41 40 40 38 39 41 42 37 32 32 40 43 40 30 17 15 15 15 16 19 20 23 26 28 26 29 15 10 18 31 31 30 24 25 23 23 23 24 27 33 28 26
41 40 40 39 39 40 40 39 38 40 41 42 40 29 37 39 43 32 30 19 18 18 21 21 23 25 26 29 30 30 29 34 33 30 30 30 29 23 30 34 25 24 29 32 32 27 26
42 42 40 38 40 39 40 39 37 39 42 41 36 33 36 41 37 34 24 21 27 21 25 25 26 28 31 32 30 32 31 35 38 33 30 23 28 22 19 33 31 28 29 28 31 20 30
42 41 38 39 39 38 40 38 37 39 42 39 33 30 37 39 31 25 22 21 22 22 23 27 27 30 35 32 29 33 33 34 35 35 35 35 27 28 23 23 34 29 29 28 30 35 27
42 39 39 39 38 39 39 38 36 38 41 39 33 35 30 32 33 26 24 23 23 23 24 26 26 31 30 33 27 30 32 36 35 36 39 39 32 30 23 23 32 33 35 34 29 30 26
41 40 38 38 40 38 39 38 36 38 41 40 35 34 28 31 30 25 25 25 24 22 21 23 23 23 23 31 25 26 28 33 32 37 36 36 33 33 32 30 28 32 34 32 25 23 31
40 41 40 38 40 38 38 38 36 38 41 37 34 31 27 24 23 23 23 24 20 17 20 20 22 23 23 23 24 26 27 30 31 35 35 34 33 32 31 27 30 26 21 21 19 23 25
39 41 41 38 39 39 38 36 37 37 39 33 31 31 29 28 19 19 20 17 16 18 20 20 21 24 24 23 27 30 31 32 33 35 32 31 27 29 17 17 19 22 19 23 26 26 30
39 41 39 40 39 37 37 38 37 37 39 40 32 31 30 28 19 15 15 15 16 17 19 20 22 24 25 28 31 30 29 29 26 26 27 29 26 24 19 19 21 24 28 31 29 29 27
41 41 40 39 38 36 37 38 38 37 39 41 40 36 33 29 22 17 17 19 19 19 19 19 22 26 29 30 26 26 25 30 22 23 23 26 28 25 24 20 24 26 28 29 33 32 32
42 40 39 38 38 38 37 38 40 38 40 41 40 39 35 31 29 21 20 24 22 19 19 20 25 31 32 28 27 23 18 17 18 19 20 23 30 29 25 17 22 28 28 30 30 27 33
41 40 39 38 39 37 40 40 38 38 40 41 43 41 37 34 29 28 24 24 24 24 22 24 24 28 30 30 27 24 28 21 22 20 23 27 29 26 25 22 26 28 29 30 25 27 34
40 40 40 39 38 38 40 40 37 36 40 40 43 42 37 33 29 30 29 29 26 24 26 26 27 31 30 29 23 23 24 23 25 25 23 25 27 26 27 24 22 30 28 26 31 34 35
40 40 41 40 38 40 40 40 40 37 40 39 40 43 43 37 33 37 35 35 33 32 30 29 29 30 30 28 28 26 27 30 23 27 26 28 28 26 27 26 32 31 31 35 35 32 35

GFSGBSN_sfc_dewp_105.txt.gz
Dewpoint
55 53 52 50 49 48 46 46 45 43 44 44 44 45 45 45 45 45 45 45 46 46 46 46 47 46 44 37 37 32 54 54 42 29 19 15 10 9 17 26 26 19 13 14 20 26 26
54 53 51 50 49 47 46 46 44 44 44 43 44 44 44 44 44 45 45 45 45 46 46 47 47 46 43 31 26 21 29 37 33 26 22 19 16 10 7 9 18 24 21 17 17 21 26
53 52 51 49 48 47 46 45 44 44 43 42 44 43 44 44 45 45 45 45 47 46 47 47 47 43 38 31 25 24 28 30 28 20 15 12 13 10 10 11 15 16 17 19 21 18 18
53 51 50 49 48 47 47 45 44 44 42 43 43 43 44 44 45 45 45 47 48 47 47 48 47 42 35 32 33 33 33 28 25 23 19 19 19 16 11 13 12 15 17 13 17 21 19
53 52 49 49 48 48 47 44 44 43 42 42 42 43 44 44 46 47 47 47 48 49 49 49 44 42 36 40 34 32 19 16 16 16 27 22 18 15 14 11 10 13 15 13 15 21 20
53 50 49 49 49 48 46 44 44 42 43 41 42 43 43 44 46 47 47 48 47 48 40 38 36 35 34 26 18 19 18 16 16 16 14 18 21 19 14 12 9 10 17 17 15 19 21
52 50 51 50 49 48 45 44 44 43 42 42 41 43 43 44 45 46 45 35 21 22 23 18 16 18 19 19 20 19 17 17 17 18 14 12 7 14 26 15 13 11 16 18 16 18 31
52 51 50 49 48 46 44 43 43 42 41 41 42 43 43 44 45 46 43 24 24 25 26 26 23 20 20 20 22 20 25 24 24 20 25 25 10 6 9 27 19 11 12 14 16 21 36
51 50 49 48 47 45 44 43 43 41 40 41 42 43 43 44 45 44 33 29 31 33 26 24 21 16 30 32 23 17 13 22 21 27 23 24 27 15 5 17 28 18 7 7 8 33 38
50 50 49 48 46 44 43 42 42 40 39 41 42 43 44 45 42 37 29 33 35 35 24 11 6 22 22 20 12 10 11 26 24 22 25 28 28 26 17 21 29 11 8 5 7 32 31
50 49 48 47 45 44 43 43 41 40 39 41 42 43 44 44 39 35 34 38 37 36 11 7 7 17 16 16 19 24 27 26 28 29 28 29 21 16 11 6 25 23 13 9 11 33 32
49 48 47 46 45 44 43 41 41 39 40 41 42 44 44 41 41 38 40 41 39 25 9 9 12 14 17 22 25 26 26 31 30 29 30 31 19 14 24 26 27 28 31 33 34 30 24
48 47 47 46 44 44 42 41 41 40 40 41 43 44 43 40 34 39 41 38 25 9 11 9 13 15 18 22 26 27 29 30 30 25 25 24 13 10 26 27 30 28 25 24 26 24 21
47 47 46 44 43 43 41 42 40 40 40 41 43 45 42 39 40 42 40 31 13 12 12 14 15 17 21 26 27 27 27 30 32 29 23 12 18 22 25 24 27 28 27 24 18 20 20
46 46 44 43 43 42 40 41 40 39 40 42 43 41 41 42 40 41 35 19 14 13 14 17 18 19 22 25 28 28 26 30 30 30 20 25 27 29 32 31 28 24 25 29 29 33 24
44 44 44 43 42 40 42 40 40 38 40 42 39 40 37 38 41 40 31 20 17 17 19 20 22 23 22 25 26 27 25 25 35 35 36 32 26 31 28 25 24 20 27 22 30 24 24
44 45 43 42 40 42 41 41 39 38 40 42 38 35 38 39 42 36 23 19 21 19 24 24 25 26 26 29 28 28 27 28 32 35 36 34 33 29 30 33 23 25 33 33 33 31 26
44 44 42 41 41 42 40 40 37 38 41 41 39 30 37 40 31 30 24 23 27 22 25 27 29 29 30 31 28 27 27 31 33 37 36 35 32 26 25 32 32 32 31 34 29 31 33
43 42 41 40 40 40 41 40 37 37 41 39 35 33 38 39 22 23 24 23 24 23 23 25 29 30 33 32 24 28 28 31 34 35 34 36 30 27 30 30 37 34 31 32 32 34 32
42 43 41 39 41 39 40 39 37 37 40 39 36 28 33 34 33 27 24 25 24 26 22 24 25 28 29 30 29 25 28 30 35 34 40 39 33 31 27 32 33 32 33 35 36 31 31
43 42 41 40 38 39 40 38 37 36 40 39 34 28 28 25 28 25 25 26 25 24 21 23 24 23 24 30 24 24 27 29 33 37 36 36 32 33 34 34 33 35 35 35 32 34 33
42 42 41 40 40 40 40 38 37 37 40 37 26 31 28 24 25 23 27 24 22 18 20 22 21 22 24 24 24 23 25 30 33 36 35 35 32 34 33 33 33 33 31 28 32 37 36
41 40 40 40 41 39 39 37 37 37 39 35 33 33 30 29 24 22 22 18 18 21 23 19 20 23 23 25 26 27 28 32 34 34 31 34 32 31 28 26 28 29 30 29 30 31 31
41 41 39 38 40 39 39 37 37 36 38 39 36 32 28 25 25 18 18 19 19 19 21 22 23 25 27 29 30 31 32 35 35 31 32 28 29 29 23 26 23 29 31 32 30 30 31
41 41 40 40 40 39 38 39 37 37 39 39 40 35 32 23 25 22 21 23 26 24 22 23 26 28 29 30 29 27 28 29 27 28 27 28 29 27 26 26 29 26 26 28 31 29 31
40 40 39 40 40 40 40 40 39 38 39 39 40 39 34 27 28 29 22 26 22 23 24 26 28 29 32 29 29 26 23 22 26 28 26 30 32 30 28 24 22 25 27 29 30 23 33
41 42 41 40 41 40 40 39 40 39 40 40 40 40 36 26 30 30 27 27 27 25 24 28 28 31 31 27 27 25 27 24 24 24 26 26 27 25 26 26 24 28 29 29 23 24 35
42 41 41 41 41 40 40 40 39 38 39 39 40 41 38 34 32 34 34 31 30 28 25 27 27 28 28 26 25 24 26 26 28 28 26 26 27 24 25 22 18 29 27 24 31 34 35
41 41 41 41 40 40 41 40 38 37 39 39 39 41 40 34 32 37 36 36 34 32 31 30 29 31 32 25 26 27 25 27 27 26 29 26 29 25 26 25 32 31 31 34 35 34 35

GFSGBSN_sfc_dewp_108.txt.gz
Dewpoint
55 55 55 54 52 51 49 48 48 45 44 45 44 45 46 45 46 46 46 47 46 46 46 47 47 47 43 32 30 34 50 47 46 31 24 20 15 12 14 30 27 17 15 11 11 13 18
55 56 55 54 53 51 49 48 47 45 45 44 44 45 45 45 45 45 46 46 47 46 47 47 47 45 42 19 25 26 26 30 38 31 26 20 17 15 11 8 10 19 19 22 24 20 15
56 56 55 53 52 50 49 49 47 46 45 44 44 44 44 44 45 46 46 46 47 48 48 48 48 44 40 29 29 33 33 32 30 29 25 22 18 19 15 11 12 12 11 12 13 16 20
56 56 55 53 52 51 50 49 46 46 45 43 44 44 44 44 45 46 46 48 49 49 49 49 48 42 35 37 35 33 30 18 18 17 17 20 21 19 17 16 13 10 10 7 10 15 17
55 55 54 53 51 50 50 48 46 45 43 43 43 43 44 44 46 47 48 48 49 49 50 49 44 41 37 42 28 20 20 18 18 17 18 16 18 22 20 15 12 10 6 6 7 14 16
55 55 54 52 51 50 49 47 46 45 43 43 42 43 44 44 46 47 47 47 47 45 35 45 37 35 35 22 20 20 22 21 18 19 19 15 13 14 17 16 12 11 6 6 11 16 16
56 55 53 52 50 49 48 46 45 45 44 42 42 42 44 44 45 47 45 37 24 20 25 20 18 19 19 19 21 21 22 22 23 22 17 23 20 14 9 13 24 20 12 10 10 11 17
55 54 53 52 51 49 48 46 45 45 44 42 41 42 44 44 45 46 43 25 26 25 26 27 26 24 23 22 19 20 24 22 21 23 31 24 21 24 27 25 15 16 22 20 13 11 13
54 53 53 52 51 49 47 45 45 45 42 41 41 43 43 44 45 42 33 31 32 31 27 26 25 21 24 29 22 19 18 18 17 18 21 24 21 22 26 26 23 9 9 22 21 12 15
53 52 52 52 50 48 46 45 45 44 42 40 42 43 44 46 40 39 31 37 36 34 23 14 15 23 24 22 19 21 25 24 25 22 22 21 22 21 24 24 26 19 17 26 27 17 12
52 52 51 51 49 48 47 46 44 42 41 41 42 43 44 44 41 35 35 39 39 33 5 13 13 18 17 19 21 26 28 28 25 24 26 23 23 24 25 24 26 21 19 25 23 14 19
51 51 50 49 48 47 46 45 43 41 40 41 41 42 44 40 42 39 39 40 37 17 5 13 14 15 17 19 24 27 28 29 30 29 29 28 29 30 24 19 19 24 28 27 29 22 14
50 49 49 49 48 47 45 44 42 40 40 40 41 42 43 41 34 38 41 37 18 8 14 12 14 17 19 20 26 27 28 31 31 26 22 24 26 20 25 23 24 27 27 20 18 20 19
49 49 49 48 47 46 44 42 42 41 40 39 42 44 42 40 40 41 39 28 9 13 13 16 19 20 20 25 27 27 26 26 33 31 27 19 18 23 31 26 20 29 25 20 20 22 23
49 48 48 47 46 46 44 42 41 40 40 40 42 40 38 41 40 41 33 18 14 15 16 19 21 21 22 24 28 28 26 25 33 34 31 28 24 24 24 24 27 25 25 26 27 29 21
48 48 47 46 46 44 42 42 42 40 40 42 38 39 38 39 41 39 28 18 17 19 22 23 21 23 20 24 27 26 25 25 29 31 35 34 26 27 31 33 33 29 32 24 27 14 13
48 47 46 45 45 43 42 42 41 40 41 42 38 35 37 38 41 33 22 19 21 22 25 26 26 25 26 27 29 25 27 26 28 31 35 37 31 30 31 31 31 27 29 32 30 29 23
46 46 46 45 42 43 42 41 40 40 41 40 38 29 37 40 29 24 23 22 28 24 26 27 29 28 27 28 30 26 25 29 28 32 32 34 34 29 29 34 37 34 32 31 26 26 31
46 45 44 43 43 42 42 41 39 40 42 39 35 33 37 38 22 21 25 25 25 24 23 25 27 29 30 26 23 26 28 31 30 30 34 35 32 25 26 32 36 34 32 32 35 34 31
46 44 43 42 43 42 42 40 39 40 42 39 35 28 32 33 31 25 23 25 25 26 24 24 25 26 26 26 32 23 24 28 29 32 39 37 33 29 25 27 31 33 35 36 35 32 30
44 43 42 41 41 41 41 40 38 39 42 39 32 29 30 24 27 26 23 25 24 23 21 22 22 22 24 21 23 23 25 25 30 35 36 35 31 32 35 35 35 34 34 35 35 34 29
44 42 42 42 40 41 40 39 38 39 40 37 29 31 28 23 29 24 26 24 24 19 19 19 19 20 23 22 24 22 23 28 30 34 34 35 31 32 32 34 32 31 32 32 34 34 34
42 41 42 42 41 40 40 39 38 39 39 35 33 32 29 28 23 22 22 18 19 23 23 20 21 22 23 24 25 25 27 29 31 30 32 32 31 31 28 32 31 23 29 29 30 32 32
42 39 40 41 40 40 39 38 39 39 39 38 36 32 27 22 25 21 19 18 22 24 22 26 25 25 24 28 30 31 32 31 33 34 35 31 27 30 26 31 17 29 33 31 29 29 30
42 41 40 41 40 40 39 39 38 39 41 37 37 34 29 21 26 26 25 25 24 26 24 27 27 26 29 29 28 27 27 26 30 31 30 31 30 30 28 26 28 26 26 28 29 28 31
42 42 41 42 42 41 40 40 39 40 40 38 38 37 32 26 26 29 26 26 22 22 23 27 29 32 30 29 28 27 25 24 27 28 29 30 31 32 29 22 19 25 26 28 29 22 32
42 42 42 42 41 41 40 41 40 41 41 40 37 37 33 24 29 30 26 25 28 25 23 27 28 29 30 25 24 24 24 26 27 25 26 27 28 24 25 23 24 27 28 29 22 23 34
42 42 42 42 42 41 40 40 40 40 41 40 39 38 33 28 29 34 35 30 30 28 24 26 24 27 26 23 23 24 25 26 28 28 27 26 26 22 24 19 16 30 28 23 31 34 34
43 42 42 42 41 41 41 40 38 40 40 40 35 39 38 30 28 35 35 33 33 32 30 30 28 31 30 24 24 26 25 26 29 23 31 25 27 24 25 24 31 34 32 35 35 34 34

GFSGBSN_sfc_dewp_111.txt.gz
Dewpoint
58 57 56 55 55 54 53 51 49 49 46 46 45 44 46 46 46 46 46 46 47 47 47 48 48 48 40 24 18 30 45 40 39 33 26 22 18 17 18 29 31 28 24 21 19 15 13
57 57 56 55 55 54 53 51 49 49 47 46 45 43 45 45 45 45 46 46 47 48 48 48 48 46 39 16 21 27 33 32 32 31 28 23 19 16 14 10 15 15 9 8 8 8 13
58 57 56 56 55 54 53 52 50 48 47 46 44 44 44 45 45 45 46 47 48 48 49 49 48 44 39 25 30 35 34 31 30 26 22 22 22 20 19 16 16 12 13 13 12 9 11
57 56 56 56 54 54 53 51 51 48 47 46 44 44 43 44 45 46 46 47 48 48 49 49 49 42 29 36 38 38 30 20 22 20 20 18 19 18 18 18 16 15 14 10 10 9 9
57 56 55 56 54 53 52 51 50 48 47 45 44 43 43 44 45 46 47 48 49 48 49 50 43 39 30 41 36 24 21 19 20 19 19 18 18 15 21 19 18 17 12 10 9 10 8
57 56 55 56 54 53 52 51 50 48 47 45 44 42 42 44 45 47 47 48 47 42 48 43 40 33 32 23 21 21 21 22 21 20 19 19 16 12 14 16 12 18 18 18 18 14 7
58 56 55 56 54 53 51 50 49 49 46 45 43 41 42 44 45 47 46 31 23 18 26 18 20 21 20 20 21 20 23 23 23 22 19 22 23 21 19 15 13 11 10 10 19 26 19
57 56 55 56 54 53 51 50 49 48 45 45 43 41 42 43 45 46 41 28 26 27 27 28 26 24 24 23 21 21 22 21 19 17 25 24 20 18 23 25 24 21 19 16 15 16 25
57 56 55 55 54 52 51 49 49 47 46 44 42 42 42 44 45 40 33 32 32 31 27 26 26 23 20 24 23 19 24 22 22 21 20 21 18 19 20 20 18 21 23 22 19 12 23
57 55 55 55 53 51 50 49 48 47 45 43 42 42 43 45 39 38 33 38 36 34 22 15 16 19 20 23 21 21 27 26 25 23 23 22 23 20 20 19 20 22 24 24 19 20 17
56 54 54 53 52 50 50 49 48 47 44 42 43 42 43 44 38 32 36 39 39 33 3 14 13 20 19 19 20 26 28 28 25 26 28 26 23 22 23 21 25 22 26 25 21 17 26
56 55 54 52 51 50 49 49 48 46 44 42 43 43 43 41 40 37 39 40 36 16 3 15 16 17 21 21 25 27 28 31 29 28 29 28 29 29 27 26 26 25 25 26 24 23 21
55 54 53 51 51 50 49 48 47 45 43 42 42 43 42 41 33 38 40 37 16 6 15 13 16 21 21 22 26 27 27 28 32 27 26 28 26 30 30 27 25 25 25 17 20 14 16
54 53 52 51 49 49 49 47 46 44 42 42 42 43 42 41 40 40 38 26 7 14 14 18 19 22 21 26 26 28 27 25 32 34 28 25 20 21 30 21 20 25 24 21 15 20 21
53 52 51 49 49 48 47 46 45 42 42 42 43 39 37 40 39 40 29 19 13 14 16 20 22 20 21 24 27 28 26 26 31 31 30 28 24 25 27 27 24 25 25 26 26 27 26
52 50 49 48 48 47 46 45 43 42 41 43 38 39 38 41 42 38 28 18 17 19 23 24 21 23 19 23 26 25 25 25 28 29 32 34 27 28 32 33 30 29 32 27 30 21 11
50 49 48 48 47 46 45 45 43 41 43 43 38 33 37 41 40 32 23 19 20 23 25 25 24 24 25 21 27 23 27 28 27 27 31 34 32 28 31 32 31 30 28 31 30 27 19
49 48 47 47 46 45 45 43 42 41 43 40 38 31 37 40 31 27 25 24 29 24 26 26 27 27 24 23 27 22 25 29 28 27 29 33 34 27 28 34 36 36 31 31 25 25 30
47 47 46 46 46 45 45 42 41 42 42 38 34 33 38 37 25 24 25 25 24 23 23 24 25 27 27 22 22 24 24 31 28 26 32 35 30 25 23 30 35 34 33 33 35 34 28
45 45 46 46 46 45 43 41 41 42 43 39 34 29 32 34 31 25 24 24 23 26 24 22 23 24 24 23 29 23 23 26 26 29 36 37 33 30 25 27 34 32 34 35 35 30 27
45 45 45 45 45 44 42 40 40 42 42 38 33 30 31 27 28 25 25 25 23 22 20 21 22 20 21 19 23 24 24 23 28 32 33 36 30 33 33 33 31 31 32 36 33 32 26
44 45 45 44 43 42 40 39 40 42 42 37 31 31 26 29 30 23 26 24 23 20 16 16 19 20 20 21 23 21 22 25 27 32 32 36 30 32 30 30 29 27 30 29 33 32 30
43 43 44 44 43 41 40 39 40 41 40 34 33 32 29 27 24 23 23 23 21 20 22 23 23 23 22 23 25 25 25 26 26 27 30 34 32 31 26 30 29 21 27 28 28 29 31
43 42 41 42 42 40 39 39 40 41 40 38 35 31 28 25 23 22 23 19 23 24 20 26 25 23 24 28 29 30 30 29 30 30 30 32 31 33 28 30 17 28 32 32 26 27 30
42 42 41 42 42 40 39 39 40 41 41 38 38 34 28 24 25 24 24 24 24 25 23 26 27 26 30 29 27 27 26 25 31 32 31 32 32 30 27 23 27 27 28 27 28 26 30
42 42 42 42 42 41 39 40 41 41 42 39 37 36 31 28 26 29 25 24 22 22 22 26 29 31 30 29 28 24 23 24 25 28 29 31 32 31 29 21 18 24 26 29 29 23 30
42 43 43 42 42 42 40 41 41 43 43 39 37 36 31 26 28 29 24 24 26 24 23 25 27 29 29 23 23 22 21 27 26 25 26 26 28 24 26 22 24 26 31 32 23 23 32
42 42 42 42 42 42 41 41 41 43 43 39 37 37 32 27 28 34 33 29 28 26 21 24 23 26 25 21 22 22 23 26 29 29 29 24 25 22 23 17 15 30 29 23 30 33 31
43 42 42 42 42 42 42 41 41 42 41 40 34 38 36 30 28 34 34 33 32 28 29 29 27 29 29 23 24 24 24 27 27 25 32 24 26 23 25 23 31 34 32 34 34 31 34

GFSGBSN_sfc_dewp_114.txt.gz
Dewpoint
59 59 58 57 56 55 55 54 53 51 50 48 47 46 45 46 46 46 46 46 47 48 48 49 49 49 37 19 10 22 44 40 33 31 26 23 20 18 17 23 16 15 21 25 18 10 9
59 58 57 57 56 56 55 54 54 52 50 48 47 45 45 46 45 45 46 46 47 48 48 49 49 47 33 3 17 32 35 32 27 25 22 24 22 18 16 14 12 14 12 12 14 14 11
59 58 57 57 56 55 55 54 54 52 50 48 47 45 45 45 45 45 46 46 47 48 49 49 48 43 34 14 32 36 36 31 27 24 19 21 22 17 19 16 17 16 14 16 15 12 9
59 58 58 57 56 55 55 54 53 52 50 48 47 45 45 44 44 46 46 47 48 48 49 49 49 41 22 30 37 40 33 21 23 24 22 19 19 19 17 17 17 15 17 15 14 12 12
59 59 58 57 55 55 54 54 53 52 50 48 47 45 43 44 45 46 46 47 48 49 49 50 42 37 20 36 30 26 23 20 21 22 19 17 18 16 18 16 15 16 14 16 16 15 13
59 59 58 57 56 55 55 54 53 52 50 48 46 45 43 43 45 46 47 48 46 49 47 44 42 30 23 18 22 21 21 21 22 21 19 20 18 15 14 15 10 10 14 16 17 18 18
57 59 58 57 56 56 55 54 53 52 50 48 45 44 42 43 44 47 45 25 19 15 25 15 20 23 18 20 23 20 21 23 24 21 18 21 19 17 18 17 16 14 13 13 13 14 13
54 56 58 58 56 56 55 54 52 51 49 47 45 43 42 43 44 46 36 27 26 26 26 28 26 25 25 23 21 21 23 21 20 18 21 23 22 21 20 20 22 23 21 20 18 16 21
52 53 55 58 57 56 55 54 52 50 49 47 45 42 42 43 45 38 33 32 32 30 26 25 27 25 21 23 23 19 25 25 23 22 21 20 21 21 20 19 18 18 18 15 16 21 24
50 51 53 56 57 56 55 53 52 50 49 47 45 43 43 44 39 37 35 38 34 33 20 14 18 20 21 23 22 23 27 27 26 23 24 24 24 23 22 20 20 19 19 19 21 23 21
49 50 52 54 56 55 54 52 51 49 48 47 45 43 43 43 35 31 35 39 36 30 -7 15 14 20 22 21 23 25 29 28 26 26 27 25 26 26 25 24 22 20 24 24 23 24 24
49 49 50 52 55 54 52 51 50 49 47 46 43 44 45 43 38 36 39 39 34 11 -1 15 17 19 22 22 25 28 28 30 29 28 28 27 29 28 27 27 26 25 25 26 26 25 20
47 50 50 51 54 54 52 51 49 48 47 45 44 44 43 39 33 39 40 35 11 3 14 13 16 22 21 22 26 28 28 28 32 28 25 27 27 29 30 28 26 25 23 18 17 20 17
47 47 49 50 54 52 51 50 48 48 46 44 44 44 43 40 39 40 36 23 8 13 13 18 20 22 21 26 26 28 27 25 33 33 28 27 21 23 26 25 18 22 22 22 16 18 22
47 47 49 50 54 52 50 48 48 47 45 44 44 40 38 37 40 39 27 19 9 14 15 20 22 20 21 23 27 26 25 25 29 29 29 26 25 28 29 28 26 24 24 29 27 27 24
46 48 49 49 52 50 49 48 48 46 45 45 39 38 36 40 40 36 26 19 16 18 22 23 21 23 19 22 23 24 24 26 27 29 30 30 28 29 29 34 28 27 30 28 29 21 18
48 50 50 51 51 49 48 47 46 45 45 43 39 34 38 41 39 32 23 19 20 23 24 25 24 24 25 21 25 23 24 27 28 26 28 27 32 27 30 30 29 31 29 32 31 28 22
51 52 51 51 49 48 47 46 46 44 44 42 37 31 38 41 30 27 25 21 27 23 26 26 27 26 24 23 24 19 21 27 26 28 25 31 34 26 26 28 35 35 32 32 28 24 29
51 52 50 49 48 47 46 45 44 44 44 39 34 34 38 37 24 27 26 25 24 23 22 25 25 27 25 21 12 22 23 29 31 24 31 36 31 25 23 29 34 32 32 31 33 34 27
51 49 48 48 47 46 45 44 44 43 44 39 35 29 32 34 31 26 25 24 23 25 24 23 23 26 25 23 27 19 22 27 27 26 32 36 35 30 23 27 31 28 33 36 35 27 25
48 48 47 46 46 45 45 45 44 44 45 39 34 30 31 28 29 27 27 26 24 22 21 20 23 19 20 18 21 25 26 24 25 31 31 36 30 31 31 31 29 28 30 31 28 28 23
46 46 46 46 45 45 44 44 43 44 44 36 32 29 30 30 29 25 28 25 23 21 16 16 19 20 20 20 21 20 22 23 23 29 28 34 29 32 31 34 32 25 27 27 29 30 27
43 43 44 44 44 43 42 43 44 44 41 34 33 32 31 28 25 23 25 25 25 19 25 21 22 21 21 21 23 24 25 26 25 25 29 32 33 30 27 28 27 19 26 26 26 28 30
43 43 43 43 42 41 41 42 43 43 40 37 34 31 30 26 24 22 25 21 21 20 20 25 23 22 23 29 29 29 28 28 28 27 31 31 32 32 28 28 17 25 29 28 25 26 29
44 44 43 41 41 40 40 41 42 43 42 38 37 32 30 26 24 22 24 24 24 24 23 25 26 25 30 28 27 27 26 24 30 32 35 33 33 30 27 23 26 26 26 26 26 25 29
42 43 42 42 41 41 43 44 44 43 42 39 37 35 33 29 26 26 24 23 22 21 20 25 28 30 29 28 27 23 22 24 24 28 31 32 31 30 27 21 17 23 26 30 29 21 28
43 43 42 42 41 42 43 44 44 43 42 39 37 36 33 29 29 27 23 24 25 23 21 24 27 28 28 22 22 22 20 26 23 25 27 25 28 24 25 22 23 26 30 33 22 22 28
43 43 42 41 41 43 44 44 44 43 41 38 37 37 32 29 28 33 32 28 27 23 16 22 22 25 24 20 21 22 22 25 25 30 28 23 23 22 25 20 17 31 30 23 30 31 29
42 42 43 42 42 43 44 44 43 42 41 38 35 37 36 32 30 34 33 32 28 25 27 28 26 29 28 23 24 24 23 25 27 25 32 24 26 24 24 22 30 32 30 32 31 33 30

GFSGBSN_sfc_dewp_117.txt.gz
Dewpoint
59 59 59 59 58 57 56 56 55 54 53 51 49 47 46 45 47 46 46 47 47 48 49 49 49 49 35 10 6 25 45 39 29 26 24 23 21 18 16 15 16 14 12 16 16 14 12
59 59 59 59 58 57 57 56 55 54 53 51 49 47 46 45 46 46 46 47 48 48 49 49 49 47 28 2 20 34 37 29 26 22 19 21 20 18 17 17 16 17 15 14 15 15 16
60 59 59 58 58 57 56 55 55 55 53 51 49 47 46 45 45 45 46 47 48 49 49 49 48 41 29 9 31 36 38 28 28 22 17 19 21 18 18 17 18 16 14 15 14 13 14
60 60 59 58 57 57 56 55 55 55 53 51 49 48 46 45 44 45 46 47 48 49 49 49 49 40 17 28 35 38 32 22 22 24 21 21 21 19 17 18 16 15 16 12 14 13 15
57 59 59 58 58 57 56 55 55 55 53 52 49 47 46 45 45 46 46 48 50 50 50 49 42 36 16 34 26 25 22 21 22 22 21 17 19 18 17 16 13 17 10 11 11 15 15
53 56 58 59 58 57 56 56 55 54 53 52 49 47 45 44 44 47 48 46 50 48 47 43 41 26 20 14 21 20 21 21 21 22 20 20 20 16 16 14 9 10 11 11 11 11 14
51 52 55 56 58 58 57 56 55 54 53 51 49 47 44 43 44 46 42 25 17 17 29 14 17 23 17 20 22 20 21 22 23 21 18 21 17 16 18 18 17 16 16 14 14 16 18
51 51 51 53 55 58 57 56 55 54 53 51 49 46 44 43 43 46 35 25 23 26 22 28 26 25 25 23 20 21 23 25 23 23 21 23 22 22 22 21 19 18 17 17 18 18 16
51 51 50 50 52 55 58 57 55 53 52 51 49 46 43 43 44 39 34 31 31 32 25 23 26 23 21 23 21 20 25 26 24 23 22 24 24 22 21 21 20 19 18 17 17 17 19
51 51 51 50 50 52 54 57 55 53 52 50 48 46 45 44 39 36 34 38 34 35 15 12 19 20 23 23 21 23 26 27 26 25 25 26 26 23 23 24 23 21 20 19 18 20 18
51 50 50 50 50 50 52 55 55 53 51 49 47 44 44 44 35 33 34 40 36 32 -19 13 15 21 23 22 24 24 29 28 27 28 28 24 27 26 27 26 22 17 22 22 23 23 23
50 49 49 47 48 50 51 53 54 52 50 49 47 44 44 43 39 36 40 41 36 10 -11 14 17 19 21 23 25 28 29 30 30 30 29 28 29 28 28 28 26 25 26 25 25 25 20
49 50 50 49 46 48 50 52 54 52 50 48 46 44 44 41 35 39 41 37 9 0 11 11 15 21 20 22 25 28 27 32 29 24 23 26 27 28 29 26 25 27 23 21 18 20 16
48 49 49 49 48 47 50 51 52 50 49 47 46 44 43 40 39 41 38 25 1 8 10 18 20 21 20 25 25 27 25 25 32 30 26 24 18 24 26 26 25 23 22 21 18 16 20
48 49 49 48 47 47 48 50 52 50 48 47 46 42 42 42 41 41 31 20 4 12 16 20 21 19 21 23 26 26 24 25 28 28 22 24 25 28 28 30 27 25 24 26 28 26 25
47 48 47 46 46 47 47 49 50 49 47 45 39 37 37 41 43 37 28 18 16 17 23 23 17 22 22 22 23 24 23 25 24 29 27 26 26 26 29 31 30 28 28 30 30 22 18
47 47 47 45 44 46 47 49 50 48 46 42 37 33 41 42 42 34 28 21 19 23 25 24 25 24 24 24 26 26 23 24 26 27 25 25 29 24 29 27 25 27 29 34 34 29 25
45 44 44 44 46 46 47 50 49 47 44 40 36 31 41 41 34 33 26 21 27 25 26 26 27 26 25 26 25 25 25 26 27 27 24 29 33 24 24 26 33 32 31 33 27 25 30
44 45 46 46 47 46 48 50 47 45 42 40 34 34 41 40 28 27 26 24 25 23 24 26 26 27 26 25 19 25 26 29 30 23 30 34 30 25 20 27 25 28 30 34 35 34 30
47 50 52 52 49 47 49 47 46 43 43 41 36 30 35 37 33 28 26 24 23 25 24 25 26 28 26 25 27 23 26 27 28 24 32 35 32 28 22 26 31 26 29 34 35 28 23
52 52 50 48 48 49 48 46 44 43 44 41 36 32 32 28 31 29 29 28 24 23 22 22 23 21 20 21 22 25 27 25 24 29 31 34 30 32 33 32 28 28 27 28 26 27 21
51 51 50 49 49 47 46 44 43 45 45 39 33 30 33 28 30 28 29 26 23 18 19 19 22 20 21 20 21 19 21 22 22 26 26 35 29 32 30 34 32 26 28 26 29 27 26
48 48 48 47 46 45 44 43 44 45 42 37 36 34 32 30 28 26 28 26 23 23 25 20 22 22 21 22 24 24 25 26 23 22 25 30 30 30 26 32 28 23 26 26 26 27 27
45 46 46 45 44 44 43 43 44 46 42 37 35 35 32 27 25 23 25 25 22 21 24 24 25 23 23 30 30 29 28 28 28 27 26 31 28 31 27 30 19 28 30 29 24 26 28
42 43 44 45 45 44 43 44 45 45 42 38 37 35 33 26 23 25 24 25 26 26 25 25 25 26 31 29 26 26 26 27 29 30 28 31 31 28 27 24 27 27 27 26 26 24 28
43 43 43 43 42 43 44 44 44 43 41 38 37 37 35 28 26 24 24 24 22 21 22 26 28 32 30 28 28 23 22 23 24 31 34 33 32 30 28 23 19 24 28 31 30 20 27
42 42 42 42 41 41 43 44 44 43 41 38 37 37 35 31 30 27 24 24 25 21 21 24 28 28 28 26 24 23 23 25 24 23 26 24 26 24 24 23 22 26 31 35 23 23 27
42 41 41 43 44 44 44 45 44 42 41 37 37 37 34 32 32 33 32 28 26 22 21 25 25 28 26 23 21 22 24 25 27 28 27 22 23 22 24 22 19 30 32 25 28 31 28
41 41 43 44 44 44 44 44 43 42 41 37 35 37 37 34 33 34 34 33 27 24 30 29 27 30 27 25 25 26 25 27 26 25 29 24 25 23 24 22 30 33 30 32 34 30 29

GFSGBSN_sfc_dewp_120.txt.gz
Dewpoint
61 60 59 59 59 59 58 57 56 55 55 53 52 49 47 45 45 46 46 47 48 49 49 50 50 50 37 5 4 27 46 43 22 16 17 17 17 15 12 11 11 9 8 9 10 10 11
61 60 60 59 59 59 58 57 56 55 55 53 52 49 47 46 45 46 46 46 48 49 50 50 50 49 26 -0 21 33 34 21 18 16 14 14 16 17 16 14 14 13 14 12 12 12 12
61 60 60 59 58 59 58 57 56 56 55 53 52 50 48 46 45 45 46 47 48 49 50 50 48 37 22 13 26 30 30 23 23 21 17 17 16 16 17 15 17 15 13 12 10 9 10
56 58 60 59 58 58 57 57 56 56 55 54 52 50 48 46 45 44 46 47 48 50 49 49 48 36 12 23 29 30 23 20 22 22 22 20 19 17 17 18 16 13 14 8 9 9 11
53 55 56 58 58 58 57 57 56 56 55 54 53 51 48 46 45 45 46 48 50 50 50 49 39 35 14 32 23 19 21 19 23 22 23 18 18 18 19 15 10 14 6 7 7 9 10
50 52 54 55 55 58 58 57 56 56 55 54 53 50 48 46 44 45 48 46 51 49 44 39 37 30 20 12 18 20 22 24 23 23 21 21 20 17 14 12 5 7 9 10 9 8 12
50 50 51 52 54 55 58 57 56 56 55 54 52 50 47 45 44 46 42 38 28 23 30 13 12 15 10 17 22 20 22 25 25 24 22 23 18 11 13 17 17 15 14 13 13 14 15
51 51 50 50 51 51 53 57 57 55 55 53 52 50 48 45 44 45 39 20 17 28 8 24 23 22 22 21 19 19 24 25 27 24 23 23 19 16 20 20 20 19 18 16 15 14 15
49 50 51 50 50 50 50 53 54 55 54 53 52 50 47 44 44 40 33 29 30 33 21 20 23 19 19 22 19 20 26 27 26 24 24 23 19 22 23 22 21 21 18 17 15 16 19
49 50 51 51 50 50 51 51 53 55 54 53 51 49 47 46 41 37 29 36 33 37 15 15 19 18 24 22 20 23 27 28 28 25 26 25 24 22 23 23 24 22 16 14 14 20 19
49 50 50 51 51 50 50 50 51 54 55 52 50 48 45 46 40 35 33 39 37 36 10 11 14 23 21 21 23 24 29 29 26 27 28 21 23 24 25 23 22 19 22 19 20 23 23
49 49 50 51 50 50 48 49 51 52 54 52 50 47 45 43 39 38 42 39 39 16 5 12 14 16 19 21 23 25 27 30 31 30 29 27 26 28 26 27 26 25 25 26 25 23 21
49 49 49 49 50 50 48 47 48 51 53 51 49 46 42 42 37 44 45 39 14 11 8 11 12 17 16 19 22 24 26 30 26 22 20 22 24 27 28 25 27 26 26 22 21 24 12
48 48 48 48 49 50 50 48 48 50 52 51 48 46 43 46 45 46 45 32 11 13 2 13 16 17 15 23 22 24 24 24 28 23 20 20 19 25 27 26 25 25 26 22 21 19 20
48 48 48 48 48 49 50 48 48 50 51 49 46 44 43 45 45 45 39 21 14 14 9 15 16 12 19 22 24 25 22 22 24 21 21 24 26 24 25 26 28 25 24 27 28 27 26
48 48 48 47 48 48 49 48 48 49 51 48 43 39 39 45 46 41 32 21 16 10 14 16 10 16 20 18 21 21 21 23 23 24 24 26 29 23 26 28 28 29 29 26 32 25 23
47 48 47 47 47 46 48 48 47 48 49 46 40 34 39 45 45 37 28 23 14 16 20 15 21 21 21 27 23 23 21 23 23 23 24 25 32 23 26 24 23 25 28 30 32 28 26
47 47 46 46 46 47 48 48 47 47 48 43 38 32 39 45 33 34 27 22 26 19 23 24 24 25 27 31 24 33 28 23 23 22 26 29 31 25 23 25 25 24 28 33 30 27 30
46 46 46 46 46 46 46 47 47 48 46 41 36 33 39 42 28 29 28 23 25 24 21 23 24 27 28 33 29 30 31 27 26 22 28 32 28 24 21 28 25 24 25 28 32 35 31
46 46 46 45 45 45 46 46 47 48 45 41 36 28 34 35 36 30 30 23 24 28 26 27 26 28 26 25 25 28 31 25 27 22 26 34 29 30 24 25 28 27 27 28 35 32 28
45 44 44 45 46 46 45 45 46 47 45 42 38 32 31 29 31 30 27 24 23 25 27 26 27 23 20 23 23 24 25 23 21 30 31 31 30 32 31 32 32 28 29 30 28 30 29
44 44 46 49 51 51 49 45 45 47 45 42 34 33 30 28 29 31 29 26 21 22 22 21 20 22 20 17 18 19 20 20 18 27 24 33 32 34 32 35 34 28 30 28 28 29 27
43 47 50 51 51 52 49 46 46 45 44 41 39 36 32 29 29 32 30 23 20 23 23 22 21 21 20 19 19 20 21 21 19 19 23 31 31 29 25 33 28 26 28 30 28 26 28
45 50 48 49 50 50 47 46 46 45 43 39 36 34 35 30 31 27 24 23 22 20 21 23 24 22 24 28 27 27 25 23 24 25 25 30 28 28 25 31 25 30 30 27 25 25 26
45 49 49 48 48 47 46 45 46 44 43 37 38 37 37 31 27 26 28 26 24 26 24 24 24 26 30 25 17 23 28 30 30 30 30 29 29 27 26 28 28 28 28 27 27 24 27
43 46 46 45 45 45 45 45 45 44 42 40 39 42 37 33 30 27 26 26 24 22 25 27 32 34 31 20 24 19 18 17 24 30 32 30 32 29 28 24 22 25 28 32 31 23 26
42 44 45 46 45 45 46 45 44 43 42 41 39 41 36 34 30 30 24 24 23 22 21 25 29 29 30 27 24 21 21 24 23 21 27 28 27 25 26 24 24 26 32 35 25 25 27
43 42 44 44 44 45 45 44 44 43 41 40 39 39 37 32 33 31 30 27 25 23 21 27 26 29 27 26 19 23 23 25 26 25 25 20 23 24 25 24 21 29 33 29 29 29 28
42 43 43 43 44 45 44 43 42 42 40 40 37 37 42 35 33 35 34 32 26 24 26 30 28 26 25 24 23 25 26 30 25 25 28 25 26 24 25 25 31 34 32 35 30 29 28

GFSGBSN_sfc_dewp_123.txt.gz
Dewpoint
61 61 61 60 59 59 60 59 57 56 56 55 54 52 49 47 47 47 48 48 48 49 50 50 51 51 41 13 1 27 48 45 22 12 11 12 13 12 8 6 6 6 6 6 7 7 7
61 61 60 60 59 60 60 59 57 56 56 55 54 52 50 48 47 47 47 47 48 49 50 51 51 50 31 7 19 28 24 17 15 15 14 14 12 14 12 12 10 11 11 9 9 9 9
57 61 60 60 59 59 59 58 58 57 56 55 54 53 50 48 47 47 46 46 48 49 50 51 50 36 25 14 22 22 22 19 20 20 19 18 17 15 15 13 15 14 11 10 8 6 8
55 55 56 59 59 59 58 58 58 57 56 55 54 53 51 49 47 46 46 47 48 50 50 49 49 34 18 20 22 23 19 18 21 21 21 20 18 18 17 17 15 12 12 9 5 6 7
52 52 53 56 56 58 58 58 58 57 56 55 54 53 51 49 47 46 46 47 50 50 50 49 41 33 15 29 19 17 19 18 21 23 23 18 18 19 18 16 9 12 4 5 5 7 7
50 50 52 52 54 55 57 58 57 57 57 55 54 53 51 49 46 45 47 46 51 49 46 34 29 29 21 13 15 17 20 23 23 23 22 21 20 17 14 10 5 6 6 8 8 8 10
50 51 50 51 51 52 54 55 57 57 56 56 54 53 51 49 46 44 43 39 35 33 30 19 14 15 7 12 17 18 20 23 24 23 20 23 16 11 11 16 16 15 14 13 12 12 13
47 48 50 51 50 51 51 52 54 56 56 55 54 53 51 49 45 44 43 27 24 28 19 18 12 11 17 16 13 17 22 23 25 20 22 20 19 16 16 17 18 19 19 17 14 12 13
48 49 48 48 49 50 50 51 52 54 56 55 54 52 50 47 45 41 30 26 31 35 19 23 18 15 14 16 11 15 22 23 22 21 20 19 15 19 16 17 19 19 19 19 13 12 14
48 49 50 49 50 51 51 50 51 52 54 55 53 51 48 46 38 37 30 28 35 41 25 24 17 16 18 16 17 17 23 25 24 19 20 20 19 19 17 18 20 21 18 15 15 17 16
47 48 49 50 51 51 51 51 50 51 52 54 53 50 46 44 40 33 36 38 40 40 25 21 15 19 17 14 20 21 26 27 22 23 24 18 21 20 20 21 22 20 23 23 23 23 23
47 48 49 50 50 51 51 50 50 50 52 53 52 49 46 43 42 38 40 45 44 29 23 13 14 15 16 17 18 23 25 28 28 25 24 23 22 23 23 24 25 26 26 25 25 23 21
47 48 48 49 50 50 51 50 48 48 50 53 52 48 43 47 41 42 44 41 27 25 16 13 12 13 14 16 18 19 22 26 25 22 23 21 22 23 26 24 23 26 23 22 19 24 18
48 48 48 49 49 49 49 50 50 48 49 52 50 47 46 45 46 48 46 34 24 28 23 11 11 14 14 16 18 20 19 21 24 21 15 12 21 22 25 23 21 23 23 21 18 19 18
47 48 48 48 49 49 49 49 50 48 48 51 50 46 44 45 48 48 38 28 27 28 23 12 12 12 15 16 21 21 17 17 21 20 22 20 21 21 23 24 23 24 21 27 29 25 28
46 46 47 47 48 48 48 49 50 48 48 49 44 42 41 46 47 42 35 31 32 27 16 14 15 15 17 16 17 17 16 17 22 22 23 25 30 21 22 25 25 26 24 26 30 26 22
46 46 46 47 47 48 48 48 49 48 49 47 42 37 43 46 43 36 30 31 32 25 19 16 18 17 16 23 20 19 16 20 21 24 25 25 32 23 23 24 20 24 27 29 29 26 26
45 45 46 47 47 48 48 48 47 47 48 46 41 34 44 45 32 34 31 34 32 25 18 19 20 21 22 30 23 37 25 23 22 23 25 27 30 25 20 22 24 22 25 26 29 25 32
45 45 46 46 47 47 47 48 47 47 47 43 38 34 43 41 33 31 29 31 29 26 22 19 21 26 30 35 32 32 32 24 21 23 27 31 28 25 22 26 26 25 24 25 28 29 30
42 44 45 45 46 47 47 47 47 47 47 42 35 29 33 34 37 31 29 30 28 25 22 24 22 30 28 26 24 29 31 26 25 22 29 34 28 28 26 27 28 25 26 26 29 30 33
42 43 44 45 46 46 46 47 46 47 47 42 38 34 32 28 31 34 32 30 30 26 25 28 29 25 22 24 22 23 27 22 24 26 26 31 31 30 30 28 29 28 26 28 26 29 28
43 43 45 46 46 46 46 46 46 46 47 42 35 33 31 28 30 32 33 31 29 28 24 26 23 26 25 21 22 20 22 23 21 28 30 31 33 35 32 31 30 31 30 28 28 27 28
43 45 44 45 45 45 45 45 45 46 47 41 40 37 31 30 29 30 32 29 27 28 26 25 25 27 25 20 20 19 21 20 19 26 26 32 31 30 25 29 28 29 30 31 26 25 27
44 44 45 44 44 44 45 45 45 46 47 44 41 36 35 32 29 29 28 28 26 25 25 26 26 25 24 26 26 24 22 20 21 20 22 31 29 28 25 29 23 30 29 27 25 25 25
44 43 44 44 46 48 48 48 46 46 47 43 41 38 33 34 28 27 28 29 28 29 29 24 23 24 29 24 16 16 21 23 22 25 27 28 30 27 26 23 28 28 27 25 25 25 26
42 45 48 48 48 48 48 49 50 46 47 41 40 41 36 35 30 28 30 30 30 27 24 28 30 31 28 17 15 16 16 15 21 25 29 28 31 30 26 21 22 29 27 29 28 24 26
45 46 45 47 47 48 48 49 48 47 46 42 42 46 38 40 32 33 33 30 27 25 24 28 30 29 29 21 21 19 19 17 20 24 29 28 28 27 26 23 25 26 29 32 25 28 28
44 44 45 45 45 46 46 46 46 46 44 40 43 45 38 38 37 34 33 31 29 27 25 27 26 27 25 24 20 19 22 23 25 22 24 24 24 25 25 22 21 29 34 30 30 30 28
42 44 44 44 44 44 44 43 43 43 42 42 39 43 40 38 38 37 35 32 29 27 26 30 25 25 23 23 20 21 25 28 22 24 25 23 24 26 26 27 29 33 35 34 32 31 29

GFSGBSN_sfc_dewp_126.txt.gz
Dewpoint
62 62 61 60 60 60 60 60 59 58 57 56 56 54 52 50 49 48 49 50 49 48 49 51 51 52 45 27 13 26 49 46 28 13 10 10 10 11 9 7 5 4 4 4 5 5 5
58 61 61 60 60 60 60 59 59 58 57 56 56 55 53 51 49 48 48 49 49 49 50 51 52 52 39 17 18 24 21 17 14 15 14 13 13 12 10 9 10 9 9 9 7 7 8
56 57 58 60 60 60 59 59 58 58 57 56 56 55 53 51 50 48 48 48 49 49 50 51 51 41 28 18 17 18 20 17 17 18 17 18 17 15 15 13 12 13 10 10 10 8 6
53 54 54 56 58 59 58 58 58 58 57 57 56 55 53 52 50 48 48 48 49 49 51 51 50 36 24 19 20 18 19 17 17 19 20 20 20 18 17 16 13 12 13 10 7 5 6
51 51 51 54 55 55 57 58 58 58 58 57 56 55 53 51 49 48 48 48 48 50 51 50 42 40 26 31 15 16 17 16 17 20 23 19 19 18 17 15 13 11 7 8 2 4 7
50 50 50 51 52 53 55 56 58 58 57 57 56 55 53 51 49 47 48 47 47 49 45 40 32 25 25 17 14 15 16 19 20 22 22 21 18 18 17 13 8 8 5 4 6 7 9
47 49 51 50 50 51 51 53 54 57 57 56 56 55 53 51 48 45 44 36 36 41 35 26 24 20 15 13 15 12 13 19 20 21 19 21 18 14 13 13 14 12 8 8 11 12 11
47 47 47 48 50 50 50 51 52 53 56 56 56 54 53 50 47 44 43 33 28 29 27 29 29 26 16 11 12 14 17 18 20 20 19 20 17 16 15 14 12 13 13 13 14 14 12
48 47 46 47 47 48 49 50 51 52 54 56 55 54 52 49 45 40 35 34 31 28 24 32 33 30 23 14 14 10 17 19 18 18 18 17 15 18 17 14 9 13 15 15 15 13 13
47 48 49 47 48 49 50 51 50 50 52 54 54 53 51 47 40 38 35 34 33 40 33 32 27 22 22 15 15 11 19 19 20 18 16 15 16 15 15 15 13 15 17 15 16 18 17
48 49 48 49 50 51 51 52 51 49 51 52 54 52 48 46 44 38 36 37 39 43 25 22 19 18 16 15 17 15 19 23 19 18 22 15 18 18 15 12 16 19 21 21 21 20 21
48 48 48 49 49 51 51 52 51 49 50 52 53 51 46 44 43 40 42 42 47 35 25 27 16 17 16 17 15 19 21 24 25 23 22 21 20 19 19 18 22 23 22 23 23 21 22
48 48 48 48 49 50 51 52 51 49 48 50 52 50 46 44 41 44 47 44 33 29 26 22 19 16 15 16 15 16 21 23 19 22 20 18 18 16 19 21 22 22 23 20 18 22 17
47 48 48 48 49 50 50 51 51 50 48 49 52 48 48 47 44 47 46 37 28 29 25 21 17 14 14 15 16 18 16 16 20 20 17 12 16 18 22 23 18 21 20 20 15 18 20
47 47 47 48 48 49 49 50 50 51 48 51 49 47 45 47 48 48 40 32 28 26 25 26 28 19 16 14 18 18 19 15 14 22 18 24 16 19 23 23 20 22 20 24 26 23 25
44 46 47 47 48 48 49 49 49 50 49 49 45 43 41 47 49 44 36 31 31 32 31 28 24 17 17 15 17 17 17 13 14 21 21 25 27 21 20 21 21 22 22 24 29 24 18
45 45 45 46 46 47 48 49 49 50 49 48 43 39 44 47 45 38 30 30 30 29 31 29 27 23 20 28 21 20 16 16 17 21 22 24 31 22 20 21 17 24 25 28 28 27 24
44 44 44 44 46 46 47 48 48 49 48 46 42 35 44 44 33 35 32 30 34 29 32 29 24 23 25 29 26 34 26 25 20 22 24 25 29 25 22 21 23 21 22 23 24 21 29
43 43 44 45 45 46 47 47 47 48 48 44 38 35 44 41 30 31 29 28 30 29 29 25 24 24 31 37 31 33 30 25 23 22 28 30 27 24 23 22 25 21 24 24 26 27 26
42 42 43 44 45 46 46 47 47 47 47 44 36 30 34 37 37 32 29 30 27 32 29 25 22 25 30 30 28 29 29 28 26 26 32 34 29 29 28 32 31 27 25 25 26 29 29
42 43 43 43 43 44 45 46 47 47 47 44 39 34 32 28 30 34 34 31 28 29 29 29 26 23 27 26 24 23 27 29 27 31 25 29 31 30 30 30 29 27 28 27 25 27 29
41 42 41 43 43 43 44 45 46 46 46 43 34 32 32 28 31 31 33 33 29 28 27 26 24 25 24 21 24 22 23 28 23 24 24 28 32 33 30 29 29 31 33 30 27 27 27
42 42 42 42 43 44 44 45 45 46 45 40 42 36 31 31 29 30 30 29 29 28 31 26 27 26 25 23 23 24 26 28 24 24 28 31 30 30 24 27 27 28 32 31 27 26 26
42 42 42 43 43 44 44 45 45 46 45 44 42 36 33 31 28 30 28 29 29 28 31 28 27 26 27 29 27 26 24 21 22 21 26 29 30 31 25 31 23 29 30 27 24 24 25
41 41 42 43 44 45 44 45 45 45 46 45 44 40 35 33 29 25 28 27 28 30 31 29 28 30 33 29 24 15 16 17 17 19 19 22 30 28 24 22 27 27 26 26 24 25 26
40 41 43 44 44 43 44 44 44 45 45 46 44 44 37 35 30 23 27 26 29 30 33 31 34 36 33 25 20 11 13 15 13 15 14 20 32 29 27 20 17 29 27 29 28 27 27
40 42 44 43 44 44 44 44 44 45 45 44 42 46 41 37 32 31 30 29 32 33 29 30 30 31 33 25 21 17 19 16 16 23 28 29 31 27 27 22 24 27 29 31 25 27 28
42 43 44 46 46 47 47 46 44 44 45 44 43 45 43 37 36 35 32 31 32 32 31 32 29 30 29 25 18 19 24 24 22 24 25 26 25 26 27 23 22 29 31 30 31 30 28
41 43 45 45 46 47 47 47 47 45 45 45 42 44 44 42 39 39 38 37 35 32 31 32 31 27 27 25 24 24 28 31 22 27 26 27 26 30 27 27 30 34 35 34 31 33 31

GFSGBSN_sfc_dewp_129.txt.gz
Dewpoint
59 62 62 61 60 60 60 60 59 58 58 57 56 56 55 53 52 52 51 51 50 48 48 50 51 53 48 38 30 29 52 47 39 27 21 13 12 13 10 9 8 5 5 6 7 8 6
58 58 60 61 60 60 60 60 59 58 58 57 56 56 55 54 53 52 51 51 51 49 47 50 52 53 45 26 24 26 35 24 21 18 17 16 16 15 12 10 11 12 12 12 10 9 8
55 56 56 57 60 60 60 59 59 58 58 57 56 56 55 54 53 52 51 51 50 49 48 50 53 44 35 28 19 23 20 17 18 21 18 19 20 18 17 14 16 14 11 11 9 9 9
52 53 54 55 56 59 59 59 58 58 58 58 57 56 55 54 53 51 51 50 49 48 48 51 53 41 32 26 22 18 19 20 19 20 20 22 22 20 20 17 16 14 15 11 13 12 9
51 51 50 53 54 55 56 58 58 58 58 58 57 56 54 53 52 50 50 49 49 47 50 52 45 42 33 32 20 15 19 17 19 20 22 20 22 18 18 17 15 16 12 12 11 8 8
49 50 51 52 53 53 54 54 56 58 58 57 57 56 55 53 51 49 48 47 44 46 43 43 39 31 26 21 17 17 17 20 22 22 22 22 21 17 18 16 11 12 11 6 5 7 11
49 47 50 51 51 51 51 53 53 53 57 57 57 56 54 53 50 48 44 40 33 41 41 30 28 24 24 22 18 16 17 17 21 21 19 22 20 17 17 17 17 14 11 7 9 12 14
47 47 47 47 48 49 49 51 52 51 53 57 56 55 54 52 49 46 42 36 29 29 24 28 31 31 31 30 16 14 16 19 21 18 20 20 19 20 20 17 15 13 13 14 15 15 16
48 46 47 45 46 47 48 50 51 51 51 55 56 55 53 50 47 40 37 37 32 32 24 32 32 33 33 33 24 16 18 19 18 17 20 21 21 21 19 17 17 13 12 14 16 17 18
47 45 47 47 46 48 49 50 51 50 51 53 55 54 51 47 44 38 35 37 35 38 32 32 35 29 32 20 18 17 17 17 19 18 19 19 18 18 17 16 17 15 16 19 20 21 18
47 47 48 47 49 50 51 51 51 49 50 51 54 52 48 49 43 39 36 37 41 42 22 22 20 20 19 18 20 17 21 22 19 19 20 20 20 18 19 19 14 13 26 22 23 21 21
48 48 47 47 48 49 51 51 51 49 49 51 53 51 49 46 42 39 39 43 44 33 24 27 19 18 18 17 18 19 21 24 24 23 23 22 23 21 20 20 22 24 23 23 23 22 20
48 48 48 47 48 49 50 50 51 50 49 50 51 51 47 44 42 42 45 44 33 29 30 25 25 19 18 18 18 17 23 24 20 19 21 20 19 16 19 19 24 22 22 22 19 20 19
48 48 48 48 48 49 50 50 50 51 49 48 49 49 47 48 44 47 45 38 29 27 29 29 26 20 17 18 19 19 16 17 22 21 18 18 18 22 19 17 20 22 21 23 16 18 21
46 47 48 48 48 48 50 49 49 50 50 50 49 46 45 46 47 48 41 32 28 28 26 27 30 32 31 18 21 21 19 19 17 17 22 25 26 26 22 24 24 22 20 22 25 26 20
45 46 47 47 48 48 49 49 49 49 50 48 44 43 42 48 47 44 36 29 31 28 28 29 30 31 27 21 18 17 20 20 20 21 26 30 23 24 22 25 23 22 22 24 28 18 19
46 46 46 46 47 47 48 48 49 49 50 47 43 39 42 48 45 38 30 28 28 28 28 29 30 30 29 25 26 22 23 21 27 24 25 28 28 25 25 23 20 21 22 31 32 27 18
45 45 45 45 46 46 47 49 49 49 48 46 41 33 44 45 34 35 29 31 32 28 30 29 30 31 28 27 26 26 26 26 28 28 26 29 31 27 24 25 26 24 26 30 25 22 24
45 44 45 45 44 44 45 47 48 49 48 44 37 36 44 41 29 30 30 29 29 27 28 28 28 31 33 30 24 29 29 32 27 26 29 32 29 25 25 26 31 27 25 26 27 26 21
44 44 44 44 44 45 45 46 47 48 48 44 36 29 35 38 37 31 27 28 28 28 28 28 29 29 31 29 30 27 31 33 31 28 35 35 32 29 25 29 34 34 33 26 28 19 22
44 44 44 43 43 44 45 46 47 47 47 42 38 31 31 27 30 33 31 30 27 26 29 30 28 29 29 26 27 26 30 30 31 32 29 29 27 31 31 31 29 30 33 29 27 27 26
44 44 43 43 43 43 44 44 45 46 46 42 34 32 32 29 29 30 29 28 29 29 27 24 28 29 28 26 26 24 25 30 28 29 27 27 27 31 27 27 29 28 31 28 30 28 27
43 44 44 43 43 43 43 43 44 45 46 41 40 38 34 29 28 28 27 28 28 31 30 26 30 30 27 27 27 26 27 28 29 27 26 27 29 30 24 28 32 26 27 27 29 30 29
42 43 43 42 42 42 43 42 43 45 45 43 39 39 33 27 28 28 28 28 28 28 29 30 32 31 30 29 27 27 27 26 29 28 28 29 31 31 27 25 19 29 32 31 28 26 27
41 42 42 42 42 43 43 43 42 43 45 43 43 36 34 29 26 28 29 28 29 29 29 30 32 35 31 28 26 24 23 23 23 24 23 25 32 27 23 23 26 28 28 28 27 26 27
41 42 42 42 42 42 42 43 42 43 44 44 42 40 36 32 29 27 27 29 27 27 28 31 35 35 33 31 29 23 17 17 15 17 21 22 33 27 26 22 18 27 30 31 30 26 28
40 41 41 41 41 41 41 42 43 43 44 44 41 41 40 33 31 31 26 26 30 28 29 33 34 34 33 29 28 22 18 17 18 20 18 19 25 25 25 24 25 29 31 32 24 23 30
40 40 40 40 40 41 41 42 42 43 44 45 41 41 40 35 35 33 33 32 33 30 30 33 30 31 32 28 25 20 22 22 20 26 23 20 26 27 27 23 19 32 31 28 30 30 29
40 40 40 40 40 41 41 42 44 44 44 45 40 41 44 39 36 36 38 38 38 37 34 33 30 29 30 26 26 22 24 27 25 27 31 29 29 28 27 26 31 35 35 34 33 30 29

GFSGBSN_sfc_dewp_132.txt.gz
Dewpoint
59 59 62 61 61 60 60 60 59 58 57 57 57 56 56 54 54 53 52 51 51 50 48 48 51 53 45 29 31 27 52 48 37 28 21 16 14 14 12 11 9 6 8 12 12 11 9
58 57 59 61 61 61 60 60 59 58 58 57 57 56 56 55 54 53 52 51 51 50 48 48 52 54 37 23 25 25 34 29 27 19 18 18 19 17 14 13 12 13 14 12 12 11 11
56 57 56 56 59 60 60 59 59 58 58 58 57 56 56 55 54 53 52 51 51 50 48 48 52 45 35 24 24 26 31 17 18 21 20 20 22 18 19 16 17 15 11 12 11 10 9
54 54 54 55 55 57 59 59 59 59 58 58 58 57 56 55 54 52 52 51 51 50 48 48 52 42 27 31 25 20 20 18 22 22 21 20 22 21 19 18 17 15 15 11 13 12 11
52 53 51 53 54 54 55 58 58 59 58 58 58 57 56 55 53 51 51 51 50 50 48 50 46 40 34 37 20 18 17 17 20 21 23 21 22 19 18 16 14 16 11 13 11 9 8
51 52 52 52 53 53 54 54 55 58 58 58 57 57 56 54 53 51 50 50 50 46 44 42 40 34 32 23 20 16 16 18 21 22 21 24 20 17 17 14 9 11 12 15 6 6 11
51 50 49 51 52 52 52 53 53 53 56 57 57 57 56 54 52 49 44 39 35 39 39 32 32 28 27 26 18 16 16 17 23 23 19 21 18 17 17 18 17 17 13 9 9 12 15
49 49 46 47 48 49 49 51 51 51 53 56 57 56 55 53 51 46 40 34 30 30 28 29 31 33 33 30 29 16 17 16 20 17 20 20 19 20 21 21 21 17 11 11 14 16 17
49 49 48 46 46 47 48 51 51 50 51 54 56 55 54 52 49 39 35 37 32 32 25 30 30 33 34 35 33 33 16 18 18 16 18 19 22 21 20 20 20 16 12 12 12 19 21
49 48 48 48 47 48 49 49 50 49 50 53 55 54 52 50 44 39 35 37 36 38 30 32 36 35 34 28 25 19 18 18 19 16 18 19 20 20 19 18 18 16 15 16 21 21 18
48 47 47 48 48 49 50 51 50 49 50 52 54 52 50 49 42 37 35 38 39 40 11 23 21 22 19 27 20 20 24 20 18 19 21 20 19 18 20 20 19 16 25 23 23 20 20
49 48 47 48 47 48 49 50 50 48 49 53 53 51 50 45 42 39 38 42 43 29 22 28 20 19 17 18 18 20 22 24 25 22 23 22 24 23 21 21 21 24 24 24 25 22 20
49 48 48 47 47 47 49 49 50 48 47 52 52 50 48 44 43 41 43 42 31 26 29 27 23 21 19 18 19 18 21 23 20 18 21 20 20 20 20 20 21 21 22 20 19 20 20
48 48 48 48 47 48 49 49 50 50 48 47 51 50 47 47 44 46 45 37 27 28 29 30 31 29 19 20 20 21 18 20 23 20 19 18 19 22 25 18 18 21 22 21 17 16 21
48 48 48 48 48 48 49 49 49 49 49 49 49 46 45 46 48 45 41 30 25 27 27 27 30 30 32 24 20 22 19 18 17 22 21 22 22 26 21 24 21 22 21 23 23 25 21
47 47 48 48 48 48 49 49 49 49 50 48 44 43 43 47 48 44 37 29 31 31 28 31 29 31 29 23 21 18 18 21 23 24 25 29 22 24 25 24 24 21 22 21 25 15 20
47 47 47 47 48 48 49 49 49 50 49 47 43 38 43 47 45 39 31 28 29 29 29 28 30 30 29 27 25 22 21 24 28 28 28 30 26 23 25 23 22 22 22 29 29 27 23
46 46 46 47 47 47 48 48 49 49 48 45 41 29 44 45 35 35 30 31 32 27 30 29 32 31 29 27 25 23 24 26 29 30 28 30 30 25 23 25 27 24 26 28 26 25 26
46 46 45 46 45 46 47 47 48 48 48 43 35 36 44 43 29 30 30 30 29 27 28 29 28 31 31 27 21 26 28 31 29 28 29 29 29 23 20 27 34 33 31 27 29 27 22
45 45 45 45 45 46 46 45 47 48 48 42 36 30 35 39 35 29 27 27 27 30 28 27 28 30 30 28 29 24 29 32 31 30 37 35 31 27 23 28 33 31 32 34 30 21 21
44 44 45 45 45 44 44 45 45 47 47 43 35 28 31 28 31 31 29 27 25 26 28 30 28 28 28 26 27 26 28 30 30 34 28 28 25 30 29 30 30 28 28 31 31 28 25
42 44 44 44 44 44 44 45 46 46 47 41 34 32 31 29 29 31 29 26 27 29 27 27 27 28 29 27 25 23 27 28 28 30 27 28 21 28 23 28 29 27 27 29 31 29 27
41 42 43 44 44 44 44 44 45 46 45 41 38 36 31 29 28 26 26 26 26 28 29 29 28 27 27 29 29 26 26 28 29 28 27 26 25 27 21 24 27 25 27 30 29 29 27
40 40 42 44 44 44 44 44 44 45 44 44 40 36 34 27 27 27 27 27 27 27 28 31 30 28 31 31 30 27 26 25 27 27 29 27 26 28 24 25 15 22 32 32 29 29 28
39 40 41 42 44 44 43 43 43 44 45 42 43 37 32 28 28 27 28 28 28 29 29 29 29 34 34 30 30 28 26 24 26 27 28 28 29 29 24 22 23 27 28 29 29 27 28
39 39 40 42 43 44 43 42 43 43 44 43 42 44 36 29 26 27 28 29 28 27 27 30 33 35 33 30 28 24 21 22 19 20 24 25 28 28 26 21 16 26 30 31 31 25 28
39 40 40 41 42 43 43 42 42 43 43 43 40 42 40 33 31 30 27 26 31 29 28 31 32 31 35 31 27 24 21 20 17 17 21 22 26 23 24 22 24 29 31 32 25 23 29
39 39 40 41 42 42 42 42 42 43 43 42 39 40 39 36 34 31 31 31 31 31 29 31 31 31 33 29 29 25 22 21 20 20 20 20 21 22 24 23 18 32 29 26 28 29 28
40 40 40 41 41 41 42 42 42 43 43 43 36 39 42 38 36 35 35 36 33 34 34 35 30 31 33 29 29 24 24 26 20 19 32 25 27 27 27 24 31 35 33 32 30 28 29

GFSGBSN_sfc_dewp_135.txt.gz
Dewpoint
60 59 59 61 61 61 61 60 59 58 58 57 57 57 57 56 55 54 53 52 52 51 49 48 51 54 43 26 23 30 52 45 27 23 18 17 17 15 13 12 11 8 11 13 13 13 11
58 58 58 58 59 61 61 60 59 58 58 57 57 57 56 56 56 54 53 52 52 52 50 48 51 53 29 33 25 25 30 27 23 19 18 18 19 18 16 15 14 13 15 13 12 12 11
56 57 57 57 56 58 60 60 59 58 58 58 57 57 57 56 56 54 53 53 52 51 50 48 51 45 31 32 28 26 31 20 18 20 19 22 22 18 19 16 17 15 12 13 9 12 9
55 56 56 55 55 56 57 59 59 59 58 58 58 57 56 56 55 54 53 52 51 51 51 49 51 40 29 32 30 24 25 20 20 22 22 21 22 21 20 18 17 16 15 8 6 10 10
55 54 53 53 53 54 54 57 58 59 59 58 58 57 56 55 55 54 52 52 52 52 52 48 45 38 32 39 23 22 19 18 20 22 26 21 22 19 17 15 9 13 8 13 13 9 8
53 54 53 52 53 53 53 54 54 58 58 58 58 57 56 56 54 53 51 51 51 48 45 42 40 35 33 23 22 18 17 19 21 24 21 21 21 18 17 12 2 11 12 15 9 8 11
53 52 52 52 52 51 52 52 53 53 56 57 57 57 56 55 54 51 43 37 37 39 39 35 34 29 29 29 18 15 16 17 21 21 18 22 18 17 17 17 17 17 16 14 12 11 15
53 52 49 49 50 51 50 52 51 51 52 55 57 57 56 55 52 48 39 35 32 30 35 33 33 34 35 33 29 20 17 15 19 15 20 19 17 19 20 21 20 19 18 17 12 15 16
50 50 49 48 48 48 49 51 51 49 50 53 56 56 55 53 50 42 36 37 31 30 31 32 30 33 34 35 34 33 16 16 18 18 18 16 17 20 19 19 18 20 18 13 13 19 21
49 49 50 48 47 48 49 50 50 49 49 52 55 55 53 50 46 40 40 38 35 37 26 27 34 36 35 35 29 23 19 18 18 15 16 16 20 20 21 20 20 17 19 17 16 20 16
49 49 49 49 49 49 50 50 51 48 49 52 55 53 51 50 44 38 36 37 39 35 8 17 30 27 21 27 20 21 25 18 17 18 19 17 18 17 17 18 22 19 22 21 22 20 20
49 48 48 48 48 48 49 50 50 48 50 53 54 52 50 44 41 39 38 42 41 26 14 26 20 18 19 18 19 20 23 24 25 22 22 20 23 23 22 21 20 22 24 22 25 22 18
49 48 47 48 48 48 47 49 49 48 50 53 52 51 50 45 42 41 43 41 29 21 26 26 20 20 19 18 18 18 20 22 17 16 18 20 19 21 22 19 22 20 20 18 18 19 18
48 49 48 49 48 48 48 49 49 48 49 51 51 50 48 47 44 46 45 36 22 24 28 30 30 26 18 20 18 21 20 18 23 19 18 17 17 22 24 21 17 20 20 19 17 15 18
49 49 48 48 48 48 48 49 50 49 49 51 49 46 45 46 48 46 40 29 25 28 28 27 29 28 29 27 21 22 18 18 18 22 20 21 20 25 22 24 22 20 21 24 24 24 20
48 48 48 48 48 48 47 49 50 49 50 49 44 43 42 46 45 44 36 28 30 32 29 29 25 30 28 24 21 18 18 20 21 24 24 25 21 24 25 25 23 23 23 26 28 19 18
47 47 47 48 48 48 48 49 48 50 49 47 42 36 41 46 46 39 31 29 29 29 29 28 29 28 28 27 25 23 20 24 27 27 28 28 24 22 26 23 25 25 24 28 27 25 18
47 47 47 48 48 47 48 49 49 50 48 45 39 29 43 45 35 36 29 30 33 27 29 28 31 31 29 27 26 22 24 24 28 29 27 28 28 25 24 26 26 27 29 29 28 24 26
47 47 46 46 47 47 47 48 49 49 48 42 35 36 44 43 28 31 31 30 30 27 27 28 29 31 30 27 23 26 26 30 30 28 28 29 26 22 21 28 32 32 33 34 33 31 26
46 46 46 46 46 46 47 47 47 49 47 40 35 31 36 39 35 28 28 28 28 30 27 27 27 29 29 28 29 24 28 31 29 30 38 34 29 25 20 23 31 29 27 31 31 24 23
46 46 46 45 46 45 45 46 46 47 47 42 32 26 32 30 32 31 28 27 27 25 28 29 28 26 25 24 26 27 27 29 29 33 28 29 24 28 29 29 28 27 27 27 27 28 25
45 45 45 45 45 45 45 45 45 46 47 42 34 29 31 29 30 31 28 27 27 26 27 26 27 27 27 26 26 24 26 27 26 29 26 27 20 24 20 24 24 23 25 26 26 27 29
43 44 44 45 45 45 45 44 45 45 45 41 40 36 31 29 29 28 26 26 27 28 29 29 28 27 26 27 30 29 28 29 28 27 27 26 24 24 19 22 22 21 24 26 28 30 29
42 42 43 44 44 44 45 44 43 44 44 42 40 38 29 24 28 27 26 27 27 28 25 30 29 27 29 31 30 29 26 26 27 26 29 26 25 25 22 25 17 21 31 31 30 30 29
41 41 42 42 43 44 44 44 43 44 45 41 44 38 34 26 27 27 28 27 27 27 27 27 28 31 32 30 29 28 27 25 25 26 26 28 26 25 23 20 21 22 28 29 29 28 29
40 40 41 41 41 42 43 44 44 44 45 42 40 44 36 29 27 28 28 29 26 26 27 29 31 34 32 31 31 26 23 23 20 21 26 26 27 25 27 22 19 21 29 30 30 25 28
40 40 40 40 41 41 43 43 43 43 44 42 39 42 41 30 29 29 27 28 31 28 26 30 30 31 32 31 28 24 22 23 18 17 18 24 27 26 26 24 24 28 30 31 24 22 28
39 39 40 40 41 41 42 44 43 43 44 42 37 40 39 34 32 32 31 30 29 29 28 30 30 33 31 27 26 26 24 22 20 22 21 20 24 24 25 23 18 31 29 26 27 27 28
39 39 39 40 40 41 42 42 44 43 43 43 37 40 42 37 36 38 35 33 32 33 32 32 29 31 33 27 27 26 23 23 22 20 24 22 24 26 24 24 31 33 31 31 29 28 28

GFSGBSN_sfc_dewp_138.txt.gz
Dewpoint
62 62 61 61 61 61 61 60 59 58 58 58 57 57 57 57 57 55 54 53 53 53 52 51 50 53 41 34 25 30 50 44 25 19 18 18 17 16 14 13 12 8 11 14 13 13 12
59 59 58 58 59 59 61 61 60 59 58 58 57 57 57 57 57 56 55 54 53 53 52 52 50 53 29 37 26 25 28 23 18 18 18 18 19 19 16 16 14 14 14 14 12 11 12
58 58 58 57 57 57 58 59 59 59 59 58 57 57 57 57 57 56 55 54 53 53 52 53 50 44 30 37 28 24 27 21 18 20 20 21 21 18 20 15 18 16 14 14 7 11 10
57 57 57 57 56 56 55 56 58 59 59 58 58 57 57 57 56 56 55 54 53 53 53 53 49 39 32 34 33 32 25 23 20 21 21 22 21 19 20 19 15 15 13 10 3 10 9
56 56 56 56 55 54 54 54 56 58 59 58 58 57 57 56 56 55 54 53 52 53 52 50 43 37 33 40 27 22 21 19 19 23 23 21 20 19 18 14 7 13 9 13 13 11 9
56 55 55 54 53 53 53 53 53 55 57 58 58 57 57 56 55 54 52 51 51 49 45 43 41 35 33 27 24 18 19 20 20 23 21 21 21 19 17 13 10 9 13 14 13 13 11
53 55 55 53 53 52 52 53 52 52 53 57 57 57 57 56 55 52 46 36 36 39 40 36 36 31 30 28 22 19 18 19 22 18 17 22 17 16 17 17 16 16 16 16 15 17 13
53 54 53 52 52 52 51 52 52 50 50 53 56 57 57 56 54 48 40 36 32 30 35 36 35 35 35 35 33 25 16 14 20 14 19 18 16 18 21 21 20 19 19 18 18 17 14
52 53 52 50 50 50 49 51 51 49 49 51 54 56 56 54 50 44 39 39 31 31 32 33 32 33 34 35 35 34 16 17 17 17 19 16 17 18 19 19 19 19 19 19 17 17 21
50 51 51 50 48 49 50 51 52 49 48 49 53 55 54 51 48 43 43 39 35 36 26 24 32 33 34 35 30 27 21 17 19 14 17 16 18 21 21 19 19 18 20 19 17 19 16
50 50 50 50 50 49 50 50 51 49 48 49 53 55 52 50 44 42 38 37 39 33 7 15 35 28 28 29 22 21 23 18 16 17 17 16 17 16 16 15 20 18 21 20 20 20 21
50 50 49 50 49 48 49 50 49 50 48 51 54 53 51 45 41 39 38 41 40 25 15 23 20 17 20 19 19 21 22 23 22 19 21 17 21 21 20 21 21 21 21 22 25 21 18
49 49 49 49 49 48 48 49 49 49 49 52 53 52 50 44 41 40 43 41 29 17 23 23 19 18 19 18 18 18 21 20 15 14 16 19 19 20 23 19 21 21 19 18 17 19 16
49 49 49 48 48 48 48 48 48 48 51 52 52 50 48 47 44 45 45 37 23 22 26 29 30 20 19 20 18 21 19 16 20 18 17 16 14 22 23 20 19 19 19 18 15 15 16
49 49 49 48 48 48 48 48 49 48 51 51 49 46 46 46 47 46 40 31 25 25 28 27 29 27 25 26 20 21 18 18 18 21 18 20 19 23 23 24 21 19 20 22 23 23 18
49 48 48 48 48 48 48 48 49 49 51 49 45 43 43 46 46 43 37 30 28 31 29 29 24 29 27 24 21 18 18 21 21 24 24 23 20 23 25 25 22 22 23 19 25 21 20
48 48 48 48 48 48 48 48 49 49 50 47 41 36 40 46 45 40 32 29 30 30 28 28 28 28 27 26 24 23 21 22 27 27 27 26 23 22 26 23 20 23 23 28 28 27 20
47 47 48 47 47 48 48 48 48 50 49 45 39 28 42 45 35 35 31 30 33 28 29 27 30 31 28 27 25 23 23 23 27 28 24 28 26 24 22 25 32 27 27 30 23 24 27
47 47 47 47 47 47 47 48 48 49 47 42 34 35 44 41 29 31 31 30 30 27 27 27 27 29 30 27 21 26 25 29 30 27 26 27 25 21 19 25 28 30 32 33 32 28 21
47 47 46 46 47 47 47 47 47 48 47 41 35 31 36 39 33 29 28 28 28 30 28 27 27 29 28 27 29 24 26 31 29 28 38 34 27 24 20 20 29 27 28 28 30 25 21
46 46 46 46 46 46 46 47 46 48 47 41 32 28 33 30 32 29 28 28 27 25 29 29 26 26 26 24 26 25 27 27 29 31 33 31 25 28 28 29 30 28 26 26 24 25 25
45 44 45 45 46 46 46 45 46 46 47 41 32 29 32 29 31 30 29 27 26 27 26 25 27 27 26 21 21 23 26 26 26 28 26 27 19 23 20 25 25 23 23 23 23 24 26
44 44 44 46 45 45 45 45 45 46 46 41 39 35 31 29 29 30 28 26 27 29 29 28 27 26 25 26 28 28 28 29 29 28 27 27 25 22 20 22 23 19 18 22 24 27 27
44 43 44 45 45 45 45 44 45 45 44 43 42 35 28 23 28 26 27 27 26 28 25 29 29 28 29 31 30 29 28 28 28 29 29 26 25 25 22 23 14 18 27 28 28 29 30
44 44 43 43 44 44 45 44 44 45 45 39 43 40 33 25 27 27 27 27 27 28 28 28 28 31 31 29 28 26 26 25 25 25 26 28 25 24 23 20 20 20 22 30 29 27 31
43 43 43 43 44 44 44 44 45 44 45 40 38 44 38 29 26 27 28 27 26 26 27 28 31 32 30 28 26 24 21 23 21 19 25 26 26 23 22 20 16 22 28 30 30 23 29
41 42 42 43 43 43 43 44 44 43 43 41 37 41 39 33 31 30 27 27 29 27 26 28 31 31 31 29 26 24 24 23 19 17 18 23 25 22 22 22 24 26 30 31 23 21 28
41 41 41 42 42 42 42 43 44 44 44 43 39 40 39 33 35 31 31 30 31 30 27 29 29 30 30 28 25 24 24 23 20 21 20 20 24 23 25 23 19 31 28 26 28 28 28
40 41 41 40 41 41 41 42 43 44 44 44 38 40 42 37 36 40 38 37 32 32 30 31 28 30 32 29 27 26 25 24 21 16 23 20 25 25 25 24 30 33 32 32 30 28 28